[[{"header":{"parameterUnit":"m.s-1","parameterCategory":1,"la1":31.0,"la2":29.5877,"lo1":-88.7671,"lo2":-86.6584,"dy":0.0162,"dx":0.0185,"nx":115,"ny":88,"refTime":"2023-07-17T12:00:00:Z","depth":0,"parameterNumber":2,"parameterNumberName":"U-component_of_WINDS"},"data":[0.0,0.0,0.0,0.0,0.0,0.0,0.0,0.0,0.0,0.0,0.0,0.0,0.0,0.0,0.0,0.0,0.0,0.0,0.0,0.0,0.0,0.0,0.0,0.0,0.0,0.0,0.0,0.0,0.0,0.0,0.0,0.0,0.0,0.0,0.0,0.0,0.0,0.0,0.0,0.0,0.0,0.0,0.0,0.0,0.0,0.0,0.0,0.0,0.0,0.0,0.0,0.0,0.0,0.0,0.0,0.0,0.0,0.0,0.0,0.0,0.0,0.0,0.0,0.0,0.0,0.0,0.0,0.0,0.0,0.0,0.0,0.0,0.0,0.0,0.0,0.0,0.0,0.0,0.0,0.0,0.0,0.0,0.0,0.0,0.0,0.0,0.0,0.0,0.0,0.0,0.0,0.0,0.0,0.0,0.0,0.0,0.0,0.0,0.0,0.0,0.0,0.0,0.0,0.0,0.0,0.0,0.0,0.0,0.0,0.0,0.0,0.0,0.0,0.0,0.0,0.0,0.0,0.0,0.0,0.0,0.0,0.0,0.0,0.0,0.0,0.0,0.0,0.0,0.0,0.0,0.0,0.0,0.0,0.0,0.0,0.0,0.0,0.0,0.0,0.0,0.0,0.0,0.0,0.0,0.0,0.0,0.0,0.0,0.0,0.0,0.0,0.0,0.0,0.0,0.0,0.0,0.0,0.0,0.0,0.0,0.0,0.0,0.0,0.0,0.0,0.0,0.0,0.0,0.0,0.0,0.0,0.0,0.0,0.0,0.0,0.0,0.0,0.0,0.0,0.0,0.0,0.0,0.0,0.0,0.0,0.0,0.0,0.0,0.0,0.0,0.0,0.0,0.0,0.0,0.0,0.0,0.0,0.0,0.0,0.0,0.0,0.0,0.0,0.0,0.0,0.0,0.0,0.0,0.0,0.0,0.0,0.0,0.0,0.0,0.0,0.0,0.0,0.0,0.0,0.0,0.0,0.0,0.0,0.0,0.0,0.0,0.0,0.0,0.0,0.0,0.0,0.0,0.0,0.0,0.0,0.0,0.0,0.0,0.0,0.0,0.0,0.0,0.0,0.0,0.0,0.0,0.0,0.0,0.0,0.0,0.0,0.0,0.0,0.0,0.0,0.0,0.0,0.0,0.0,0.0,0.0,0.0,0.0,0.0,0.0,0.0,0.0,0.0,0.0,0.0,0.0,0.0,0.0,0.0,0.0,0.0,0.0,0.0,0.0,0.0,0.0,0.0,0.0,0.0,0.0,0.0,0.0,0.0,0.0,0.0,0.0,0.0,0.0,0.0,0.0,0.0,0.0,0.0,0.0,0.0,0.0,0.0,0.0,0.0,0.0,0.0,0.0,0.0,0.0,0.0,0.0,0.0,0.0,0.0,0.0,0.0,0.0,0.0,0.0,0.0,0.0,0.0,0.0,0.0,0.0,0.0,0.0,0.0,0.0,0.0,0.0,0.0,0.0,0.0,0.0,0.0,0.0,0.0,0.0,0.0,0.0,0.0,0.0,0.0,0.0,0.0,0.0,0.0,0.0,0.0,0.0,0.0,0.0,0.0,0.0,0.0,0.0,0.0,0.0,0.0,0.0,0.0,0.0,0.0,0.0,0.0,0.0,0.0,0.0,0.0,0.0,0.0,0.0,0.0,0.0,0.0,0.0,0.0,0.0,0.0,0.0,0.0,0.0,0.0,0.0,0.0,0.0,0.0,0.0,0.0,0.0,0.0,0.0,0.0,0.0,0.0,0.0,0.0,0.0,0.0,0.0,0.0,0.0,0.0,0.0,0.0,0.0,0.0,0.0,0.0,0.0,0.0,0.0,0.0,0.0,0.0,0.0,0.0,0.0,0.0,0.0,0.0,0.0,0.0,0.0,0.0,0.0,0.0,0.0,0.0,0.0,0.0,0.0,0.0,0.0,0.0,0.0,0.0,0.0,0.0,0.0,0.0,0.0,0.0,0.0,0.0,0.0,0.0,0.0,0.0,0.0,0.0,0.0,0.0,0.0,0.0,0.0,0.0,0.0,0.0,0.0,0.0,0.0,0.0,0.0,0.0,0.0,0.0,0.0,0.0,0.0,0.0,0.0,0.0,0.0,0.0,0.0,0.0,0.0,0.0,0.0,0.0,0.0,0.0,0.0,0.0,0.0,0.0,0.0,0.0,0.0,0.0,0.0,0.0,0.0,0.0,0.0,0.0,0.0,0.0,0.0,0.0,0.0,0.0,0.0,0.0,0.0,0.0,0.0,0.0,0.0,0.0,0.0,0.0,0.0,0.0,0.0,0.0,0.0,0.0,0.0,0.0,0.0,0.0,0.0,0.0,0.0,0.0,0.0,0.0,0.0,0.0,0.0,0.0,0.0,0.0,0.0,0.0,0.0,0.0,0.0,0.0,0.0,0.0,0.0,0.0,0.0,0.0,0.0,0.0,0.0,0.0,0.0,0.0,0.0,0.0,0.0,0.0,0.0,0.0,0.0,0.0,0.0,0.0,0.0,0.0,0.0,0.0,0.0,0.0,0.0,0.0,0.0,0.0,0.0,0.0,0.0,0.0,0.0,0.0,0.0,0.0,0.0,0.0,0.0,0.0,0.0,0.0,0.0,0.0,0.0,0.0,0.0,0.0,0.0,0.0,0.0,0.0,0.0,0.0,0.0,0.0,0.0,0.0,0.0,0.0,0.0,0.0,0.0,0.0,0.0,0.0,0.0,0.0,0.0,0.0,0.0,0.0,0.0,0.0,0.0,0.0,0.0,0.0,0.0,0.0,0.0,0.0,0.0,0.0,0.0,0.0,0.0,0.0,0.0,0.0,0.0,0.0,0.0,0.0,0.0,0.0,0.0,0.0,0.0,0.0,0.0,0.0,0.0,0.0,0.0,0.0,0.0,0.0,0.0,0.0,0.0,0.0,0.0,0.0,0.0,0.0,0.0,0.0,0.0,0.0,0.0,0.0,0.0,0.0,0.0,0.0,0.0,0.0,0.0,0.0,0.0,0.0,0.0,0.0,0.0,0.0,0.0,0.0,0.0,0.0,0.0,0.0,0.0,0.0,0.0,0.0,0.0,0.0,0.0,0.0,0.0,0.0,0.0,0.0,0.0,0.0,0.0,0.0,0.0,0.0,0.0,0.0,0.0,0.0,0.0,0.0,0.0,0.0,0.0,0.0,0.0,0.0,0.0,0.0,0.0,0.0,0.0,0.0,0.0,0.0,0.0,0.0,0.0,0.0,0.0,0.0,0.0,0.0,0.0,0.0,0.0,0.0,0.0,0.0,0.0,0.0,0.0,0.0,0.0,0.0,0.0,0.0,0.0,0.0,0.0,0.0,0.0,0.0,0.0,0.0,0.0,0.0,0.0,0.0,0.0,0.0,0.0,0.0,0.0,0.0,0.0,0.0,0.0,0.0,0.0,0.0,0.0,0.0,0.0,0.0,0.0,0.0,0.0,0.0,0.0,0.0,0.0,0.0,0.0,0.0,0.0,0.0,0.0,0.0,0.0,0.0,0.0,0.0,0.0,0.0,0.0,0.0,0.0,0.0,0.0,0.0,0.0,0.0,0.0,0.0,0.0,0.0,0.0,0.0,0.0,0.0,0.0,0.0,0.0,0.0,0.0,0.0,0.0,0.0,0.0,0.0,0.0,0.0,0.0,0.0,0.0,0.0,0.0,0.0,0.0,0.0,0.0,0.0,0.0,0.0,0.0,0.0,0.0,0.0,0.0,0.0,0.0,0.0,0.0,0.0,0.0,0.0,0.0,0.0,0.0,0.0,0.0,0.0,0.0,0.0,0.0,0.0,0.0,0.0,0.0,0.0,0.0,0.0,0.0,0.0,0.0,0.0,0.0,0.0,0.0,0.0,0.0,0.0,0.0,0.0,0.0,0.0,0.0,0.0,0.0,0.0,0.0,0.0,0.0,0.0,0.0,0.0,0.0,0.0,0.0,0.0,0.0,0.0,0.0,0.0,0.0,0.0,0.0,0.0,0.0,0.0,0.0,0.0,0.0,0.0,0.0,0.0,0.0,0.0,0.0,0.0,0.0,0.0,0.0,0.0,0.0,0.0,0.0,0.0,0.0,0.0,0.0,0.0,0.0,0.0,0.0,0.0,0.0,0.0,0.0,0.0,0.0,0.0,0.0,0.0,0.0,0.0,0.0,0.0,0.0,0.0,0.0,0.0,0.0,0.0,0.0,0.0,0.0,0.0,0.0,0.0,0.0,0.0,0.0,0.0,0.0,0.0,0.0,0.0,0.0,0.0,0.0,0.0,0.0,0.0,-3.3354,0.0,0.0,0.0,0.0,0.0,0.0,0.0,0.0,0.0,0.0,0.0,0.0,0.0,0.0,0.0,0.0,0.0,0.0,0.0,0.0,0.0,0.0,0.0,0.0,0.0,0.0,0.0,0.0,0.0,0.0,0.0,0.0,0.0,0.0,0.0,0.0,0.0,0.0,0.0,0.0,0.0,0.0,0.0,0.0,0.0,0.0,0.0,0.0,0.0,0.0,0.0,0.0,0.0,0.0,0.0,0.0,0.0,0.0,0.0,0.0,0.0,0.0,0.0,0.0,0.0,0.0,0.0,0.0,0.0,0.0,0.0,0.0,0.0,0.0,0.0,0.0,0.0,0.0,0.0,0.0,0.0,0.0,0.0,0.0,0.0,0.0,0.0,0.0,0.0,0.0,0.0,0.0,0.0,0.0,0.0,0.0,0.0,0.0,0.0,0.0,0.0,0.0,0.0,0.0,0.0,0.0,0.0,0.0,0.0,0.0,-3.4092,-3.3626,-3.3568,-3.3715,-3.402,0.0,0.0,0.0,0.0,0.0,0.0,0.0,0.0,0.0,0.0,0.0,0.0,0.0,0.0,0.0,0.0,0.0,0.0,0.0,0.0,0.0,0.0,0.0,0.0,0.0,0.0,0.0,0.0,0.0,0.0,0.0,0.0,0.0,0.0,0.0,0.0,0.0,0.0,0.0,0.0,0.0,0.0,0.0,0.0,0.0,0.0,0.0,0.0,0.0,0.0,0.0,0.0,0.0,0.0,0.0,0.0,0.0,0.0,0.0,0.0,0.0,0.0,0.0,0.0,0.0,0.0,0.0,0.0,0.0,0.0,0.0,0.0,0.0,0.0,0.0,0.0,0.0,0.0,0.0,0.0,0.0,0.0,0.0,0.0,0.0,0.0,0.0,0.0,0.0,0.0,0.0,0.0,0.0,0.0,0.0,0.0,0.0,0.0,0.0,0.0,0.0,0.0,0.0,0.0,0.0,0.0,0.0,0.0,0.0,0.0,0.0,0.0,-3.4507,-3.4392,-3.4331,0.0,0.0,0.0,0.0,0.0,0.0,0.0,0.0,0.0,0.0,0.0,0.0,0.0,0.0,0.0,0.0,0.0,0.0,0.0,0.0,0.0,0.0,0.0,0.0,0.0,0.0,0.0,0.0,0.0,0.0,0.0,0.0,0.0,0.0,0.0,0.0,0.0,0.0,0.0,0.0,0.0,0.0,0.0,0.0,0.0,0.0,0.0,0.0,0.0,0.0,0.0,0.0,0.0,0.0,0.0,0.0,0.0,0.0,0.0,0.0,0.0,0.0,0.0,0.0,0.0,0.0,0.0,0.0,0.0,0.0,0.0,0.0,0.0,0.0,0.0,0.0,0.0,0.0,0.0,0.0,0.0,0.0,0.0,0.0,0.0,0.0,0.0,0.0,0.0,0.0,0.0,0.0,0.0,0.0,0.0,0.0,0.0,0.0,0.0,0.0,0.0,0.0,0.0,0.0,0.0,0.0,0.0,0.0,0.0,0.0,-3.4697,-3.4687,-3.3939,0.0,-3.354,0.0,0.0,0.0,0.0,0.0,0.0,0.0,0.0,0.0,0.0,0.0,0.0,0.0,0.0,0.0,0.0,0.0,0.0,0.0,0.0,0.0,0.0,0.0,0.0,0.0,0.0,0.0,0.0,0.0,0.0,0.0,0.0,0.0,0.0,0.0,0.0,0.0,0.0,0.0,0.0,0.0,0.0,0.0,0.0,0.0,0.0,0.0,0.0,0.0,0.0,0.0,0.0,0.0,0.0,0.0,0.0,0.0,0.0,0.0,0.0,0.0,0.0,0.0,0.0,0.0,0.0,0.0,0.0,0.0,0.0,0.0,0.0,0.0,0.0,0.0,0.0,0.0,0.0,0.0,0.0,0.0,0.0,0.0,0.0,0.0,0.0,0.0,0.0,0.0,0.0,0.0,0.0,0.0,0.0,0.0,0.0,0.0,0.0,0.0,0.0,0.0,0.0,0.0,0.0,0.0,0.0,0.0,0.0,0.0,0.0,-3.4676,-3.4645,-3.4293,-3.4113,0.0,0.0,0.0,0.0,0.0,0.0,0.0,0.0,0.0,0.0,0.0,0.0,0.0,0.0,0.0,0.0,0.0,0.0,0.0,0.0,0.0,0.0,0.0,0.0,0.0,0.0,0.0,0.0,0.0,0.0,0.0,0.0,0.0,0.0,0.0,0.0,0.0,0.0,0.0,0.0,0.0,0.0,0.0,0.0,0.0,0.0,0.0,0.0,0.0,0.0,0.0,0.0,0.0,0.0,0.0,0.0,0.0,0.0,0.0,0.0,0.0,0.0,0.0,0.0,0.0,0.0,0.0,0.0,0.0,0.0,0.0,0.0,0.0,0.0,0.0,0.0,0.0,0.0,0.0,0.0,0.0,0.0,0.0,0.0,0.0,0.0,0.0,0.0,0.0,0.0,0.0,0.0,0.0,0.0,0.0,0.0,0.0,0.0,0.0,0.0,0.0,0.0,0.0,0.0,0.0,0.0,0.0,0.0,0.0,0.0,-3.4645,-3.4645,-3.4612,-3.4572,-3.458,-3.458,0.0,0.0,0.0,0.0,0.0,0.0,0.0,0.0,0.0,0.0,0.0,0.0,0.0,0.0,0.0,0.0,0.0,0.0,0.0,0.0,0.0,0.0,0.0,0.0,0.0,0.0,0.0,0.0,0.0,0.0,0.0,0.0,0.0,0.0,0.0,0.0,0.0,0.0,0.0,0.0,0.0,0.0,0.0,0.0,0.0,0.0,0.0,0.0,0.0,0.0,0.0,0.0,0.0,0.0,0.0,0.0,0.0,0.0,0.0,0.0,0.0,0.0,0.0,0.0,0.0,0.0,0.0,0.0,0.0,0.0,0.0,0.0,0.0,0.0,0.0,0.0,0.0,0.0,0.0,0.0,0.0,0.0,0.0,0.0,0.0,0.0,0.0,0.0,0.0,0.0,0.0,0.0,0.0,0.0,0.0,0.0,0.0,0.0,0.0,0.0,0.0,0.0,0.0,0.0,0.0,0.0,0.0,0.0,-3.4612,-3.4612,-3.4612,-3.4602,-3.4547,-3.4506,0.0,0.0,0.0,0.0,0.0,0.0,0.0,0.0,0.0,0.0,0.0,0.0,0.0,0.0,0.0,0.0,0.0,0.0,0.0,0.0,0.0,0.0,0.0,0.0,0.0,0.0,0.0,0.0,0.0,0.0,0.0,0.0,0.0,0.0,0.0,0.0,0.0,0.0,0.0,0.0,0.0,0.0,0.0,0.0,0.0,0.0,0.0,0.0,0.0,0.0,0.0,0.0,0.0,0.0,0.0,0.0,0.0,0.0,0.0,0.0,0.0,0.0,0.0,0.0,0.0,0.0,0.0,0.0,0.0,0.0,0.0,0.0,0.0,0.0,0.0,0.0,0.0,0.0,0.0,0.0,0.0,0.0,0.0,0.0,0.0,0.0,0.0,0.0,0.0,0.0,0.0,0.0,0.0,0.0,0.0,0.0,0.0,0.0,0.0,0.0,0.0,0.0,0.0,0.0,0.0,0.0,0.0,0.0,0.0,-3.4612,-3.4612,-3.4572,-3.4539,-3.4517,-3.4461,0.0,0.0,0.0,0.0,0.0,0.0,0.0,0.0,0.0,0.0,0.0,0.0,0.0,0.0,0.0,0.0,0.0,0.0,0.0,0.0,0.0,0.0,0.0,0.0,0.0,0.0,0.0,0.0,0.0,0.0,0.0,0.0,0.0,0.0,0.0,0.0,0.0,0.0,0.0,0.0,0.0,0.0,0.0,0.0,0.0,0.0,0.0,0.0,0.0,0.0,0.0,0.0,0.0,0.0,0.0,0.0,0.0,0.0,0.0,0.0,0.0,0.0,0.0,0.0,0.0,0.0,0.0,0.0,0.0,0.0,0.0,0.0,0.0,0.0,0.0,0.0,0.0,0.0,0.0,0.0,0.0,0.0,0.0,0.0,0.0,0.0,0.0,0.0,0.0,0.0,0.0,0.0,0.0,0.0,0.0,0.0,0.0,0.0,0.0,0.0,0.0,0.0,0.0,0.0,0.0,0.0,0.0,0.0,0.0,-3.4528,0.0,-3.4517,-3.4473,-3.4431,-3.4374,0.0,0.0,0.0,0.0,0.0,0.0,0.0,0.0,0.0,0.0,0.0,0.0,0.0,0.0,0.0,0.0,0.0,0.0,0.0,0.0,0.0,0.0,0.0,0.0,0.0,0.0,0.0,0.0,0.0,0.0,0.0,0.0,0.0,0.0,0.0,0.0,0.0,0.0,0.0,0.0,0.0,0.0,0.0,0.0,0.0,0.0,0.0,0.0,0.0,0.0,0.0,0.0,0.0,0.0,0.0,0.0,0.0,0.0,0.0,0.0,0.0,0.0,0.0,0.0,0.0,0.0,0.0,0.0,0.0,0.0,0.0,0.0,0.0,0.0,0.0,0.0,0.0,0.0,0.0,0.0,0.0,0.0,0.0,0.0,0.0,0.0,0.0,0.0,0.0,0.0,0.0,0.0,0.0,0.0,0.0,0.0,0.0,0.0,0.0,0.0,0.0,0.0,0.0,0.0,0.0,0.0,0.0,0.0,-3.4423,-3.4435,-3.4453,-3.4472,-3.4404,-3.4384,-3.4288,0.0,0.0,0.0,0.0,0.0,0.0,0.0,0.0,0.0,0.0,0.0,0.0,0.0,0.0,0.0,0.0,0.0,0.0,0.0,0.0,0.0,0.0,0.0,0.0,0.0,0.0,0.0,0.0,0.0,0.0,0.0,0.0,0.0,0.0,0.0,0.0,0.0,0.0,0.0,0.0,0.0,0.0,0.0,0.0,0.0,0.0,0.0,0.0,0.0,0.0,0.0,0.0,0.0,0.0,0.0,0.0,0.0,0.0,0.0,0.0,0.0,0.0,0.0,0.0,0.0,0.0,0.0,0.0,0.0,0.0,0.0,0.0,0.0,0.0,0.0,0.0,0.0,0.0,0.0,0.0,0.0,0.0,0.0,0.0,0.0,0.0,0.0,0.0,0.0,0.0,0.0,0.0,0.0,0.0,0.0,0.0,0.0,0.0,0.0,0.0,0.0,0.0,0.0,0.0,0.0,0.0,0.0,0.0,0.0,-3.5301,-3.5301,-3.5266,-3.5163,-3.5138,-3.4773,0.0,0.0,0.0,0.0,0.0,0.0,0.0,0.0,0.0,0.0,0.0,0.0,0.0,0.0,0.0,0.0,0.0,0.0,0.0,0.0,0.0,0.0,0.0,0.0,0.0,0.0,0.0,0.0,0.0,0.0,0.0,0.0,0.0,0.0,0.0,0.0,0.0,0.0,0.0,0.0,0.0,0.0,0.0,0.0,0.0,0.0,0.0,0.0,0.0,0.0,0.0,0.0,0.0,0.0,0.0,0.0,0.0,0.0,0.0,0.0,0.0,0.0,0.0,0.0,0.0,0.0,0.0,0.0,0.0,0.0,0.0,0.0,0.0,0.0,0.0,0.0,0.0,0.0,0.0,0.0,0.0,0.0,0.0,0.0,0.0,0.0,0.0,0.0,0.0,0.0,0.0,0.0,0.0,0.0,0.0,0.0,0.0,0.0,0.0,0.0,0.0,0.0,0.0,0.0,0.0,0.0,0.0,0.0,0.0,-3.7288,-3.7067,-3.6879,-3.6774,-3.6478,-3.5695,-3.437,0.0,0.0,0.0,0.0,0.0,0.0,0.0,0.0,0.0,0.0,0.0,0.0,0.0,0.0,0.0,0.0,0.0,0.0,0.0,0.0,0.0,0.0,0.0,0.0,0.0,0.0,0.0,0.0,0.0,0.0,0.0,0.0,0.0,0.0,0.0,0.0,0.0,0.0,0.0,0.0,0.0,0.0,0.0,0.0,0.0,0.0,0.0,0.0,0.0,0.0,0.0,0.0,0.0,0.0,0.0,0.0,0.0,0.0,0.0,0.0,0.0,0.0,0.0,0.0,0.0,0.0,0.0,0.0,0.0,0.0,0.0,0.0,0.0,0.0,0.0,0.0,0.0,0.0,0.0,0.0,0.0,0.0,0.0,0.0,0.0,0.0,0.0,0.0,0.0,0.0,0.0,0.0,0.0,0.0,0.0,0.0,0.0,0.0,0.0,0.0,0.0,0.0,0.0,0.0,0.0,0.0,0.0,0.0,-4.021,-3.9675,-3.9324,-3.9102,-3.8272,-3.6979,0.0,0.0,0.0,0.0,0.0,0.0,0.0,0.0,0.0,0.0,0.0,0.0,0.0,0.0,0.0,0.0,0.0,0.0,0.0,0.0,0.0,0.0,0.0,0.0,0.0,0.0,0.0,0.0,0.0,0.0,0.0,0.0,0.0,0.0,0.0,0.0,0.0,0.0,0.0,0.0,0.0,0.0,0.0,0.0,0.0,0.0,0.0,0.0,0.0,0.0,0.0,0.0,0.0,0.0,0.0,0.0,0.0,0.0,0.0,0.0,0.0,0.0,0.0,0.0,0.0,0.0,0.0,0.0,0.0,0.0,0.0,0.0,0.0,0.0,0.0,0.0,0.0,0.0,0.0,0.0,0.0,0.0,0.0,0.0,0.0,0.0,0.0,0.0,0.0,0.0,0.0,0.0,0.0,0.0,0.0,0.0,0.0,0.0,0.0,0.0,0.0,0.0,0.0,0.0,0.0,0.0,0.0,0.0,0.0,-4.1738,-4.3338,-4.3301,-4.1535,-4.0086,-3.8521,0.0,0.0,0.0,0.0,0.0,0.0,0.0,0.0,0.0,0.0,0.0,0.0,0.0,0.0,0.0,0.0,0.0,0.0,0.0,0.0,0.0,0.0,0.0,0.0,0.0,0.0,0.0,0.0,0.0,0.0,0.0,0.0,0.0,0.0,0.0,0.0,0.0,0.0,0.0,0.0,0.0,0.0,0.0,0.0,0.0,0.0,0.0,0.0,0.0,0.0,0.0,0.0,0.0,0.0,0.0,0.0,0.0,0.0,0.0,0.0,0.0,0.0,0.0,0.0,0.0,0.0,0.0,0.0,0.0,0.0,0.0,0.0,0.0,0.0,0.0,0.0,0.0,0.0,0.0,0.0,0.0,0.0,0.0,0.0,0.0,0.0,0.0,0.0,0.0,0.0,0.0,0.0,0.0,0.0,0.0,0.0,0.0,0.0,0.0,0.0,0.0,0.0,0.0,0.0,0.0,0.0,0.0,0.0,-4.0603,-4.2923,-4.5177,-4.5799,-4.462,-4.2496,-4.026,0.0,0.0,0.0,0.0,0.0,0.0,0.0,0.0,0.0,0.0,0.0,0.0,0.0,0.0,0.0,0.0,0.0,0.0,0.0,0.0,0.0,0.0,0.0,0.0,0.0,0.0,0.0,0.0,0.0,0.0,0.0,0.0,0.0,0.0,0.0,0.0,0.0,0.0,0.0,0.0,0.0,0.0,0.0,0.0,0.0,0.0,0.0,0.0,0.0,0.0,0.0,0.0,0.0,0.0,0.0,0.0,0.0,0.0,0.0,0.0,0.0,0.0,0.0,0.0,0.0,0.0,0.0,0.0,0.0,0.0,0.0,0.0,0.0,0.0,0.0,0.0,0.0,0.0,0.0,0.0,0.0,0.0,0.0,0.0,0.0,0.0,0.0,0.0,0.0,0.0,0.0,0.0,0.0,0.0,0.0,0.0,0.0,0.0,0.0,0.0,0.0,0.0,0.0,0.0,0.0,0.0,0.0,0.0,-4.146,-4.375,-4.5837,-4.7093,-4.7416,-4.487,-4.1918,0.0,0.0,0.0,0.0,0.0,0.0,0.0,0.0,0.0,0.0,0.0,0.0,0.0,0.0,0.0,0.0,0.0,0.0,0.0,0.0,0.0,0.0,0.0,0.0,0.0,0.0,0.0,0.0,0.0,0.0,0.0,0.0,0.0,0.0,0.0,0.0,0.0,0.0,0.0,0.0,0.0,0.0,0.0,0.0,0.0,0.0,0.0,0.0,0.0,0.0,0.0,0.0,0.0,0.0,0.0,0.0,0.0,0.0,0.0,0.0,0.0,0.0,0.0,0.0,0.0,0.0,0.0,0.0,0.0,0.0,0.0,0.0,0.0,0.0,0.0,0.0,0.0,0.0,0.0,0.0,0.0,0.0,0.0,0.0,0.0,0.0,0.0,0.0,0.0,0.0,0.0,0.0,0.0,0.0,0.0,0.0,0.0,0.0,0.0,0.0,0.0,0.0,0.0,0.0,0.0,0.0,0.0,0.0,-4.2191,-4.4289,-4.6016,-4.6954,-4.7026,-4.4776,-4.2497,0.0,0.0,0.0,0.0,0.0,0.0,0.0,0.0,0.0,0.0,0.0,0.0,0.0,0.0,0.0,0.0,0.0,0.0,0.0,0.0,0.0,0.0,0.0,0.0,0.0,0.0,0.0,0.0,0.0,0.0,0.0,0.0,0.0,0.0,0.0,0.0,0.0,0.0,0.0,0.0,0.0,0.0,0.0,0.0,0.0,0.0,0.0,0.0,-3.229,0.0,0.0,0.0,0.0,0.0,0.0,0.0,0.0,0.0,0.0,0.0,0.0,0.0,0.0,0.0,0.0,0.0,0.0,0.0,0.0,0.0,0.0,0.0,0.0,0.0,0.0,0.0,0.0,0.0,0.0,0.0,0.0,0.0,0.0,0.0,0.0,0.0,0.0,0.0,0.0,0.0,0.0,0.0,0.0,0.0,0.0,0.0,0.0,0.0,0.0,0.0,0.0,0.0,0.0,0.0,0.0,0.0,0.0,0.0,-4.2147,-4.4471,-4.5626,-4.6297,-4.6484,-4.4933,-4.3088,0.0,0.0,0.0,0.0,0.0,0.0,0.0,0.0,0.0,0.0,0.0,0.0,0.0,0.0,0.0,0.0,0.0,0.0,0.0,0.0,0.0,0.0,0.0,0.0,0.0,0.0,0.0,0.0,0.0,0.0,0.0,0.0,0.0,0.0,0.0,0.0,0.0,0.0,0.0,0.0,0.0,0.0,0.0,0.0,0.0,0.0,0.0,0.0,0.0,0.0,0.0,0.0,0.0,0.0,0.0,0.0,0.0,0.0,0.0,0.0,0.0,0.0,0.0,0.0,0.0,0.0,0.0,0.0,0.0,0.0,0.0,0.0,0.0,0.0,0.0,0.0,0.0,0.0,0.0,0.0,0.0,0.0,0.0,0.0,0.0,0.0,0.0,0.0,0.0,0.0,0.0,0.0,0.0,0.0,0.0,0.0,0.0,0.0,0.0,0.0,0.0,0.0,0.0,0.0,0.0,0.0,0.0,-4.0129,-4.2106,-4.4615,-4.5183,-4.5615,-4.6062,-4.5112,-4.346,-4.1141,0.0,0.0,0.0,0.0,0.0,0.0,0.0,0.0,0.0,0.0,0.0,0.0,0.0,0.0,0.0,0.0,0.0,0.0,0.0,0.0,0.0,0.0,0.0,0.0,0.0,0.0,0.0,0.0,0.0,0.0,0.0,0.0,0.0,0.0,0.0,0.0,0.0,0.0,-3.0799,-3.1429,0.0,0.0,0.0,0.0,0.0,0.0,0.0,0.0,-3.2063,0.0,0.0,0.0,0.0,0.0,0.0,0.0,0.0,0.0,0.0,0.0,0.0,0.0,0.0,0.0,0.0,0.0,0.0,0.0,0.0,0.0,0.0,0.0,0.0,0.0,0.0,0.0,0.0,0.0,0.0,0.0,0.0,0.0,0.0,0.0,0.0,0.0,0.0,0.0,0.0,0.0,0.0,0.0,0.0,0.0,0.0,0.0,0.0,0.0,0.0,0.0,0.0,0.0,0.0,0.0,0.0,-3.9165,-4.1293,-4.3288,-4.52,-4.5337,-4.545,-4.5494,-4.4862,-4.3228,-4.0594,0.0,0.0,0.0,0.0,0.0,0.0,0.0,0.0,0.0,0.0,0.0,0.0,0.0,0.0,0.0,0.0,0.0,0.0,0.0,0.0,0.0,0.0,0.0,0.0,0.0,0.0,0.0,0.0,0.0,0.0,0.0,0.0,0.0,0.0,0.0,0.0,0.0,0.0,0.0,-3.2395,-3.2747,0.0,0.0,0.0,0.0,0.0,0.0,0.0,0.0,-3.2457,0.0,0.0,0.0,0.0,0.0,0.0,0.0,0.0,0.0,0.0,0.0,0.0,0.0,0.0,0.0,0.0,0.0,0.0,0.0,0.0,0.0,0.0,0.0,0.0,0.0,0.0,0.0,0.0,0.0,0.0,0.0,0.0,0.0,0.0,0.0,0.0,0.0,0.0,0.0,0.0,0.0,0.0,0.0,0.0,0.0,0.0,0.0,0.0,0.0,0.0,0.0,0.0,0.0,0.0,0.0,-3.9346,-4.1815,-4.3875,-4.5354,-4.5414,-4.5414,-4.538,-4.4405,-4.2732,0.0,0.0,0.0,0.0,0.0,0.0,0.0,0.0,0.0,0.0,0.0,0.0,0.0,0.0,0.0,0.0,0.0,0.0,0.0,0.0,0.0,0.0,0.0,0.0,0.0,0.0,0.0,0.0,0.0,0.0,0.0,0.0,0.0,0.0,0.0,0.0,0.0,0.0,0.0,0.0,-3.3444,-3.3536,-3.4627,0.0,0.0,0.0,0.0,0.0,0.0,-3.2904,-3.2778,0.0,0.0,0.0,0.0,0.0,0.0,0.0,0.0,0.0,0.0,0.0,0.0,0.0,0.0,0.0,0.0,0.0,0.0,0.0,0.0,0.0,0.0,0.0,0.0,0.0,0.0,0.0,0.0,0.0,0.0,0.0,0.0,0.0,0.0,0.0,0.0,0.0,0.0,0.0,0.0,0.0,0.0,0.0,0.0,0.0,0.0,0.0,0.0,0.0,0.0,0.0,0.0,0.0,0.0,0.0,-3.9529,-4.2265,-4.4264,-4.5354,-4.5414,-4.5414,-4.538,-4.3929,-4.2148,0.0,0.0,0.0,0.0,0.0,0.0,0.0,0.0,0.0,0.0,0.0,0.0,0.0,0.0,0.0,0.0,0.0,0.0,0.0,0.0,0.0,0.0,0.0,0.0,0.0,0.0,0.0,0.0,0.0,0.0,0.0,0.0,0.0,0.0,0.0,0.0,0.0,0.0,0.0,0.0,0.0,-3.4075,-3.5523,-3.3769,0.0,0.0,0.0,0.0,-3.2627,-3.3287,0.0,0.0,0.0,0.0,0.0,0.0,0.0,0.0,0.0,0.0,0.0,0.0,0.0,0.0,0.0,0.0,0.0,0.0,0.0,0.0,0.0,0.0,0.0,0.0,0.0,0.0,0.0,0.0,0.0,0.0,0.0,0.0,0.0,0.0,0.0,0.0,0.0,0.0,0.0,0.0,0.0,0.0,0.0,0.0,0.0,0.0,0.0,0.0,0.0,0.0,0.0,0.0,0.0,0.0,0.0,0.0,-4.0145,-4.2929,-4.4707,-4.5345,-4.5414,-4.5414,-4.538,-4.3519,-4.1493,0.0,0.0,0.0,0.0,0.0,0.0,0.0,0.0,0.0,0.0,0.0,0.0,0.0,0.0,0.0,0.0,0.0,0.0,0.0,0.0,0.0,0.0,0.0,0.0,0.0,0.0,0.0,0.0,0.0,0.0,0.0,0.0,0.0,0.0,0.0,0.0,0.0,0.0,0.0,0.0,0.0,-3.3895,-3.5397,-3.4095,-3.2777,0.0,0.0,-3.3347,-3.4723,-3.5116,0.0,0.0,0.0,0.0,0.0,0.0,0.0,0.0,0.0,0.0,0.0,0.0,0.0,0.0,0.0,0.0,0.0,0.0,0.0,0.0,0.0,0.0,0.0,0.0,0.0,0.0,0.0,0.0,0.0,0.0,0.0,0.0,0.0,0.0,0.0,0.0,0.0,0.0,0.0,0.0,0.0,0.0,0.0,0.0,0.0,0.0,0.0,0.0,0.0,0.0,0.0,0.0,0.0,0.0,0.0,-3.9409,-4.0329,-4.3388,-4.5148,-4.538,-4.5414,-4.5414,-4.5397,-4.3024,-4.0941,0.0,0.0,0.0,0.0,0.0,0.0,0.0,0.0,0.0,0.0,0.0,0.0,0.0,0.0,0.0,0.0,0.0,0.0,0.0,0.0,0.0,0.0,0.0,0.0,0.0,0.0,0.0,0.0,0.0,0.0,0.0,0.0,0.0,0.0,0.0,0.0,0.0,0.0,0.0,0.0,0.0,0.0,-3.5391,-3.4505,0.0,0.0,0.0,-3.3326,-3.3963,0.0,0.0,0.0,0.0,0.0,0.0,0.0,0.0,0.0,0.0,0.0,0.0,0.0,0.0,0.0,0.0,0.0,0.0,0.0,0.0,0.0,0.0,0.0,0.0,0.0,0.0,0.0,0.0,0.0,0.0,0.0,0.0,0.0,0.0,0.0,0.0,0.0,0.0,0.0,0.0,0.0,0.0,0.0,0.0,0.0,0.0,0.0,0.0,0.0,0.0,0.0,0.0,0.0,0.0,0.0,0.0,0.0,-4.0613,-4.3677,-4.526,-4.5147,-4.4958,-4.4854,-4.4803,-4.2445,0.0,0.0,0.0,0.0,0.0,0.0,0.0,0.0,0.0,0.0,0.0,0.0,0.0,0.0,0.0,0.0,0.0,0.0,0.0,0.0,0.0,0.0,0.0,0.0,0.0,0.0,0.0,-2.7665,0.0,0.0,0.0,0.0,0.0,0.0,0.0,0.0,0.0,0.0,0.0,0.0,0.0,0.0,-3.4431,-3.5374,-3.4762,-3.4013,0.0,0.0,-3.3443,-3.3671,-3.4886,-3.5273,0.0,0.0,0.0,0.0,0.0,0.0,0.0,0.0,0.0,0.0,0.0,0.0,0.0,0.0,0.0,0.0,0.0,0.0,0.0,0.0,0.0,0.0,0.0,0.0,0.0,0.0,0.0,0.0,0.0,0.0,0.0,0.0,0.0,0.0,0.0,0.0,0.0,0.0,0.0,0.0,0.0,0.0,0.0,0.0,0.0,0.0,0.0,0.0,0.0,0.0,0.0,0.0,0.0,0.0,0.0,-4.1368,-4.3751,-4.4788,-4.4388,-4.3707,-4.3345,-4.3327,-4.1819,-4.0053,0.0,0.0,0.0,0.0,0.0,0.0,0.0,0.0,0.0,0.0,0.0,0.0,0.0,0.0,0.0,0.0,0.0,0.0,0.0,0.0,0.0,0.0,0.0,0.0,0.0,0.0,0.0,0.0,0.0,0.0,0.0,0.0,0.0,0.0,0.0,0.0,0.0,0.0,0.0,0.0,0.0,-3.3755,-3.529,-3.4745,-3.4236,0.0,0.0,-3.4404,-3.5211,-3.6078,-3.6112,-3.4421,0.0,0.0,0.0,0.0,0.0,0.0,0.0,0.0,0.0,0.0,0.0,0.0,0.0,0.0,0.0,0.0,0.0,0.0,0.0,0.0,0.0,0.0,0.0,0.0,0.0,0.0,0.0,0.0,0.0,0.0,0.0,0.0,0.0,0.0,0.0,0.0,0.0,0.0,0.0,0.0,0.0,0.0,0.0,0.0,0.0,0.0,0.0,0.0,0.0,0.0,0.0,0.0,0.0,-3.9843,-4.1507,-4.309,-4.4012,-4.4242,-4.3586,-4.3207,-4.3189,-4.1784,-4.0226,0.0,0.0,0.0,0.0,0.0,0.0,0.0,0.0,0.0,0.0,0.0,0.0,0.0,0.0,0.0,0.0,0.0,0.0,0.0,0.0,0.0,0.0,0.0,0.0,0.0,0.0,0.0,0.0,-2.9285,-2.9824,-3.0074,0.0,0.0,0.0,0.0,0.0,0.0,0.0,0.0,0.0,0.0,-3.4354,-3.5946,-3.5508,0.0,0.0,-3.465,-3.4404,-3.465,-3.5043,-3.4891,-3.3606,-3.2879,0.0,0.0,0.0,0.0,0.0,0.0,0.0,0.0,0.0,0.0,0.0,0.0,0.0,0.0,0.0,0.0,0.0,0.0,0.0,0.0,0.0,0.0,0.0,0.0,0.0,0.0,0.0,0.0,0.0,0.0,0.0,0.0,0.0,0.0,0.0,0.0,0.0,0.0,0.0,0.0,0.0,0.0,0.0,0.0,0.0,0.0,0.0,0.0,0.0,0.0,0.0,0.0,-3.9556,-4.1227,-4.2585,-4.3388,-4.3603,-4.2896,-4.2516,-4.2482,-4.1518,-4.0215,0.0,0.0,0.0,0.0,0.0,0.0,0.0,0.0,0.0,0.0,0.0,0.0,0.0,0.0,0.0,0.0,0.0,0.0,0.0,0.0,0.0,0.0,0.0,0.0,0.0,0.0,0.0,0.0,-3.023,-3.0647,-3.0388,0.0,0.0,0.0,0.0,0.0,0.0,0.0,0.0,0.0,0.0,-3.4729,-3.6001,-3.5772,-3.5368,-3.5132,-3.4656,-3.4192,-3.3929,-3.3962,-3.3755,-3.3066,0.0,0.0,0.0,0.0,0.0,0.0,0.0,0.0,0.0,0.0,0.0,0.0,0.0,0.0,0.0,0.0,0.0,0.0,0.0,0.0,0.0,0.0,0.0,0.0,0.0,0.0,0.0,0.0,0.0,0.0,0.0,0.0,0.0,0.0,0.0,0.0,0.0,0.0,0.0,0.0,0.0,0.0,0.0,0.0,0.0,0.0,0.0,0.0,0.0,0.0,0.0,0.0,0.0,-3.9914,-4.0446,-4.2353,-4.2935,-4.2092,-4.1343,-4.0981,-4.0981,-4.0912,-3.9871,-3.7715,0.0,0.0,0.0,0.0,0.0,0.0,0.0,0.0,0.0,0.0,0.0,0.0,0.0,0.0,0.0,0.0,0.0,0.0,0.0,0.0,0.0,0.0,0.0,0.0,0.0,0.0,-3.0006,-3.1379,-3.1844,0.0,0.0,0.0,0.0,0.0,0.0,0.0,0.0,0.0,0.0,-3.3745,-3.4611,-3.523,-3.5291,-3.5046,-3.4376,-3.4119,-3.379,-3.3237,-3.3125,-3.3125,0.0,0.0,0.0,0.0,0.0,0.0,0.0,0.0,0.0,0.0,0.0,0.0,0.0,0.0,0.0,0.0,0.0,0.0,0.0,0.0,0.0,0.0,0.0,0.0,0.0,0.0,0.0,0.0,-3.7974,0.0,0.0,0.0,0.0,0.0,0.0,0.0,0.0,0.0,0.0,0.0,-4.0308,-3.9807,0.0,0.0,0.0,0.0,0.0,0.0,0.0,0.0,0.0,0.0,0.0,0.0,-3.9464,-4.0581,-4.134,-4.1812,-4.1964,-4.1291,-4.0894,-4.0894,-4.0894,-3.9893,-3.7745,0.0,0.0,0.0,0.0,0.0,0.0,0.0,0.0,0.0,0.0,0.0,0.0,0.0,0.0,0.0,0.0,0.0,0.0,0.0,0.0,0.0,0.0,0.0,0.0,0.0,-2.9539,0.0,0.0,0.0,0.0,0.0,0.0,0.0,0.0,0.0,0.0,0.0,-3.265,-3.2971,-3.3679,-3.4247,-3.4521,-3.456,-3.4667,0.0,0.0,0.0,0.0,0.0,0.0,0.0,0.0,0.0,0.0,0.0,0.0,0.0,0.0,-3.0408,-2.9937,-2.976,-2.9608,-2.9428,0.0,0.0,0.0,0.0,0.0,0.0,0.0,0.0,0.0,0.0,0.0,0.0,0.0,0.0,0.0,0.0,-3.9724,0.0,0.0,0.0,0.0,0.0,0.0,0.0,0.0,-4.042,-4.1219,-4.198,-4.1479,-4.1237,0.0,-4.0354,-3.9336,0.0,0.0,0.0,0.0,0.0,0.0,0.0,0.0,-3.9379,-4.0235,-4.0994,-4.143,-4.1585,-4.1153,-4.0894,-4.0894,-4.0499,-3.9579,-3.8062,-3.6524,-3.5263,0.0,0.0,0.0,0.0,0.0,0.0,0.0,0.0,0.0,0.0,0.0,0.0,0.0,0.0,0.0,0.0,0.0,0.0,0.0,0.0,0.0,0.0,0.0,-3.0217,0.0,0.0,0.0,0.0,0.0,0.0,0.0,0.0,0.0,-3.1824,-3.2484,-3.2983,-3.3086,-3.3717,-3.4063,-3.3773,0.0,0.0,0.0,0.0,0.0,0.0,0.0,-3.1741,-3.1841,-3.2022,-3.2216,-3.2436,-3.1967,-3.1598,-3.1706,0.0,0.0,-3.0675,-3.0345,-3.0057,-2.9955,-2.9928,-2.9875,-2.9756,-2.9729,-2.9702,0.0,0.0,0.0,0.0,0.0,0.0,0.0,0.0,-4.1996,-4.1955,0.0,-4.1082,0.0,0.0,0.0,0.0,0.0,0.0,0.0,0.0,-4.2797,-4.354,-4.2872,-4.2816,-4.2835,-4.2779,-4.1979,-4.148,-4.1274,-3.9815,0.0,0.0,0.0,0.0,0.0,0.0,-3.9697,-3.9585,-4.1283,-4.1796,-4.1006,-4.0959,-4.0942,-4.0907,-3.9796,-3.9015,-3.858,-3.6884,-3.5775,-3.5501,-3.4259,0.0,0.0,0.0,0.0,0.0,0.0,0.0,0.0,0.0,0.0,0.0,0.0,0.0,0.0,0.0,0.0,0.0,0.0,0.0,0.0,-3.0809,0.0,0.0,0.0,0.0,0.0,0.0,0.0,0.0,0.0,0.0,-3.2007,-3.267,-3.3136,-3.3086,0.0,0.0,0.0,0.0,-3.3506,-3.1918,-3.1572,-3.1281,-3.0532,-3.1045,-3.183,-3.2597,0.0,0.0,-3.282,-3.1463,-3.0794,-3.1244,-3.1294,-3.101,-3.1095,-3.0624,-3.0126,-2.9957,-2.9934,-2.9847,-2.9723,-2.9801,-2.9771,-4.6656,0.0,0.0,0.0,0.0,-4.2391,-4.2921,-4.3575,-4.4166,-4.4046,-4.3435,-4.3197,0.0,0.0,0.0,0.0,0.0,0.0,-4.163,-4.2129,-4.2816,-4.3318,-4.367,-4.367,-4.3652,-4.3633,-4.3398,-4.3209,-4.3065,-4.2622,-4.1325,-3.9286,0.0,0.0,0.0,0.0,-4.0438,-4.0931,-4.1759,-4.2092,-4.1839,-4.1839,-4.1666,-4.1351,-3.9668,-3.8864,-3.9006,-3.7203,-3.6063,-3.5794,-3.5255,0.0,0.0,0.0,0.0,0.0,0.0,0.0,0.0,0.0,0.0,0.0,0.0,0.0,0.0,0.0,0.0,0.0,0.0,0.0,-3.0044,-3.077,-3.119,0.0,0.0,0.0,0.0,0.0,0.0,0.0,0.0,0.0,-3.3539,-3.4096,-3.414,0.0,0.0,-3.2901,-3.2077,-3.2182,-3.2569,-3.3184,0.0,0.0,0.0,-3.2597,-3.2585,-3.3228,-3.3947,-3.4354,-3.4145,-3.3819,-3.364,-3.3778,-3.3485,-3.3089,-3.2599,-3.177,-3.1125,-3.1027,-3.0999,-3.1014,-3.0986,-3.0943,-3.0943,-4.973,-4.6532,-4.4878,-4.3777,-4.3189,-4.3432,-4.3781,-4.4147,-4.464,-4.455,-4.4067,-4.4067,-4.3387,-4.2211,-4.1894,0.0,0.0,0.0,-4.2545,-4.328,-4.3262,-4.3522,-4.3986,-4.4005,-4.4005,-4.4005,-4.3974,-4.3915,-4.3804,-4.3736,-4.275,-4.091,0.0,0.0,-4.0302,-4.0862,-4.127,-4.1502,-4.2142,-4.2398,-4.2216,-4.2216,-4.1827,-4.106,-3.9912,-3.9159,-3.8757,-3.7626,-3.6805,-3.6311,-3.6029,-3.5446,0.0,0.0,0.0,0.0,0.0,0.0,0.0,0.0,0.0,0.0,0.0,-2.973,0.0,0.0,0.0,0.0,-3.006,-3.0138,-3.0497,-3.0937,0.0,0.0,0.0,0.0,0.0,0.0,0.0,-3.335,-3.3879,-3.4326,-3.4588,-3.4914,-3.4701,-3.3645,-3.3434,-3.3062,-3.2237,0.0,-3.2807,-3.3344,-3.2978,-3.28,-3.3286,-3.3197,-3.3284,-3.4027,-3.4299,-3.4456,-3.4472,-3.4341,-3.4243,-3.4193,-3.3968,-3.3569,-3.2975,-3.2299,-3.1783,-3.1553,-3.1496,-3.1496,-3.1496,-3.1496,-3.1496,-5.2371,-5.0365,-4.6605,-4.4864,-4.4594,-4.4457,-4.438,-4.4283,-4.4246,-4.4209,-4.4191,-4.4042,-4.3627,-4.2943,-4.2217,0.0,0.0,-4.2921,-4.3299,-4.4005,-4.4005,-4.4005,-4.4005,-4.4005,-4.4005,-4.4005,-4.3945,-4.3867,-4.3804,-4.3703,-4.3214,-4.2431,-4.2396,-4.1959,-4.1196,-4.1887,-4.2081,-4.1685,-4.2502,-4.275,-4.232,-4.2259,-4.168,-4.0521,-4.0409,-3.9676,-3.8272,-3.8079,-3.7739,-3.7038,-3.6738,-3.6274,-3.5621,0.0,0.0,0.0,0.0,0.0,0.0,0.0,0.0,0.0,0.0,0.0,0.0,0.0,0.0,0.0,-3.13,0.0,-3.136,-3.136,0.0,0.0,0.0,-3.2534,-3.3308,-3.329,-3.3498,-3.4231,0.0,0.0,0.0,0.0,-3.4971,-3.4549,-3.4398,-3.4024,-3.31,-3.3612,-3.3823,-3.2954,-3.2737,-3.2714,-3.2899,-3.3317,-3.3954,-3.4669,-3.4497,-3.4226,-3.4201,-3.3825,-3.3407,-3.3469,-3.3355,-3.3214,-3.2641,-3.2602,-3.2355,-3.1796,-3.1582,-3.1496,-3.1496,-3.1496,-3.1496,-5.2531,-5.1345,-4.9322,-4.7701,-4.6501,-4.6955,-4.7031,-4.6773,-4.616,-4.59,-4.5825,-4.4562,-4.3909,-4.3723,-4.3553,-4.3556,-4.3723,-4.3723,-4.3819,-4.4005,-4.4005,-4.4005,-4.4005,-4.4005,-4.4005,-4.4005,-4.3989,-4.3913,-4.3804,-4.38,-4.3658,-4.3306,-4.3289,-4.2851,-4.2032,-4.2213,-4.2529,-4.3029,-4.323,-4.3322,-4.3196,-4.2883,-4.2276,-4.1351,-4.0483,-3.9675,-3.8959,-3.8098,-3.7685,-3.7791,-3.747,-3.697,-3.6363,-3.5471,0.0,0.0,0.0,0.0,0.0,0.0,0.0,0.0,0.0,-3.1389,-3.1524,0.0,-3.191,0.0,-3.1797,-3.2256,-3.2831,-3.2882,0.0,0.0,-3.3115,-3.3398,-3.4129,-3.4192,-3.4413,-3.5099,-3.5217,-3.5244,-3.5412,-3.5354,-3.5264,-3.5217,-3.4492,-3.3838,-3.3603,-3.3725,-3.4024,-3.4263,-3.4322,-3.4322,-3.4315,-3.4471,-3.4636,-3.4866,-3.4804,-3.4732,-3.4715,-3.4602,-3.4505,-3.4505,-3.4505,-3.4292,-3.3764,-3.3704,-3.3465,-3.2895,-3.2132,-3.1496,-3.1496,-3.1496,-3.1496,-5.2907,-5.224,-5.0703,-4.9346,-4.8221,-4.8036,-4.7655,-4.7125,-4.6698,-4.6513,-4.6438,-4.5528,-4.5119,-4.5119,-4.5119,-4.5119,-4.5119,-4.5119,-4.5119,-4.5101,-4.5101,-4.5119,-4.5119,-4.5101,-4.4934,-4.4581,-4.4581,-4.4332,-4.3869,-4.3883,-4.3781,-4.3617,-4.3667,-4.3396,-4.2872,-4.2837,-4.3057,-4.3479,-4.3479,-4.3479,-4.3479,-4.3286,-4.2523,-4.1162,-4.0673,-3.9877,-3.8755,-3.7924,-3.7543,-3.7558,-3.7183,-3.6635,-3.5932,-3.5299,-3.4688,0.0,0.0,0.0,0.0,0.0,0.0,0.0,0.0,0.0,0.0,0.0,-3.2895,0.0,-3.2662,0.0,-3.3334,-3.3389,-3.3503,-3.3863,-3.3897,-3.4184,-3.4895,-3.4996,-3.5143,-3.5515,-3.5543,-3.5543,-3.5543,-3.5709,-3.5817,-3.5904,-3.5528,-3.5171,-3.492,-3.4878,-3.512,-3.5744,-3.5876,-3.5876,-3.5876,-3.5611,-3.5379,-3.5363,-3.5114,-3.4899,-3.4899,-3.4899,-3.4899,-3.4899,-3.4899,-3.4739,-3.4226,-3.4101,-3.3892,-3.3303,-3.2707,-3.2296,-3.2241,-3.2256,-3.2201,-5.3548,-5.3157,-5.1412,-5.0336,-4.9702,-4.854,-4.7555,-4.6791,-4.668,-4.6587,-4.6513,-4.6513,-4.6513,-4.6513,-4.6513,-4.6513,-4.6513,-4.6513,-4.6513,-4.6513,-4.6513,-4.6513,-4.6513,-4.6513,-4.6141,-4.5472,-4.547,-4.5034,-4.423,-4.423,-4.413,-4.3962,-4.3974,-4.3869,-4.3696,-4.3587,-4.3479,-4.3479,-4.3479,-4.3479,-4.3479,-4.3387,-4.2461,-4.0688,-4.08,-4.0067,-3.8292,-3.7838,-3.7485,-3.713,-3.6687,-3.6133,-3.5506,-3.5047,-3.4612,0.0,-3.3517,0.0,0.0,0.0,0.0,0.0,0.0,0.0,0.0,-3.3683,-3.371,-3.3726,-3.3605,-3.3592,-3.3677,-3.3672,-3.3931,-3.4539,-3.4641,-3.4895,-3.5515,-3.5616,-3.5616,-3.5616,-3.5684,-3.5752,-3.5802,-3.6219,-3.6587,-3.6556,-3.6762,-3.6813,-3.6547,-3.6338,-3.6447,-3.7036,-3.7119,-3.6936,-3.692,-3.6522,-3.6108,-3.5959,-3.5495,-3.5015,-3.4916,-3.4899,-3.4899,-3.4899,-3.4899,-3.4739,-3.4275,-3.4226,-3.4043,-3.3588,-3.3443,-3.3329,-3.3039,-3.2933,-3.2906,-5.4525,-5.4289,-5.2367,-5.1308,-5.081,-4.9736,-4.8968,-4.8407,-4.7776,-4.7107,-4.6513,-4.6513,-4.6513,-4.6513,-4.6513,-4.6513,-4.6513,-4.6513,-4.6513,-4.6513,-4.6513,-4.6513,-4.6513,-4.6513,-4.642,-4.629,-4.6271,-4.6129,-4.586,-4.598,-4.5947,-4.5773,-4.5114,-4.4766,-4.4677,0.0,0.0,0.0,-4.3479,-4.3479,-4.3461,-4.2855,-4.2032,-4.1031,-4.0437,0.0,-3.8651,-3.8511,-3.8438,-3.8339,-3.7649,0.0,0.0,0.0,0.0,0.0,0.0,0.0,0.0,0.0,0.0,0.0,-3.3645,-3.3534,-3.3669,-3.3656,-3.3807,-3.4278,-3.429,-3.4523,-3.5131,-3.5177,-3.5245,-3.5363,-3.5397,-3.5447,-3.56,-3.5616,-3.5616,-3.5616,-3.6163,-3.6558,-3.6552,-3.7094,-3.7388,-3.7274,-3.7261,-3.7436,-3.7766,-3.7285,-3.6978,-3.7102,-3.7235,-3.7152,-3.7119,-3.7003,-3.6704,-3.6174,-3.5926,-3.5545,-3.5065,-3.4899,-3.4899,-3.4899,-3.4899,-3.4875,-3.4739,-3.4739,-3.4667,-3.4578,-3.4554,-3.4152,-3.2857,-3.2559,-3.2382,-5.4703,0.0,-5.3041,-5.2237,0.0,-5.0846,-5.0197,-4.9711,-4.8714,-4.8054,-4.7683,-4.7683,-4.7683,-4.7683,-4.7683,-4.7683,-4.7683,-4.7683,-4.7701,-4.7683,-4.7683,-4.7683,-4.7683,-4.7683,-4.7478,-4.7088,-4.7088,-4.6849,-4.6409,-4.6459,-4.6428,-4.6237,-4.5848,-4.5577,-4.5401,-4.456,-4.3901,-4.3479,-4.3479,-4.3479,-4.3478,-4.3111,-4.2323,-4.115,0.0,0.0,0.0,0.0,0.0,0.0,0.0,0.0,0.0,0.0,0.0,-3.6242,-3.5737,-3.5449,-3.5421,-3.5347,-3.5283,-3.5278,-3.5019,-3.4652,-3.4214,-3.4415,-3.4723,-3.4996,-3.5047,-3.5177,-3.5549,-3.5616,-3.5616,-3.5616,-3.5616,-3.5616,-3.5616,-3.5616,-3.5616,-3.5633,-3.5938,-3.6197,-3.6214,-3.7111,-3.7621,-3.7616,-3.7769,-3.7936,-3.8208,-3.7923,-3.7748,-3.8112,-3.8179,-3.8179,-3.8146,-3.7847,-3.7549,-3.7119,-3.6489,-3.5909,-3.5512,-3.5131,-3.4899,-3.4899,-3.4899,-3.4899,-3.4899,-3.4899,-3.4899,-3.4899,-3.4899,-3.4594,-3.3481,-3.3245,-3.298,-5.488,-5.4602,-5.3754,-5.3196,-5.2843,-5.191,-5.1196,-5.0551,0.0,0.0,0.0,-4.889,-4.889,-4.889,-4.889,-4.889,-4.889,-4.889,-4.889,-4.889,-4.889,-4.889,-4.889,-4.889,-4.8556,-4.7924,-4.7924,-4.7571,-4.694,-4.6921,-4.6854,-4.6681,-4.6585,-4.6316,-4.5919,-4.5112,-4.4378,-4.3753,-4.3552,-4.3479,-4.3479,-4.3349,-4.2671,-4.1334,-4.1168,-4.0398,-3.8964,-3.83,-3.786,-3.7694,-3.696,-3.6531,-3.6545,-3.6376,-3.6286,-3.6274,-3.618,-3.6305,-3.6731,-3.6612,-3.6557,-3.6691,-3.6135,-3.5518,-3.4907,-3.5306,-3.5616,-3.5616,-3.5616,-3.56,-3.5616,-3.5616,-3.5616,-3.5616,-3.5616,-3.5616,-3.5616,-3.5616,-3.5616,-3.5616,-3.5752,-3.5819,-3.5921,-3.6983,-3.7737,-3.7739,-3.7961,-3.8236,-3.8202,-3.8008,-3.8112,-3.8725,-3.8642,-3.8768,-3.8785,-3.8328,-3.7996,-3.7557,-3.6688,-3.6009,-3.5744,-3.5313,-3.4949,-3.4899,-3.4899,-3.4899,-3.4899,-3.4899,-3.4899,-3.4899,-3.4899,-3.4732,-3.425,-3.4075,-3.3662,-5.5801,-5.5717,-5.4895,-5.4371,-5.3969,-5.2874,-5.1642,-5.0303,-4.9312,-4.889,-4.889,-4.889,-4.889,-4.889,-4.889,-4.889,-4.889,-4.889,-4.889,0.0,-4.889,-4.889,-4.889,-4.889,-4.8834,-4.8742,-4.8742,-4.8667,-4.8574,-4.8556,-4.8539,-4.8411,-4.7784,-4.6978,-4.6083,-4.5148,-4.4654,-4.4544,-4.3846,-4.3479,-4.3478,-4.2818,-4.2378,-4.2121,-4.1444,-4.0673,-3.9753,-3.9588,-3.9239,-3.856,-3.7753,-3.7624,-3.827,-3.7664,-3.7436,-3.7753,-3.7757,-3.766,-3.7399,-3.7363,-3.7123,-3.6626,-3.6092,-3.57,-3.5509,-3.5554,-3.5616,-3.5616,-3.5616,-3.5616,-3.5616,-3.5616,-3.5616,-3.5616,-3.5616,-3.5616,-3.5616,-3.5616,-3.5616,-3.5616,-3.6231,-3.6569,-3.6552,-3.7273,-3.7749,-3.7704,-3.7698,-3.7701,-3.7494,-3.7344,-3.7566,-3.8053,-3.7798,-3.7466,-3.7549,-3.7384,-3.7119,-3.6406,-3.6241,-3.5827,-3.533,-3.5048,-3.4916,-3.4899,-3.4899,-3.4899,-3.4899,-3.4899,-3.4899,-3.4899,-3.4899,-3.4732,-3.4234,-3.4126,-3.3739,-5.6003,-5.5973,-5.5606,-5.5351,-5.5094,-5.331,-5.176,-5.0448,-4.9364,-4.889,-4.889,-4.889,-4.889,-4.889,-4.889,-4.889,-4.889,-4.889,-4.889,-4.889,-4.889,-4.889,-4.889,-4.889,-4.889,-4.889,-4.889,-4.889,-4.889,-4.889,-4.8891,-4.882,-4.8362,-4.7664,-4.6782,-4.6323,-4.5644,-4.4727,-4.3901,-4.3479,-4.3479,-4.3147,-4.2727,-4.2323,-4.1937,-4.1368,-4.0598,-4.0139,-3.9717,-3.935,-3.8579,-3.8322,-3.867,-3.834,-3.8242,-3.8415,-3.8417,-3.8352,-3.8152,-3.7948,-3.7578,-3.698,-3.6516,-3.6049,-3.5644,-3.5616,-3.5616,-3.5616,-3.5616,-3.5616,-3.5616,-3.5616,-3.5616,-3.5616,-3.5616,-3.5616,-3.5616,-3.5616,-3.5616,-3.5633,-3.5904,-3.6163,-3.6146,-3.6806,-3.7297,-3.7226,-3.7162,-3.6995,-3.6728,-3.6314,-3.6414,-3.7317,-3.7334,-3.7152,-3.7085,-3.7119,-3.6953,-3.6638,-3.6257,-3.5909,-3.5495,-3.523,-3.4932,-3.4899,-3.4899,-3.4899,-3.4899,-3.4899,-3.4899,-3.4899,-3.4899,-3.478,-3.457,-3.4308,-3.379,-5.6003,-5.6003,-5.6003,-5.5967,-5.572,-5.3678,-5.2129,-5.091,-4.9745,-4.9093,-4.8909,-4.889,-4.889,-4.889,-4.889,-4.889,-4.889,-4.889,-4.889,-4.889,-4.889,-4.889,-4.889,-4.889,-4.889,-4.889,-4.889,-4.889,-4.889,-4.889,-4.8874,-4.8822,-4.8715,-4.831,-4.7647,-4.7426,-4.6561,-4.5092,-4.4229,-4.3716,-4.3497,-4.3479,-4.3204,-4.2635,-4.2561,-4.2194,-4.1389,-4.0598,-4.0084,-3.9879,-3.9111,-3.8707,-3.8707,-3.8707,-3.8707,-3.8707,-3.8707,-3.8707,-3.8676,-3.8336,-3.7879,-3.736,-3.698,-3.6457,-3.5854,-3.5739,-3.5694,-3.5622,-3.5616,-3.5616,-3.5616,-3.5616,-3.5616,-3.5616,-3.5616,-3.5616,-3.5616,-3.5616,-3.5616,-3.5616,-3.5616,-3.5633,-3.5718,-3.6146,-3.6485,-3.6489,-3.638,-3.6199,-3.5935,-3.5397,-3.5575,-3.6224,-3.6605,-3.6539,-3.6605,-3.6555,-3.6522,-3.6605,-3.6108,-3.5727,-3.5562,-3.5197,-3.4949,-3.4899,-3.4899,-3.4899,-3.4899,-3.4899,-3.4899,-3.4899,-3.4899,-3.4899,-3.4851,-3.457,-3.4109,-5.6003,-5.6003,-5.6003,-5.5846,-5.5502,-5.4223,-5.2957,-5.1862,-5.0667,-4.9684,-4.8927,-4.889,-4.889,-4.889,-4.889,-4.889,-4.889,-4.889,-4.889,-4.889,-4.889,-4.889,-4.889,-4.889,-4.889,-4.889,-4.889,-4.889,-4.889,-4.889,-4.8891,-4.8891,-4.8822,-4.8713,-4.8547,-4.7829,-4.6944,-4.6077,-4.5215,-4.4355,-4.3551,-4.3479,-4.346,-4.3404,-4.3369,-4.3002,-4.2213,-4.1423,-4.0671,-3.9934,-3.9166,-3.8707,-3.8707,-3.8707,-3.8707,-3.8707,-3.8707,-3.8707,-3.8692,-3.8336,-3.7999,-3.7738,-3.7377,-3.6882,-3.6305,-3.6237,-3.6028,-3.5739,-3.5644,-3.5616,-3.5616,-3.5616,-3.5616,-3.5616,-3.5616,-3.5616,-3.5616,-3.5616,-3.5616,-3.5616,-3.5616,-3.5616,-3.5633,-3.5735,-3.5746,-3.5779,-3.5687,-3.5572,-3.5375,-3.5174,-3.5003,-3.5171,-3.5148,-3.5197,-3.5247,-3.5131,-3.5297,-3.5214,-3.5098,-3.5081,-3.5081,-3.5032,-3.4899,-3.4899,-3.4899,-3.4899,-3.4899,-3.4899,-3.4899,-3.4899,-3.4899,-3.4899,-3.4899,-3.4828,-3.4529,-5.6003,-5.6003,-5.6003,-5.5837,-5.5404,-5.3974,-5.2895,-5.2027,-5.0438,-4.9473,-4.905,-4.8926,-4.889,-4.889,-4.889,-4.889,-4.889,-4.889,-4.889,-4.889,-4.889,-4.889,-4.889,-4.889,-4.889,-4.889,-4.889,-4.889,-4.889,-4.889,-4.889,-4.889,-4.8892,-4.8839,-4.8786,-4.8418,-4.7809,-4.6906,-4.6096,-4.525,-4.4441,-4.3805,-4.3479,-4.3479,-4.3479,-4.3368,-4.2983,-4.2249,-4.1442,-4.0653,-3.9845,-3.9184,-3.8726,-3.8707,-3.8707,-3.8707,-3.8707,-3.8707,-3.8707,-3.853,-3.8285,-3.7912,-3.7685,-3.7322,-3.6764,-3.6661,-3.656,-3.6371,-3.5915,-3.5616,-3.5622,-3.5616,-3.5616,-3.5616,-3.5616,-3.5622,-3.5616,-3.5616,-3.5616,-3.5616,-3.5616,-3.5616,-3.5616,-3.5616,-3.5594,-3.5549,-3.5503,-3.5412,-3.5337,-3.5222,-3.5128,-3.5018,-3.4947,-3.4899,-3.4899,-3.4899,-3.4899,-3.4899,-3.4899,-3.4899,-3.4899,-3.4899,-3.4899,-3.4899,-3.4899,-3.4899,-3.4899,-3.4899,-3.4899,-3.4899,-3.4899,-3.4899,-3.4899,-3.4899,-3.478,-5.6003,-5.6003,-5.6003,-5.5893,-5.5555,-5.3799,-5.2809,-5.2205,-5.0411,-4.9446,-4.9176,-4.9075,-4.8974,-4.889,-4.889,-4.889,-4.889,-4.889,-4.889,-4.889,-4.889,-4.889,-4.889,-4.889,-4.889,-4.889,-4.889,-4.889,-4.889,-4.889,-4.889,-4.889,-4.889,-4.8874,-4.884,-4.8804,-4.8397,-4.7493,-4.6681,-4.5833,-4.5003,-4.4091,-4.3566,-4.3532,-4.3515,-4.3479,-4.3478,-4.2708,-4.1937,-4.1113,-4.0341,-3.9533,-3.8762,-3.8707,-3.8707,-3.8707,-3.8707,-3.8707,-3.8707,-3.8707,-3.8512,-3.8115,-3.8015,-3.7755,-3.7303,-3.7151,-3.7055,-3.6841,-3.6329,-3.5968,-3.5963,-3.5963,-3.5963,-3.5946,-3.5946,-3.592,-3.5827,-3.5783,-3.5756,-3.5644,-3.5616,-3.5616,-3.5616,-3.56,-3.5577,-3.5571,-3.5571,-3.5526,-3.5406,-3.5291,-3.5198,-3.5081,-3.497,-3.4923,-3.4899,-3.4899,-3.4899,-3.4899,-3.4899,-3.4899,-3.4899,-3.4899,-3.4899,-3.4899,-3.4899,-3.4899,-3.4899,-3.4899,-3.4899,-3.4899,-3.4899,-3.4899,-3.4899,-3.4899,-3.4899,-5.6003,-5.6003,-5.6003,-5.5926,-5.5812,-5.388,-5.3018,-5.2708,-5.0882,-4.9819,-4.9439,-4.936,-4.9214,-4.8943,-4.8907,-4.889,-4.889,-4.889,-4.889,-4.889,-4.889,-4.889,-4.889,-4.889,-4.889,-4.889,-4.889,-4.889,-4.889,-4.889,-4.889,-4.889,-4.889,-4.889,-4.8873,-4.8891,-4.8483,-4.776,-4.6802,-4.5936,-4.5121,-4.4262,-4.3701,-4.3582,-4.3531,-4.3496,-4.3406,-4.2727,-4.1937,-4.1132,-4.0359,-3.957,-3.8817,-3.8707,-3.8707,-3.8707,-3.8707,-3.8707,-3.8707,-3.8707,-3.8624,-3.8494,-3.843,-3.8234,-3.7756,-3.765,-3.7486,-3.6978,-3.6937,-3.6841,-3.6841,-3.6741,-3.6721,-3.6741,-3.6781,-3.6618,-3.6305,-3.6259,-3.6045,-3.5761,-3.5689,-3.5667,-3.5622,-3.5616,-3.5571,-3.5543,-3.5514,-3.5429,-3.5251,-3.5158,-3.5065,-3.4994,-3.4923,-3.4899,-3.4899,-3.4899,-3.4899,-3.4899,-3.4899,-3.4899,-3.4899,-3.4899,-3.4899,-3.4899,-3.4899,-3.4899,-3.4899,-3.4899,-3.4899,-3.4899,-3.4899,-3.4899,-3.4899,-3.4899,-3.4899,-5.6515,-5.5945,-5.5451,-5.5238,-5.5036,-5.3295,-5.2424,-5.2114,-5.0867,-5.0118,-4.9827,-4.9518,-4.9329,-4.9211,-4.8973,-4.889,-4.889,-4.889,-4.889,-4.889,-4.889,-4.889,-4.889,-4.889,-4.889,-4.889,-4.889,-4.889,-4.889,-4.889,-4.889,-4.889,-4.889,-4.889,-4.889,-4.889,-4.8742,-4.8351,-4.7148,-4.6242,-4.5768,-4.4519,-4.3736,-4.3599,-4.3565,-4.3566,-4.3479,-4.3204,-4.247,-4.1167,-4.0836,-4.0065,-3.8891,-3.8707,-3.8707,-3.8707,-3.8707,-3.8707,-3.8707,-3.8707,-3.8673,-3.8624,-3.8525,-3.8446,-3.8251,-3.8119,-3.8002,-3.7827,-3.7739,-3.7739,-3.7613,-3.7264,-3.69,-3.69,-3.69,-3.6898,-3.6739,-3.6678,-3.66,-3.6454,-3.6224,-3.5937,-3.5734,-3.5639,-3.56,-3.5554,-3.5571,-3.5526,-3.5435,-3.5321,-3.5198,-3.5152,-3.5034,-3.4899,-3.4899,-3.4899,-3.4899,-3.4899,-3.4899,-3.4899,-3.4899,-3.4899,-3.4899,-3.4899,-3.4899,-3.4899,-3.4899,-3.4899,-3.4899,-3.4899,-3.4899,-3.4899,-3.4899,-3.4899,-3.4899,-5.639,-5.5606,-5.5026,-5.4619,-5.4213,-5.2821,-5.2106,-5.1827,-5.0961,-5.043,-5.0161,-4.9854,-4.9631,-4.939,-4.9166,-4.8991,-4.889,-4.889,-4.889,-4.889,-4.889,-4.889,-4.889,-4.889,-4.889,-4.889,-4.889,-4.889,-4.889,-4.889,-4.889,-4.889,-4.889,-4.889,-4.889,-4.889,-4.889,-4.8612,-4.7311,-4.6461,-4.6172,-4.4714,-4.3802,-4.3684,-4.3667,-4.3617,-4.3496,-4.3479,-4.2763,-4.137,-4.1113,-4.0361,-3.8927,-3.8707,-3.8707,-3.8707,-3.8707,-3.8707,-3.8707,-3.8707,-3.8707,-3.8707,-3.8624,-3.8559,-3.851,-3.8401,-3.8322,-3.8272,-3.8242,-3.8209,-3.8089,-3.7667,-3.732,-3.732,-3.732,-3.7245,-3.7132,-3.7094,-3.7018,-3.686,-3.6658,-3.635,-3.6114,-3.6049,-3.5985,-3.5871,-3.5844,-3.5783,-3.5594,-3.5475,-3.5314,-3.5245,-3.5088,-3.497,-3.4923,-3.4899,-3.4899,-3.4899,-3.4899,-3.4899,-3.4899,-3.4899,-3.4899,-3.4899,-3.4899,-3.4899,-3.4899,-3.4899,-3.4899,-3.4899,-3.4899,-3.4899,-3.4899,-3.4899,-3.4849,-5.5567,-5.489,-5.4774,-5.4213,-5.3401,-5.248,-5.2144,-5.1915,-5.1211,-5.0678,-5.0412,-5.0371,-4.9997,-4.9542,-4.9449,-4.9227,-4.8991,-4.8959,-4.8925,-4.889,-4.889,-4.889,-4.889,-4.889,-4.889,-4.889,-4.889,-4.889,-4.889,-4.889,-4.889,-4.889,-4.889,-4.889,-4.889,-4.889,-4.889,-4.8556,-4.733,-4.6494,-4.6308,-4.4846,-4.3913,-4.3804,-4.3788,-4.3686,-4.3496,-4.3496,-4.2745,-4.1334,-4.1113,-4.0343,-3.8982,-3.8707,-3.8707,-3.8707,-3.8707,-3.8707,-3.8707,-3.8707,-3.8707,-3.8707,-3.8707,-3.8624,-3.851,-3.843,-3.8368,-3.8307,-3.8259,-3.8209,-3.8209,-3.8106,-3.8072,-3.8175,-3.8055,-3.788,-3.7614,-3.7505,-3.7358,-3.7036,-3.69,-3.6882,-3.688,-3.6701,-3.6516,-3.6262,-3.6152,-3.5958,-3.5611,-3.5475,-3.5377,-3.5198,-3.5105,-3.5018,-3.4947,-3.4899,-3.4899,-3.4899,-3.4899,-3.4899,-3.4899,-3.4899,-3.4899,-3.4899,-3.4899,-3.4899,-3.4899,-3.4899,-3.4899,-3.4899,-3.4899,-3.4899,-3.4883,-3.4833,-3.47,-5.5528,-5.4755,-5.4136,-5.3401,-5.2539,-5.1679,-5.1312,-5.1273,-5.0995,-5.0847,-5.0705,-5.0519,-5.0278,-5.0076,-4.9866,-4.9556,-4.924,-4.9236,-4.9127,-4.8925,-4.889,-4.889,-4.889,-4.889,-4.889,-4.889,-4.889,-4.889,-4.889,-4.889,-4.889,-4.889,-4.889,-4.889,-4.889,-4.889,-4.889,-4.8723,-4.7311,-4.6461,-4.6244,-4.4763,-4.3899,-4.382,-4.3788,-4.3719,-4.3565,-4.3532,-4.2727,-4.1187,-4.1095,-4.0361,-3.9056,-3.8707,-3.8707,-3.8707,-3.8707,-3.8707,-3.8707,-3.8707,-3.8707,-3.8707,-3.8707,-3.8643,-3.851,-3.8446,-3.835,-3.8289,-3.8242,-3.8209,-3.8209,-3.8209,-3.8209,-3.8209,-3.8192,-3.8158,-3.8003,-3.7967,-3.7774,-3.7414,-3.7321,-3.7208,-3.6939,-3.6741,-3.6557,-3.6385,-3.611,-3.5783,-3.5622,-3.5543,-3.5446,-3.5285,-3.5175,-3.5065,-3.4994,-3.4947,-3.4923,-3.4923,-3.4899,-3.4899,-3.4899,-3.4899,-3.4899,-3.4899,-3.4899,-3.4899,-3.4899,-3.4899,-3.4899,-3.4899,-3.4899,-3.4883,-3.4833,-3.4667,-3.4452,-5.5528,-5.4716,-5.3865,-5.2995,-5.2124,-5.1273,-5.0898,-5.0898,-5.0898,-5.0898,-5.0847,-5.0678,-5.0519,-5.0371,-5.0184,-4.9905,-4.9594,-4.9461,-4.9283,-4.9059,-4.8943,-4.8909,-4.889,-4.889,-4.889,-4.889,-4.889,-4.889,-4.889,-4.889,-4.889,-4.889,-4.889,-4.889,-4.889,-4.889,-4.889,-4.8667,-4.7311,-4.6461,-4.6075,-4.4779,-4.3897,-4.3851,-4.3835,-4.3786,-4.3667,-4.36,-4.2779,-4.1313,-4.0581,-3.9682,-3.8799,-3.8707,-3.8707,-3.8707,-3.8707,-3.8707,-3.8707,-3.8707,-3.8707,-3.8707,-3.8707,-3.8673,-3.8559,-3.8481,-3.8366,-3.8338,-3.8257,-3.8209,-3.8209,-3.8209,-3.8209,-3.8209,-3.8209,-3.8209,-3.8209,-3.8209,-3.8106,-3.7809,-3.7756,-3.7614,-3.7376,-3.7207,-3.6917,-3.6759,-3.6371,-3.5963,-3.5871,-3.5661,-3.5543,-3.5429,-3.5354,-3.5198,-3.5018,-3.497,-3.4947,-3.4923,-3.4899,-3.4899,-3.4899,-3.4899,-3.4899,-3.4899,-3.4899,-3.4899,-3.4899,-3.4899,-3.4899,-3.4899,-3.4866,-3.4684,-3.4535,-3.4203,-3.3905,-5.5509,-5.4658,-5.3846,-5.2937,-5.2028,-5.1235,-5.0898,-5.0898,-5.0898,-5.0898,-5.0898,-5.0855,-5.0782,-5.0567,-5.0527,-5.0306,-4.9993,-4.9613,-4.9401,-4.9255,-4.9044,-4.889,-4.889,-4.889,-4.889,-4.889,-4.889,-4.889,-4.889,-4.889,-4.889,-4.889,-4.889,-4.889,-4.889,-4.889,-4.889,-4.8686,-4.7311,-4.6513,-4.6385,-4.4843,-4.3958,-4.3897,-4.3897,-4.3867,-4.3786,-4.341,-4.2592,-4.1148,-3.9701,-3.8872,-3.8707,-3.8707,-3.8707,-3.8707,-3.8707,-3.8707,-3.8707,-3.8707,-3.8707,-3.8707,-3.8707,-3.8692,-3.8643,-3.8512,-3.8415,-3.8385,-3.8272,-3.8209,-3.8209,-3.8209,-3.8209,-3.8209,-3.8209,-3.8209,-3.8209,-3.8209,-3.8158,-3.8175,-3.8192,-3.8175,-3.8072,-3.8021,-3.7757,-3.745,-3.7036,-3.662,-3.6371,-3.6071,-3.5734,-3.5661,-3.5689,-3.5487,-3.5339,-3.5111,-3.5088,-3.5065,-3.5018,-3.4994,-3.4923,-3.4899,-3.4899,-3.4899,-3.4899,-3.4899,-3.4899,-3.4899,-3.4899,-3.4899,-3.475,-3.4468,-3.4104,-3.3723,-3.3176,-5.5161,-5.3846,-5.3594,-5.2627,-5.1331,-5.0975,-5.0898,-5.0898,-5.0898,-5.0898,-5.0917,-5.0898,-5.1222,-5.1636,-5.1033,-5.0815,-5.0708,-5.0106,-4.9525,-4.9197,-4.8995,-4.889,-4.889,-4.889,-4.889,-4.889,-4.889,-4.889,-4.889,-4.889,-4.889,-4.889,-4.889,-4.889,-4.889,-4.889,-4.889,-4.8686,-4.7293,-4.6494,-4.6215,-4.4859,-4.4026,-4.3992,-4.3974,-4.3945,-4.3719,-4.2537,-4.1671,-4.1093,-3.957,-3.8707,-3.8707,-3.8707,-3.8707,-3.8707,-3.8707,-3.8707,-3.8707,-3.8707,-3.8707,-3.8707,-3.8707,-3.8658,-3.8559,-3.851,-3.8462,-3.8399,-3.8322,-3.8274,-3.8276,-3.8224,-3.8209,-3.8209,-3.8209,-3.8209,-3.8209,-3.8209,-3.8209,-3.8209,-3.8209,-3.8209,-3.8158,-3.795,-3.7703,-3.7541,-3.7227,-3.69,-3.6721,-3.658,-3.6308,-3.6249,-3.6207,-3.5946,-3.57,-3.5418,-3.5251,-3.5245,-3.5198,-3.5135,-3.5018,-3.4899,-3.4899,-3.4899,-3.4899,-3.4899,-3.4899,-3.4899,-3.4899,-3.4833,-3.4435,-3.4038,-3.3541,-3.311,-3.2376,-5.4909,-5.3981,-5.3246,-5.2376,-5.1447,-5.1053,-5.0898,-5.0898,-5.0898,-5.0898,-5.0975,-5.1312,-5.1718,-5.2086,-5.1675,-5.1508,-5.1502,-5.0585,-4.9968,-4.9679,-4.9446,-4.9185,-4.8974,-4.889,-4.889,-4.889,-4.889,-4.889,-4.889,-4.889,-4.889,-4.889,-4.889,-4.889,-4.889,-4.889,-4.8704,-4.824,-4.7125,-4.6364,-4.59,-4.4711,-4.4135,-4.4005,-4.3989,-4.3958,-4.3645,-4.2134,-4.0914,-4.015,-3.9218,-3.8707,-3.8707,-3.8707,-3.8707,-3.8707,-3.8707,-3.8707,-3.8707,-3.8707,-3.8707,-3.8707,-3.8707,-3.8658,-3.8609,-3.8559,-3.846,-3.8465,-3.8385,-3.8354,-3.8338,-3.8272,-3.8224,-3.8209,-3.8209,-3.8209,-3.8209,-3.8209,-3.8209,-3.8209,-3.8209,-3.8209,-3.8209,-3.795,-3.7845,-3.7739,-3.7468,-3.7265,-3.7151,-3.7036,-3.6919,-3.6823,-3.6684,-3.644,-3.6232,-3.5972,-3.5744,-3.5672,-3.5487,-3.5396,-3.5188,-3.5024,-3.492,-3.492,-3.493,-3.4857,-3.4781,-3.4714,-3.4651,-3.4452,-3.4038,-3.3458,-3.2895,-3.2464,-3.1714,-5.4755,-5.4523,-5.2879,-5.2152,-5.1892,-5.1235,-5.0898,-5.0917,-5.1072,-5.1111,-5.1293,-5.1989,-5.2492,-5.2442,-5.2298,-5.2161,-5.2113,-5.0922,-5.0404,-5.0114,-4.9898,-4.9579,-4.9155,-4.9025,-4.901,-4.8976,-4.8925,-4.889,-4.889,-4.889,-4.889,-4.889,-4.889,-4.889,-4.889,-4.889,-4.8463,-4.7776,-4.6977,-4.6122,-4.5435,-4.4525,-4.4042,-4.4005,-4.4005,-4.3849,-4.3315,-4.2092,-4.0646,-3.9046,-3.8805,-3.8707,-3.8707,-3.8707,-3.8707,-3.8707,-3.8707,-3.8707,-3.8707,-3.8707,-3.8707,-3.8707,-3.8707,-3.8707,-3.8673,-3.859,-3.8541,-3.8544,-3.8465,-3.8417,-3.8368,-3.8322,-3.8257,-3.8209,-3.8209,-3.8209,-3.8209,-3.8209,-3.8209,-3.8209,-3.8209,-3.8209,-3.8209,-3.8209,-3.8192,-3.8003,-3.7774,-3.7667,-3.7577,-3.7486,-3.7357,-3.7264,-3.7094,-3.6921,-3.6744,-3.6563,-3.6357,-3.6186,-3.5924,-3.5744,-3.5492,-3.5293,-3.5065,-3.4945,-3.4781,-3.4608,-3.4399,-3.4353,-3.4257,-3.3839,-3.3276,-3.2646,-3.2045,-3.1697,-3.1135,-5.4407,-5.3672,-5.2627,-5.1796,-5.1215,-5.0995,-5.0917,-5.0975,-5.1641,-5.1931,-5.2124,-5.284,-5.3556,-5.4097,-5.2898,-5.2436,-5.2589,-5.124,-5.0287,-5.0004,-4.9949,-4.9851,-4.9603,-4.945,-4.9302,-4.9239,-4.901,-4.8926,-4.8925,-4.8976,-4.889,-4.8925,-4.8959,-4.889,-4.8926,-4.8815,-4.85,-4.7701,-4.6884,-4.603,-4.5212,-4.4451,-4.4005,-4.4005,-4.4005,-4.3655,-4.2959,-4.1992,-4.0932,-3.9936,-3.913,-3.8689,-3.8707,-3.8707,-3.8707,-3.8707,-3.8707,-3.8707,-3.8707,-3.8707,-3.8707,-3.8707,-3.8707,-3.8707,-3.8707,-3.8673,-3.8658,-3.8643,-3.8562,-3.8449,-3.837,-3.8274,-3.8242,-3.8225,-3.8209,-3.8209,-3.8209,-3.8209,-3.8209,-3.8209,-3.8209,-3.8209,-3.8209,-3.8209,-3.8192,-3.8192,-3.8123,-3.8036,-3.795,-3.7863,-3.7775,-3.7649,-3.7523,-3.7323,-3.6963,-3.6776,-3.6562,-3.6364,-3.6173,-3.6025,-3.5767,-3.5409,-3.5113,-3.4834,-3.4577,-3.4353,-3.4147,-3.3601,-3.3439,-3.2968,-3.2591,-3.2116,-3.1656,-3.1182,-3.0853,-5.3691,-5.2821,-5.195,-5.1331,-5.0995,-5.1312,-5.1505,-5.1679,-5.2434,-5.2829,-5.2995,-5.373,-5.4368,-5.4677,-5.3478,-5.3014,-5.2798,-5.147,-5.0558,-5.0399,-5.0385,-5.0353,-5.0264,-5.0006,-4.979,-4.9612,-4.9435,-4.9327,-4.9327,-4.9312,-4.9358,-4.9296,-4.9188,-4.9141,-4.8982,-4.8623,-4.7887,-4.7107,-4.6345,-4.5528,-4.4711,-4.4265,-4.4005,-4.3989,-4.3974,-4.3701,-4.3314,-4.2066,-4.1246,-4.0502,-3.947,-3.8735,-3.8689,-3.8707,-3.8707,-3.8707,-3.8707,-3.8707,-3.8707,-3.8707,-3.8707,-3.8707,-3.8707,-3.8707,-3.8707,-3.8707,-3.8707,-3.8673,-3.8624,-3.8546,-3.8401,-3.832,-3.8289,-3.8241,-3.8207,-3.8209,-3.8209,-3.8209,-3.8209,-3.8209,-3.8209,-3.8209,-3.8209,-3.8209,-3.8192,-3.8192,-3.8192,-3.8123,-3.8123,-3.8055,-3.8089,-3.8003,-3.7915,-3.7684,-3.7254,-3.6934,-3.6646,-3.6443,-3.6217,-3.612,-3.5983,-3.5555,-3.5128,-3.4764,-3.441,-3.4151,-3.3875,-3.3282,-3.2777,-3.2622,-3.2299,-3.1805,-3.1341,-3.0946,-3.0696,-5.2867,-5.2132,-5.1265,-5.0898,-5.1014,-5.1641,-5.1989,-5.2287,-5.313,-5.3498,-5.3865,-5.46,-5.5026,-5.4793,-5.3904,-5.344,-5.2677,-5.178,-5.0797,-5.0799,-5.0793,-5.0766,-5.0692,-5.0507,-5.0275,-4.9955,-4.9803,-4.9776,-4.9762,-4.9803,-4.9693,-4.9702,-4.9514,-4.9368,-4.9118,-4.8275,-4.7404,-4.6624,-4.5844,-4.4989,-4.4265,-4.4023,-4.4005,-4.3989,-4.3976,-4.3926,-4.35,-4.2424,-4.1374,-4.1274,-3.9789,-3.9014,-3.8777,-3.8689,-3.8707,-3.8707,-3.8707,-3.8707,-3.8707,-3.8707,-3.8707,-3.8707,-3.8707,-3.8707,-3.8707,-3.8707,-3.8707,-3.8673,-3.864,-3.8593,-3.851,-3.8415,-3.8368,-3.8322,-3.8256,-3.8224,-3.8225,-3.8225,-3.8225,-3.8209,-3.8209,-3.8209,-3.8209,-3.8209,-3.8209,-3.8209,-3.8209,-3.8209,-3.8209,-3.8136,-3.81,-3.7865,-3.7637,-3.7549,-3.7173,-3.6893,-3.6631,-3.6577,-3.6326,-3.6094,-3.6021,-3.5608,-3.5114,-3.4602,-3.424,-3.3901,-3.3444,-3.2808,-3.2448,-3.2378,-3.2009,-3.1469,-3.1037,-3.0704,-3.0572,-5.2326,-5.2132,-5.1246,-5.0917,-5.0937,-5.1111,-5.1699,-5.2287,-5.3265,-5.3923,-5.4639,-5.5393,-5.5741,-5.5354,-5.4136,-5.2801,-5.1718,-5.1033,-5.0917,-5.0901,-5.0905,-5.0899,-5.0855,-5.0756,-5.0635,-5.0527,-5.0218,-4.9943,-4.9904,-4.9825,-4.9923,-4.9771,-4.9569,-4.9457,-4.9174,-4.8308,-4.7299,-4.6568,-4.5711,-4.482,-4.428,-4.4079,-4.4079,-4.4094,-4.4097,-4.4048,-4.3729,-4.2669,-4.1776,-4.1577,-4.0176,-3.9373,-3.8994,-3.8803,-3.8704,-3.8707,-3.8707,-3.8707,-3.8707,-3.8707,-3.8707,-3.8707,-3.8707,-3.8707,-3.8707,-3.8707,-3.8707,-3.8673,-3.8609,-3.8525,-3.8491,-3.8446,-3.8399,-3.8385,-3.8352,-3.8322,-3.829,-3.8257,-3.8241,-3.8209,-3.8209,-3.8209,-3.8209,-3.8209,-3.8209,-3.8209,-3.8209,-3.8209,-3.8209,-3.8028,-3.7828,-3.752,-3.7142,-3.7089,-3.6998,-3.6795,-3.6572,-3.6663,-3.6451,-3.5971,-3.5812,-3.5527,-3.5066,-3.4187,-3.3647,-3.3294,-3.2802,-3.2361,-3.2089,-3.1985,-3.154,-3.114,-3.0959,-3.0797,-3.0593,-5.2616,-5.221,-5.2202,-5.224,-5.2318,-5.2743,-5.313,-5.3614,-5.4426,-5.5026,-5.5432,-5.5818,-5.5741,-5.5142,-5.4116,-5.255,-5.1285,-5.0898,-5.0898,-5.0909,-5.0901,-5.0913,-5.0905,-5.085,-5.0869,-5.0782,-5.0518,-5.032,-5.0309,-5.0298,-5.0218,-5.0209,-4.9968,-4.9817,-4.9446,-4.8287,-4.7402,-4.6692,-4.5702,-4.4857,-4.4458,-4.4402,-4.4402,-4.4402,-4.4402,-4.4416,-4.4218,-4.3433,-4.2504,-4.1785,-4.0694,-3.973,-3.9171,-3.8848,-3.8707,-3.8707,-3.8707,-3.8707,-3.8707,-3.8707,-3.8707,-3.8707,-3.8707,-3.8707,-3.8707,-3.8707,-3.8707,-3.8692,-3.8673,-3.8609,-3.8609,-3.8512,-3.8446,-3.8399,-3.8385,-3.832,-3.8256,-3.8239,-3.8224,-3.8225,-3.8209,-3.8209,-3.8209,-3.8209,-3.8209,-3.8209,-3.8209,-3.8209,-3.8209,-3.7846,-3.7502,-3.6834,-3.6363,-3.6001,-3.6071,-3.6083,-3.6184,-3.6385,-3.6227,-3.5784,-3.5268,-3.4806,-3.4121,-3.3265,-3.288,-3.2949,-3.2686,-3.2405,-3.2015,-3.1673,-3.1612,-3.1477,-3.1151,-3.0918,-3.0757,-5.3091,-5.2519,-5.3207,-5.3498,-5.3614,-5.4213,-5.4581,-5.4909,-5.5393,-5.576,-5.5984,-5.5799,-5.5374,-5.4658,-5.3633,-5.2376,-5.0956,-5.0898,-5.0898,-5.0898,-5.0898,-5.0898,-5.0898,-5.0898,-5.089,-5.0893,-5.0816,-5.0793,-5.0654,-5.0616,-5.0664,-5.0525,-5.0347,-5.0061,-4.9558,-4.8137,-4.7473,-4.6588,-4.566,-4.4845,-4.4788,-4.4788,-4.4788,-4.4788,-4.4788,-4.4782,-4.4663,-4.3634,-4.2817,-4.1939,-4.0922,-3.985,-3.9161,-3.8851,-3.875,-3.8738,-3.8704,-3.8707,-3.8707,-3.8707,-3.8707,-3.8707,-3.8707,-3.8707,-3.8707,-3.8707,-3.8707,-3.8707,-3.8673,-3.8673,-3.8658,-3.8609,-3.8528,-3.8481,-3.8419,-3.8338,-3.8305,-3.8272,-3.8274,-3.8241,-3.8225,-3.8209,-3.8209,-3.8209,-3.8209,-3.8209,-3.8209,-3.8209,-3.8118,-3.7484,-3.6977,-3.6146,-3.5494,-3.4914,-3.4842,-3.5095,-3.5358,-3.576,-3.5475,-3.5015,-3.4445,-3.391,-3.3323,-3.2982,-3.3094,-3.3134,-3.2817,-3.2473,-3.2144,-3.1948,-3.1966,-3.1766,-3.1389,-3.1196,-3.1095,-5.344,-5.3343,-5.3486,-5.3498,-5.3575,-5.3768,-5.4175,-5.4832,-5.5006,-5.5374,-5.5857,-5.5296,-5.4909,-5.431,-5.2975,-5.1815,-5.1149,-5.0898,-5.0898,-5.0898,-5.0898,-5.0898,-5.0898,-5.0898,-5.0898,-5.0917,-5.0882,-5.0861,-5.0793,-5.073,-5.0683,-5.0624,-5.0363,-4.9901,-4.9274,-4.8088,-4.6942,-4.6184,-4.5305,-4.4825,-4.4856,-4.4868,-4.4849,-4.4837,-4.4849,-4.4861,-4.4706,-4.3662,-4.2606,-4.2177,-4.0614,-3.9652,-3.933,-3.9106,-3.8925,-3.8807,-3.8735,-3.8707,-3.8707,-3.8707,-3.8707,-3.8707,-3.8707,-3.8707,-3.8707,-3.8707,-3.8707,-3.8707,-3.8652,-3.8597,-3.8542,-3.8563,-3.8603,-3.8535,-3.8397,-3.8423,-3.8446,-3.8336,-3.8322,-3.8274,-3.8241,-3.8225,-3.8209,-3.8209,-3.8209,-3.8209,-3.8209,-3.8172,-3.781,-3.7049,-3.6143,-3.524,-3.4787,-3.4244,-3.4117,-3.4298,-3.4534,-3.5059,-3.4757,-3.4346,-3.4026,-3.3638,-3.3488,-3.3273,-3.3342,-3.3171,-3.2779,-3.2473,-3.2266,-3.2179,-3.2109,-3.1875,-3.1542,-3.1428,-3.1406,-5.4683,-5.4291,-5.4716,-5.4929,-5.4929,-5.4909,-5.5122,-5.5412,-5.547,-5.5412,-5.5277,-5.4987,-5.4291,-5.3265,-5.195,-5.1285,-5.0956,-5.0898,-5.0898,-5.0898,-5.0898,-5.0898,-5.0898,-5.0898,-5.0898,-5.0909,-5.0893,-5.0888,-5.0857,-5.0794,-5.073,-5.0654,-5.0488,-5.0091,-4.9109,-4.8231,-4.7376,-4.6553,-4.5769,-4.5272,-4.5262,-4.5243,-4.5243,-4.5243,-4.5232,-4.5232,-4.4916,-4.4172,-4.3108,-4.251,-4.1133,-4.0193,-3.9741,-3.9421,-3.9294,-3.9221,-3.9195,-3.9041,-3.878,-3.8719,-3.8719,-3.8707,-3.8707,-3.8707,-3.8707,-3.867,-3.867,-3.8707,-3.8248,-3.8046,-3.7915,-3.7588,-3.7668,-3.7747,-3.7946,-3.8193,-3.8256,-3.8394,-3.8368,-3.8322,-3.8274,-3.8241,-3.8225,-3.8209,-3.8209,-3.8191,-3.8009,-3.7792,-3.7105,-3.6109,-3.515,-3.4135,-3.3864,-3.3647,-3.3683,-3.3791,-3.3791,-3.4117,-3.4117,-3.3798,-3.3795,-3.3577,-3.3418,-3.3286,-3.3209,-3.2987,-3.2707,-3.2557,-3.2421,-3.2335,-3.2266,-3.202,-3.1784,-3.1747,-3.1673,-5.5722,-5.5197,-5.5741,-5.6003,-5.6003,-5.6003,-5.5973,-5.5965,-5.5722,-5.5335,-5.4793,-5.431,-5.3227,-5.2066,-5.1265,-5.0956,-5.0917,-5.0898,-5.0898,-5.0898,-5.0898,-5.0898,-5.0898,-5.0898,-5.0898,-5.0898,-5.0901,-5.0916,-5.0891,-5.0838,-5.0785,-5.0673,-5.0327,-4.9817,-4.9038,-4.8106,-4.7223,-4.6397,-4.5829,-4.5569,-4.5559,-4.5568,-4.5568,-4.5577,-4.5594,-4.5594,-4.5451,-4.4333,-4.3312,-4.2709,-4.1357,-4.0295,-3.9815,-3.9652,-3.9571,-3.9519,-3.9482,-3.9338,-3.9101,-3.8979,-3.891,-3.8881,-3.8807,-3.8837,-3.877,-3.8655,-3.8395,-3.8285,-3.7588,-3.729,-3.7107,-3.6666,-3.6784,-3.6978,-3.7109,-3.7467,-3.7768,-3.7862,-3.7974,-3.7965,-3.7992,-3.8274,-3.8241,-3.8225,-3.8191,-3.8172,-3.7883,-3.743,-3.6469,-3.5313,-3.4588,-3.3686,-3.3538,-3.3447,-3.3465,-3.3465,-3.3411,-3.3393,-3.3393,-3.3411,-3.352,-3.3505,-3.34,-3.3256,-3.3162,-3.3135,-3.3011,-3.2802,-3.2571,-3.2489,-3.2387,-3.2267,-3.2126,-3.2073,-3.2002,-5.611,-5.6012,-5.601,-5.6012,-5.6003,-5.6003,-5.6003,-5.5838,-5.52,-5.4851,-5.4349,-5.3169,-5.197,-5.1207,-5.1014,-5.0898,-5.0898,-5.0898,-5.0898,-5.0898,-5.0898,-5.0898,-5.0898,-5.0898,-5.0898,-5.0898,-5.0909,-5.0913,-5.0908,-5.0888,-5.0801,-5.0653,-5.0046,-4.9143,-4.8239,-4.7375,-4.6644,-4.6009,-4.5652,-4.5614,-4.5594,-4.5594,-4.5594,-4.5594,-4.5594,-4.5575,-4.549,-4.3932,-4.2871,-4.2556,-4.1102,-4.025,-3.9951,-3.9882,-3.9848,-3.9802,-3.9799,-3.9675,-3.9508,-3.9376,-3.9395,-3.9344,-3.9232,-3.9073,-3.9041,-3.8114,-3.7735,-3.7687,-3.7077,-3.6541,-3.6425,-3.6317,-3.6136,-3.6357,-3.6486,-3.6673,-3.6982,-3.7244,-3.736,-3.7478,-3.758,-3.7681,-3.7709,-3.7533,-3.7756,-3.7738,-3.6868,-3.6379,-3.5657,-3.4679,-3.4244,-3.3683,-3.3484,-3.3393,-3.3393,-3.3393,-3.3393,-3.3393,-3.3393,-3.3393,-3.3411,-3.3378,-3.3364,-3.3349,-3.3286,-3.3301,-3.3271,-3.2993,-3.2736,-3.2623,-3.2506,-3.2456,-3.2439,-3.2387,-3.2388,-5.6194,-5.6149,-5.607,-5.6037,-5.6003,-5.6003,-5.5722,-5.5258,-5.4929,-5.4136,-5.3149,-5.197,-5.1235,-5.0956,-5.0898,-5.0898,-5.0898,-5.0898,-5.0898,-5.0898,-5.0898,-5.0898,-5.0898,-5.0898,-5.0898,-5.0898,-5.0898,-5.0898,-5.0901,-5.0835,-5.0444,-5.0066,-4.9541,-4.8591,-4.7621,-4.6661,-4.6018,-4.5768,-4.5594,-4.5594,-4.5594,-4.5594,-4.5594,-4.5594,-4.5594,-4.5267,-4.4731,-4.3621,-4.2799,-4.1977,-4.0861,-4.0385,-4.0175,-4.0175,-4.0177,-4.0158,-4.0139,-4.009,-3.9908,-3.9709,-3.9495,-3.9502,-3.9401,-3.9313,-3.9188,-3.8398,-3.8018,-3.759,-3.6663,-3.5925,-3.5895,-3.5535,-3.5261,-3.5665,-3.591,-3.5977,-3.6168,-3.6431,-3.6582,-3.6665,-3.669,-3.6736,-3.6734,-3.671,-3.7025,-3.7212,-3.6234,-3.5313,-3.4697,-3.4226,-3.3828,-3.3628,-3.3447,-3.3393,-3.3393,-3.3393,-3.3393,-3.3393,-3.3393,-3.3393,-3.3393,-3.3393,-3.3378,-3.3393,-3.3393,-3.3378,-3.3271,-3.3086,-3.293,-3.2834,-3.2787,-3.2722,-3.2724,-3.2658,-3.2591,-5.6211,-5.6175,-5.5874,-5.5865,-5.599,-5.576,-5.5335,-5.4774,-5.4194,-5.3227,-5.1757,-5.0956,-5.0705,-5.0782,-5.0589,-5.0743,-5.0821,-5.0898,-5.0898,-5.0898,-5.0898,-5.0898,-5.0898,-5.0898,-5.0898,-5.0898,-5.0898,-5.0898,-5.0898,-5.0647,-4.9993,-4.9389,-4.8874,-4.7907,-4.7174,-4.611,-4.565,-4.5612,-4.5603,-4.5594,-4.5594,-4.5594,-4.5594,-4.5498,-4.5325,-4.4932,-4.4201,-4.3261,-4.2434,-4.1761,-4.1061,-4.0577,-4.0489,-4.0489,-4.0492,-4.0499,-4.0493,-4.0441,-4.0243,-4.002,-3.9739,-3.9804,-3.93,-3.9239,-3.8978,-3.8216,-3.7166,-3.7115,-3.6077,-3.5371,-3.5353,-3.4929,-3.4726,-3.5075,-3.5045,-3.513,-3.5324,-3.5542,-3.5687,-3.5827,-3.5948,-3.6233,-3.6018,-3.5999,-3.5828,-3.6053,-3.562,-3.4787,-3.419,-3.381,-3.3592,-3.3447,-3.3411,-3.3393,-3.3393,-3.3393,-3.3393,-3.3393,-3.3393,-3.3393,-3.3393,-3.3393,-3.3393,-3.3393,-3.3393,-3.3393,-3.3316,-3.3193,-3.3132,-3.3086,-3.2961,-3.2804,-3.269,-3.259,-3.2608,-5.6175,-5.6102,-5.5241,-5.5315,-5.5788,-5.5158,-5.4735,-5.431,-5.2995,-5.1834,-5.0917,-5.0152,-5.0132,-5.0434,-4.9931,-5.0094,-5.0569,-5.0666,-5.0743,-5.084,-5.0511,-5.0724,-5.0782,-5.0743,-5.0647,-5.084,-5.0879,-5.0879,-5.0782,-5.0221,-4.939,-4.8403,-4.7731,-4.7179,-4.6888,-4.6141,-4.572,-4.5673,-4.564,-4.5612,-4.5603,-4.5603,-4.5603,-4.5248,-4.4863,-4.4451,-4.3605,-4.2739,-4.197,-4.147,-4.09,-4.0535,-4.0496,-4.0496,-4.0492,-4.0499,-4.0491,-4.0466,-4.0379,-4.03,-4.0082,-3.989,-3.9264,-3.8831,-3.8304,-3.7184,-3.6182,-3.6494,-3.5386,-3.4789,-3.4607,-3.4586,-3.4588,-3.4577,-3.4614,-3.4561,-3.4784,-3.4743,-3.4912,-3.4995,-3.5556,-3.5956,-3.5614,-3.5287,-3.4848,-3.473,-3.4679,-3.4298,-3.3737,-3.3538,-3.3411,-3.3393,-3.3393,-3.3393,-3.3393,-3.3393,-3.3393,-3.3393,-3.3393,-3.3393,-3.3393,-3.3393,-3.3393,-3.3393,-3.3393,-3.3393,-3.3393,-3.3378,-3.3286,-3.3196,-3.293,-3.2753,-3.2639,-3.2657,-3.2755,-5.4563,-5.4466,-5.3605,-5.3721,-5.4403,-5.413,-5.3619,-5.2945,-5.1854,-5.0867,-5.0183,-4.9765,-4.9417,-4.9243,-4.9165,-4.932,-4.99,-4.939,-4.9513,-5.0705,-4.9892,-4.9745,-4.9892,-5.0086,-5.0113,-5.026,-5.0473,-5.0453,-5.0055,-4.9591,-4.874,-4.7715,-4.6806,-4.6281,-4.6132,-4.5804,-4.5684,-4.5684,-4.5687,-4.5671,-4.5665,-4.5618,-4.5351,-4.4806,-4.4402,-4.3739,-4.2893,-4.2,-4.1546,-4.1123,-4.0554,-4.0516,-4.0496,-4.0496,-4.0508,-4.0492,-4.0492,-4.0487,-4.0266,-3.9978,-3.9524,-3.9325,-3.905,-3.8452,-3.7956,-3.6986,-3.6388,-3.6018,-3.5344,-3.4993,-3.4991,-3.4991,-3.4964,-3.4908,-3.482,-3.4561,-3.4533,-3.4262,-3.4197,-3.4215,-3.4555,-3.4734,-3.4586,-3.4747,-3.4452,-3.4189,-3.4211,-3.4014,-3.3535,-3.3465,-3.3393,-3.3393,-3.3393,-3.3393,-3.3393,-3.3393,-3.3393,-3.3393,-3.3393,-3.3393,-3.3393,-3.3393,-3.3393,-3.3393,-3.3393,-3.3393,-3.3393,-3.3393,-3.3364,-3.3241,-3.3055,-3.2977,-3.2961,-3.3042,-3.315,-5.3248,-5.3106,-5.2013,-5.1845,-5.2311,-5.225,-5.1869,-5.1277,-5.0712,-5.0171,-4.9668,-4.9107,-4.872,-4.845,-4.8469,-4.8566,-4.9204,-4.9126,-4.874,-4.9958,-4.901,-4.8914,-4.9126,-4.9243,-4.9243,-4.9417,-4.9629,-4.9668,-4.9204,-4.8914,-4.7966,-4.6813,-4.6097,-4.5947,-4.5822,-4.5773,-4.5731,-4.5743,-4.5727,-4.5684,-4.5591,-4.5362,-4.4941,-4.4358,-4.3706,-4.2929,-4.2066,-4.1489,-4.1123,-4.065,-4.0496,-4.0496,-4.0496,-4.0496,-4.0496,-4.0496,-4.0489,-4.0365,-3.9941,-3.9649,-3.9051,-3.8213,-3.8257,-3.79,-3.7281,-3.6408,-3.6093,-3.5768,-3.5469,-3.5316,-3.5193,-3.5182,-3.5141,-3.5062,-3.4908,-3.4634,-3.4442,-3.4198,-3.4129,-3.4067,-3.4023,-3.3979,-3.3928,-3.3996,-3.412,-3.3955,-3.3807,-3.3611,-3.3462,-3.3462,-3.3433,-3.3422,-3.3408,-3.3408,-3.3393,-3.3393,-3.3393,-3.3393,-3.3393,-3.3393,-3.3393,-3.3393,-3.3393,-3.3393,-3.3393,-3.3393,-3.3393,-3.3378,-3.3378,-3.3378,-3.3316,-3.3271,-3.3301,-3.3304,-3.3319,-5.2251,-5.2037,-5.0509,-4.9825,-4.9828,-4.997,-4.9833,-4.9693,-4.9664,-4.961,-4.9455,-4.7838,-4.7567,-4.8147,-4.8217,-4.8237,-4.8314,-4.8914,-4.8914,-4.8566,-4.8121,-4.8237,-4.8275,-4.8353,-4.8353,-4.8372,-4.8566,-4.8798,-4.8314,-4.7657,-4.6728,-4.6116,-4.5904,-4.58,-4.5786,-4.5791,-4.5788,-4.5781,-4.5746,-4.5607,-4.5399,-4.4909,-4.4403,-4.3744,-4.2899,-4.2171,-4.1501,-4.1043,-4.0735,-4.0523,-4.0496,-4.0496,-4.0496,-4.0496,-4.0496,-4.0496,-4.0496,-4.0104,-3.9538,-3.9273,-3.8347,-3.7379,-3.6763,-3.6534,-3.6298,-3.5859,-3.5602,-3.5469,-3.5259,-3.5239,-3.5182,-3.5157,-3.5132,-3.5046,-3.4936,-3.4763,-3.4582,-3.4453,-3.4431,-3.439,-3.4379,-3.4345,-3.4295,-3.4253,-3.4195,-3.4123,-3.4043,-3.3897,-3.3743,-3.3629,-3.3605,-3.3477,-3.3448,-3.3422,-3.3408,-3.3408,-3.3393,-3.3393,-3.3393,-3.3393,-3.3393,-3.3393,-3.3393,-3.3393,-3.3393,-3.3393,-3.3393,-3.3393,-3.3393,-3.3393,-3.3375,-3.3345,-3.3301,-3.3214,-3.3117,-4.9707,-4.9571,-4.8522,-4.838,-4.8893,-4.8954,-4.8871,-4.8778,-4.8764,-4.8505,-4.7893,-4.7428,-4.7022,-4.6635,-4.6568,-4.6987,-4.7154,-4.7289,-4.7753,-4.7618,-4.725,-4.7173,-4.727,-4.7463,-4.7463,-4.7676,-4.7889,-4.7908,-4.7386,-4.66,-4.6194,-4.5865,-4.5807,-4.5807,-4.58,-4.5812,-4.5786,-4.5759,-4.5725,-4.544,-4.5051,-4.4561,-4.3855,-4.2849,-4.2263,-4.1574,-4.1007,-4.0773,-4.0554,-4.0554,-4.0512,-4.0496,-4.0496,-4.0496,-4.0496,-4.0496,-4.0419,-4.0169,-3.9354,-3.8658,-3.7816,-3.6776,-3.6094,-3.571,-3.5545,-3.5444,-3.5198,-3.5198,-3.5198,-3.5218,-3.5209,-3.5193,-3.5149,-3.5098,-3.5019,-3.4898,-3.4744,-3.4675,-3.4626,-3.4615,-3.4605,-3.4605,-3.4572,-3.454,-3.4467,-3.4412,-3.4323,-3.4213,-3.4049,-3.3947,-3.378,-3.3643,-3.3587,-3.3573,-3.3481,-3.3452,-3.3422,-3.3393,-3.3404,-3.3437,-3.3437,-3.3422,-3.3408,-3.3393,-3.3393,-3.3393,-3.3393,-3.3393,-3.3375,-3.3357,-3.3342,-3.3327,-3.3301,-3.3157,-3.3024,-4.8094,-4.7958,-4.7143,-4.7104,-4.7506,-4.7575,-4.7539,-4.7501,-4.7798,-4.7617,-4.7191,-4.6829,-4.6384,-4.6106,-4.6319,-4.6557,-4.6582,-4.6776,-4.6962,-4.6658,-4.6341,-4.6348,-4.6484,-4.6619,-4.6581,-4.6832,-4.6987,-4.6941,-4.6561,-4.6213,-4.5807,-4.5807,-4.5807,-4.5807,-4.58,-4.578,-4.5568,-4.5529,-4.5425,-4.5186,-4.4728,-4.4153,-4.3108,-4.2172,-4.1721,-4.1123,-4.071,-4.0605,-4.0598,-4.0583,-4.0534,-4.0539,-4.0531,-4.0504,-4.0496,-4.0496,-4.0477,-3.9804,-3.8911,-3.83,-3.7363,-3.6438,-3.5705,-3.5503,-3.5377,-3.5327,-3.5254,-3.5246,-3.525,-3.5253,-3.5226,-3.5218,-3.5209,-3.5182,-3.5107,-3.5037,-3.4935,-3.486,-3.4832,-3.4813,-3.4813,-3.4822,-3.4803,-3.4774,-3.4784,-3.4784,-3.4774,-3.4724,-3.4494,-3.425,-3.4049,-3.3842,-3.3802,-3.3788,-3.3671,-3.3615,-3.3643,-3.3629,-3.3559,-3.3577,-3.3524,-3.3437,-3.3408,-3.3393,-3.3393,-3.3393,-3.3393,-3.3375,-3.3357,-3.3248,-3.2904,-3.2618,-3.2709,-3.3023,-3.2889,-4.7201,-4.7143,-4.6346,-4.6099,-4.6016,-4.6111,-4.6119,-4.6075,-4.6841,-4.7094,-4.69,-4.628,-4.5969,-4.6028,-4.6442,-4.6519,-4.6545,-4.6629,-4.6531,-4.5923,-4.5942,-4.5942,-4.5923,-4.5845,-4.6039,-4.5904,-4.5942,-4.6252,-4.5981,-4.5807,-4.5807,-4.5807,-4.5807,-4.5722,-4.551,-4.551,-4.5181,-4.4639,-4.4794,-4.4787,-4.4149,-4.3511,-4.2789,-4.1911,-4.126,-4.0713,-4.0654,-4.0621,-4.0614,-4.06,-4.0591,-4.0588,-4.0546,-4.0512,-4.0496,-4.0496,-4.0496,-3.9592,-3.87,-3.8058,-3.7077,-3.6197,-3.5427,-3.5412,-3.5391,-3.5327,-3.5285,-3.5278,-3.5281,-3.5273,-3.5266,-3.5258,-3.5231,-3.5231,-3.5198,-3.5168,-3.5115,-3.5053,-3.5016,-3.4999,-3.4999,-3.5008,-3.5008,-3.4981,-3.4972,-3.5088,-3.5088,-3.5044,-3.4898,-3.4596,-3.4367,-3.413,-3.4087,-3.4074,-3.3986,-3.3935,-3.3954,-3.3915,-3.3829,-3.3698,-3.3633,-3.352,-3.3393,-3.3393,-3.3393,-3.3393,-3.3393,-3.323,-3.2922,-3.2596,-3.2234,-3.1781,-3.1958,-3.2469,-3.2437,-4.6307,-4.6288,-4.6099,-4.5982,-4.6002,-4.5991,-4.5991,-4.6011,-4.6175,-4.6333,-4.6238,-4.6102,-4.5966,-4.6044,-4.6272,-4.6429,-4.6765,-4.6578,-4.6558,-4.6299,-4.6072,-4.5717,-4.5787,-4.5749,-4.5787,-4.5807,-4.5807,-4.5807,-4.5807,-4.5807,-4.5787,-4.5761,-4.5703,-4.5471,-4.4891,-4.4871,-4.4485,-4.3711,-4.3769,-4.3595,-4.2802,-4.2473,-4.1925,-4.1339,-4.0778,-4.0771,-4.072,-4.07,-4.0694,-4.068,-4.0617,-4.058,-4.0531,-4.0504,-4.0496,-4.0496,-4.0458,-3.9546,-3.8565,-3.7892,-3.7096,-3.6115,-3.5474,-3.5493,-3.5446,-3.5357,-3.5308,-3.5308,-3.532,-3.532,-3.5312,-3.5304,-3.5278,-3.5278,-3.5278,-3.5273,-3.5269,-3.5226,-3.519,-3.5182,-3.5182,-3.5182,-3.5182,-3.5182,-3.5182,-3.5182,-3.5174,-3.5141,-3.51,-3.4898,-3.4733,-3.4529,-3.4453,-3.4409,-3.4307,-3.4237,-3.4262,-3.4221,-3.4111,-3.3947,-3.3753,-3.3629,-3.3534,-3.3419,-3.3393,-3.3274,-3.3034,-3.2687,-3.2379,-3.189,-3.1564,-3.1125,-3.1324,-3.1813,-3.1673,-4.5982,-4.5982,-4.5982,-4.5982,-4.5982,-4.5982,-4.5982,-4.5982,-4.5982,-4.6224,-4.6441,-4.6208,-4.5994,-4.613,-4.6327,-4.6381,-4.6822,-4.6648,-4.617,-4.5971,-4.6041,-4.5602,-4.5557,-4.562,-4.5787,-4.5807,-4.5807,-4.5807,-4.5749,-4.5768,-4.5729,-4.5355,-4.52,-4.4871,-4.4149,-4.3936,-4.3595,-4.2783,-4.2744,-4.226,-4.1641,-4.1661,-4.1545,-4.1048,-4.0797,-4.0797,-4.079,-4.0771,-4.0739,-4.0706,-4.0644,-4.0573,-4.0531,-4.0496,-4.0496,-4.0496,-4.0323,-3.9785,-3.8565,-3.7777,-3.7192,-3.6096,-3.55,-3.55,-3.5493,-3.5412,-3.5412,-3.5405,-3.5364,-3.5376,-3.535,-3.5335,-3.53,-3.5293,-3.5293,-3.5297,-3.5285,-3.5253,-3.5209,-3.5182,-3.5182,-3.5182,-3.5182,-3.5182,-3.5182,-3.5182,-3.5182,-3.5182,-3.5151,-3.5136,-3.5001,-3.4879,-3.4773,-3.4682,-3.4586,-3.4542,-3.4531,-3.4465,-3.4404,-3.4161,-3.3947,-3.3807,-3.3671,-3.3505,-3.3263,-3.2944,-3.2675,-3.2201,-3.1465,-3.0871,-3.0654,-3.0455,-3.0781,-3.1102,-3.0985,-4.5982,-4.5982,-4.5982,-4.5982,-4.5982,-4.5982,-4.5982,-4.5982,-4.6002,-4.6482,-4.6982,-4.6191,-4.5997,-4.6579,-4.6851,-4.6679,-4.6507,-4.631,-4.5774,-4.5737,-4.5609,-4.5461,-4.5389,-4.5357,-4.544,-4.5608,-4.5705,-4.5613,-4.551,-4.5452,-4.5142,-4.4594,-4.4272,-4.402,-4.3382,-4.3034,-4.2725,-4.2086,-4.1777,-4.1493,-4.1396,-4.1454,-4.1242,-4.099,-4.0797,-4.0797,-4.0797,-4.079,-4.0752,-4.072,-4.0672,-4.0603,-4.0546,-4.0531,-4.0523,-4.0523,-4.0496,-3.9565,-3.845,-3.7969,-3.6962,-3.6019,-3.5654,-3.55,-3.55,-3.5493,-3.5493,-3.5479,-3.5439,-3.5405,-3.5398,-3.5391,-3.5357,-3.5323,-3.5335,-3.5312,-3.5273,-3.5253,-3.5218,-3.519,-3.5182,-3.5182,-3.5182,-3.5182,-3.5182,-3.5182,-3.5182,-3.5182,-3.5174,-3.5168,-3.5098,-3.5019,-3.4936,-3.4879,-3.484,-3.482,-3.4791,-3.474,-3.4658,-3.4386,-3.4136,-3.3959,-3.3758,-3.3513,-3.3235,-3.2753,-3.2125,-3.1561,-3.0795,-3.0137,-2.9857,-2.9864,-3.0262,-3.0485,-3.0377,-4.5982,-4.5982,-4.5982,-4.5982,-4.5982,-4.5982,-4.5982,-4.5982,-4.6002,-4.6482,-4.6715,-4.5919,-4.5958,-4.7997,-4.7434,-4.7073,-4.6738,-4.6241,-4.6477,-4.6736,-4.5601,-4.5421,-4.5292,-4.5021,-4.4899,-4.5138,-4.5434,-4.5408,-4.5118,-4.4879,-4.4395,-4.3621,-4.355,-4.3144,-4.2428,-4.2138,-4.1931,-4.1396,-4.1183,-4.1009,-4.0964,-4.0977,-4.0932,-4.0816,-4.0797,-4.0797,-4.0797,-4.0797,-4.079,-4.0771,-4.0694,-4.0639,-4.0603,-4.058,-4.0565,-4.0531,-4.0523,-3.9554,-3.8611,-3.8084,-3.7077,-3.5769,-3.55,-3.55,-3.55,-3.55,-3.55,-3.55,-3.5467,-3.5467,-3.546,-3.546,-3.5427,-3.5412,-3.5398,-3.5335,-3.5308,-3.525,-3.5218,-3.5209,-3.5209,-3.5209,-3.5182,-3.5182,-3.5182,-3.5182,-3.5182,-3.5182,-3.5182,-3.5193,-3.5185,-3.5126,-3.5056,-3.51,-3.5108,-3.5056,-3.5029,-3.4992,-3.486,-3.4496,-3.4244,-3.4093,-3.3864,-3.3326,-3.2901,-3.2422,-3.1759,-3.1034,-3.0594,-2.9988,-2.9393,-2.9259,-2.9752,-3.0104,-3.0177]},{"header":{"parameterUnit":"m.s-1","parameterCategory":1,"la1":31.0,"la2":29.5877,"lo1":-88.7671,"lo2":-86.6584,"dy":0.0162,"dx":0.0185,"nx":115,"ny":88,"refTime":"2023-07-17T12:00:00:Z","depth":0,"parameterNumber":3,"parameterNumberName":"V-component_of_WINDS"},"data":[0.0,0.0,0.0,0.0,0.0,0.0,0.0,0.0,0.0,0.0,0.0,0.0,0.0,0.0,0.0,0.0,0.0,0.0,0.0,0.0,0.0,0.0,0.0,0.0,0.0,0.0,0.0,0.0,0.0,0.0,0.0,0.0,0.0,0.0,0.0,0.0,0.0,0.0,0.0,0.0,0.0,0.0,0.0,0.0,0.0,0.0,0.0,0.0,0.0,0.0,0.0,0.0,0.0,0.0,0.0,0.0,0.0,0.0,0.0,0.0,0.0,0.0,0.0,0.0,0.0,0.0,0.0,0.0,0.0,0.0,0.0,0.0,0.0,0.0,0.0,0.0,0.0,0.0,0.0,0.0,0.0,0.0,0.0,0.0,0.0,0.0,0.0,0.0,0.0,0.0,0.0,0.0,0.0,0.0,0.0,0.0,0.0,0.0,0.0,0.0,0.0,0.0,0.0,0.0,0.0,0.0,0.0,0.0,0.0,0.0,0.0,0.0,0.0,0.0,0.0,0.0,0.0,0.0,0.0,0.0,0.0,0.0,0.0,0.0,0.0,0.0,0.0,0.0,0.0,0.0,0.0,0.0,0.0,0.0,0.0,0.0,0.0,0.0,0.0,0.0,0.0,0.0,0.0,0.0,0.0,0.0,0.0,0.0,0.0,0.0,0.0,0.0,0.0,0.0,0.0,0.0,0.0,0.0,0.0,0.0,0.0,0.0,0.0,0.0,0.0,0.0,0.0,0.0,0.0,0.0,0.0,0.0,0.0,0.0,0.0,0.0,0.0,0.0,0.0,0.0,0.0,0.0,0.0,0.0,0.0,0.0,0.0,0.0,0.0,0.0,0.0,0.0,0.0,0.0,0.0,0.0,0.0,0.0,0.0,0.0,0.0,0.0,0.0,0.0,0.0,0.0,0.0,0.0,0.0,0.0,0.0,0.0,0.0,0.0,0.0,0.0,0.0,0.0,0.0,0.0,0.0,0.0,0.0,0.0,0.0,0.0,0.0,0.0,0.0,0.0,0.0,0.0,0.0,0.0,0.0,0.0,0.0,0.0,0.0,0.0,0.0,0.0,0.0,0.0,0.0,0.0,0.0,0.0,0.0,0.0,0.0,0.0,0.0,0.0,0.0,0.0,0.0,0.0,0.0,0.0,0.0,0.0,0.0,0.0,0.0,0.0,0.0,0.0,0.0,0.0,0.0,0.0,0.0,0.0,0.0,0.0,0.0,0.0,0.0,0.0,0.0,0.0,0.0,0.0,0.0,0.0,0.0,0.0,0.0,0.0,0.0,0.0,0.0,0.0,0.0,0.0,0.0,0.0,0.0,0.0,0.0,0.0,0.0,0.0,0.0,0.0,0.0,0.0,0.0,0.0,0.0,0.0,0.0,0.0,0.0,0.0,0.0,0.0,0.0,0.0,0.0,0.0,0.0,0.0,0.0,0.0,0.0,0.0,0.0,0.0,0.0,0.0,0.0,0.0,0.0,0.0,0.0,0.0,0.0,0.0,0.0,0.0,0.0,0.0,0.0,0.0,0.0,0.0,0.0,0.0,0.0,0.0,0.0,0.0,0.0,0.0,0.0,0.0,0.0,0.0,0.0,0.0,0.0,0.0,0.0,0.0,0.0,0.0,0.0,0.0,0.0,0.0,0.0,0.0,0.0,0.0,0.0,0.0,0.0,0.0,0.0,0.0,0.0,0.0,0.0,0.0,0.0,0.0,0.0,0.0,0.0,0.0,0.0,0.0,0.0,0.0,0.0,0.0,0.0,0.0,0.0,0.0,0.0,0.0,0.0,0.0,0.0,0.0,0.0,0.0,0.0,0.0,0.0,0.0,0.0,0.0,0.0,0.0,0.0,0.0,0.0,0.0,0.0,0.0,0.0,0.0,0.0,0.0,0.0,0.0,0.0,0.0,0.0,0.0,0.0,0.0,0.0,0.0,0.0,0.0,0.0,0.0,0.0,0.0,0.0,0.0,0.0,0.0,0.0,0.0,0.0,0.0,0.0,0.0,0.0,0.0,0.0,0.0,0.0,0.0,0.0,0.0,0.0,0.0,0.0,0.0,0.0,0.0,0.0,0.0,0.0,0.0,0.0,0.0,0.0,0.0,0.0,0.0,0.0,0.0,0.0,0.0,0.0,0.0,0.0,0.0,0.0,0.0,0.0,0.0,0.0,0.0,0.0,0.0,0.0,0.0,0.0,0.0,0.0,0.0,0.0,0.0,0.0,0.0,0.0,0.0,0.0,0.0,0.0,0.0,0.0,0.0,0.0,0.0,0.0,0.0,0.0,0.0,0.0,0.0,0.0,0.0,0.0,0.0,0.0,0.0,0.0,0.0,0.0,0.0,0.0,0.0,0.0,0.0,0.0,0.0,0.0,0.0,0.0,0.0,0.0,0.0,0.0,0.0,0.0,0.0,0.0,0.0,0.0,0.0,0.0,0.0,0.0,0.0,0.0,0.0,0.0,0.0,0.0,0.0,0.0,0.0,0.0,0.0,0.0,0.0,0.0,0.0,0.0,0.0,0.0,0.0,0.0,0.0,0.0,0.0,0.0,0.0,0.0,0.0,0.0,0.0,0.0,0.0,0.0,0.0,0.0,0.0,0.0,0.0,0.0,0.0,0.0,0.0,0.0,0.0,0.0,0.0,0.0,0.0,0.0,0.0,0.0,0.0,0.0,0.0,0.0,0.0,0.0,0.0,0.0,0.0,0.0,0.0,0.0,0.0,0.0,0.0,0.0,0.0,0.0,0.0,0.0,0.0,0.0,0.0,0.0,0.0,0.0,0.0,0.0,0.0,0.0,0.0,0.0,0.0,0.0,0.0,0.0,0.0,0.0,0.0,0.0,0.0,0.0,0.0,0.0,0.0,0.0,0.0,0.0,0.0,0.0,0.0,0.0,0.0,0.0,0.0,0.0,0.0,0.0,0.0,0.0,0.0,0.0,0.0,0.0,0.0,0.0,0.0,0.0,0.0,0.0,0.0,0.0,0.0,0.0,0.0,0.0,0.0,0.0,0.0,0.0,0.0,0.0,0.0,0.0,0.0,0.0,0.0,0.0,0.0,0.0,0.0,0.0,0.0,0.0,0.0,0.0,0.0,0.0,0.0,0.0,0.0,0.0,0.0,0.0,0.0,0.0,0.0,0.0,0.0,0.0,0.0,0.0,0.0,0.0,0.0,0.0,0.0,0.0,0.0,0.0,0.0,0.0,0.0,0.0,0.0,0.0,0.0,0.0,0.0,0.0,0.0,0.0,0.0,0.0,0.0,0.0,0.0,0.0,0.0,0.0,0.0,0.0,0.0,0.0,0.0,0.0,0.0,0.0,0.0,0.0,0.0,0.0,0.0,0.0,0.0,0.0,0.0,0.0,0.0,0.0,0.0,0.0,0.0,0.0,0.0,0.0,0.0,0.0,0.0,0.0,0.0,0.0,0.0,0.0,0.0,0.0,0.0,0.0,0.0,0.0,0.0,0.0,0.0,0.0,0.0,0.0,0.0,0.0,0.0,0.0,0.0,0.0,0.0,0.0,0.0,0.0,0.0,0.0,0.0,0.0,0.0,0.0,0.0,0.0,0.0,0.0,0.0,0.0,0.0,0.0,0.0,0.0,0.0,0.0,0.0,0.0,0.0,0.0,0.0,0.0,0.0,0.0,0.0,0.0,0.0,0.0,0.0,0.0,0.0,0.0,0.0,0.0,0.0,0.0,0.0,0.0,0.0,0.0,0.0,0.0,0.0,0.0,0.0,0.0,0.0,0.0,0.0,0.0,0.0,0.0,0.0,0.0,0.0,0.0,0.0,0.0,0.0,0.0,0.0,0.0,0.0,0.0,0.0,0.0,0.0,0.0,0.0,0.0,0.0,0.0,0.0,0.0,0.0,0.0,0.0,0.0,0.0,0.0,0.0,0.0,0.0,0.0,0.0,0.0,0.0,0.0,0.0,0.0,0.0,0.0,0.0,0.0,0.0,0.0,0.0,0.0,0.0,0.0,0.0,0.0,0.0,0.0,0.0,0.0,0.0,0.0,0.0,0.0,0.0,0.0,0.0,0.0,0.0,0.0,0.0,0.0,0.0,0.0,0.0,0.0,0.0,0.0,0.0,0.0,0.0,0.0,0.0,0.0,0.0,0.0,0.0,0.0,0.0,0.0,0.0,0.0,0.0,0.0,0.0,0.0,0.0,0.0,0.0,0.0,0.0,0.0,0.0,0.0,0.0,0.0,0.0,0.0,0.0,0.0,0.0,0.0,0.0,0.0,0.0,0.0,0.0,0.0,0.0,-0.9525,0.0,0.0,0.0,0.0,0.0,0.0,0.0,0.0,0.0,0.0,0.0,0.0,0.0,0.0,0.0,0.0,0.0,0.0,0.0,0.0,0.0,0.0,0.0,0.0,0.0,0.0,0.0,0.0,0.0,0.0,0.0,0.0,0.0,0.0,0.0,0.0,0.0,0.0,0.0,0.0,0.0,0.0,0.0,0.0,0.0,0.0,0.0,0.0,0.0,0.0,0.0,0.0,0.0,0.0,0.0,0.0,0.0,0.0,0.0,0.0,0.0,0.0,0.0,0.0,0.0,0.0,0.0,0.0,0.0,0.0,0.0,0.0,0.0,0.0,0.0,0.0,0.0,0.0,0.0,0.0,0.0,0.0,0.0,0.0,0.0,0.0,0.0,0.0,0.0,0.0,0.0,0.0,0.0,0.0,0.0,0.0,0.0,0.0,0.0,0.0,0.0,0.0,0.0,0.0,0.0,0.0,0.0,0.0,0.0,0.0,-0.8976,-0.9207,-0.927,-0.9469,-0.9755,0.0,0.0,0.0,0.0,0.0,0.0,0.0,0.0,0.0,0.0,0.0,0.0,0.0,0.0,0.0,0.0,0.0,0.0,0.0,0.0,0.0,0.0,0.0,0.0,0.0,0.0,0.0,0.0,0.0,0.0,0.0,0.0,0.0,0.0,0.0,0.0,0.0,0.0,0.0,0.0,0.0,0.0,0.0,0.0,0.0,0.0,0.0,0.0,0.0,0.0,0.0,0.0,0.0,0.0,0.0,0.0,0.0,0.0,0.0,0.0,0.0,0.0,0.0,0.0,0.0,0.0,0.0,0.0,0.0,0.0,0.0,0.0,0.0,0.0,0.0,0.0,0.0,0.0,0.0,0.0,0.0,0.0,0.0,0.0,0.0,0.0,0.0,0.0,0.0,0.0,0.0,0.0,0.0,0.0,0.0,0.0,0.0,0.0,0.0,0.0,0.0,0.0,0.0,0.0,0.0,0.0,0.0,0.0,0.0,0.0,0.0,0.0,-0.961,-0.9659,-0.9804,0.0,0.0,0.0,0.0,0.0,0.0,0.0,0.0,0.0,0.0,0.0,0.0,0.0,0.0,0.0,0.0,0.0,0.0,0.0,0.0,0.0,0.0,0.0,0.0,0.0,0.0,0.0,0.0,0.0,0.0,0.0,0.0,0.0,0.0,0.0,0.0,0.0,0.0,0.0,0.0,0.0,0.0,0.0,0.0,0.0,0.0,0.0,0.0,0.0,0.0,0.0,0.0,0.0,0.0,0.0,0.0,0.0,0.0,0.0,0.0,0.0,0.0,0.0,0.0,0.0,0.0,0.0,0.0,0.0,0.0,0.0,0.0,0.0,0.0,0.0,0.0,0.0,0.0,0.0,0.0,0.0,0.0,0.0,0.0,0.0,0.0,0.0,0.0,0.0,0.0,0.0,0.0,0.0,0.0,0.0,0.0,0.0,0.0,0.0,0.0,0.0,0.0,0.0,0.0,0.0,0.0,0.0,0.0,0.0,0.0,-0.9582,-0.962,-0.9612,0.0,-0.9657,0.0,0.0,0.0,0.0,0.0,0.0,0.0,0.0,0.0,0.0,0.0,0.0,0.0,0.0,0.0,0.0,0.0,0.0,0.0,0.0,0.0,0.0,0.0,0.0,0.0,0.0,0.0,0.0,0.0,0.0,0.0,0.0,0.0,0.0,0.0,0.0,0.0,0.0,0.0,0.0,0.0,0.0,0.0,0.0,0.0,0.0,0.0,0.0,0.0,0.0,0.0,0.0,0.0,0.0,0.0,0.0,0.0,0.0,0.0,0.0,0.0,0.0,0.0,0.0,0.0,0.0,0.0,0.0,0.0,0.0,0.0,0.0,0.0,0.0,0.0,0.0,0.0,0.0,0.0,0.0,0.0,0.0,0.0,0.0,0.0,0.0,0.0,0.0,0.0,0.0,0.0,0.0,0.0,0.0,0.0,0.0,0.0,0.0,0.0,0.0,0.0,0.0,0.0,0.0,0.0,0.0,0.0,0.0,0.0,0.0,-0.9657,-0.9771,-0.9793,-0.9782,0.0,0.0,0.0,0.0,0.0,0.0,0.0,0.0,0.0,0.0,0.0,0.0,0.0,0.0,0.0,0.0,0.0,0.0,0.0,0.0,0.0,0.0,0.0,0.0,0.0,0.0,0.0,0.0,0.0,0.0,0.0,0.0,0.0,0.0,0.0,0.0,0.0,0.0,0.0,0.0,0.0,0.0,0.0,0.0,0.0,0.0,0.0,0.0,0.0,0.0,0.0,0.0,0.0,0.0,0.0,0.0,0.0,0.0,0.0,0.0,0.0,0.0,0.0,0.0,0.0,0.0,0.0,0.0,0.0,0.0,0.0,0.0,0.0,0.0,0.0,0.0,0.0,0.0,0.0,0.0,0.0,0.0,0.0,0.0,0.0,0.0,0.0,0.0,0.0,0.0,0.0,0.0,0.0,0.0,0.0,0.0,0.0,0.0,0.0,0.0,0.0,0.0,0.0,0.0,0.0,0.0,0.0,0.0,0.0,0.0,-0.9771,-0.9771,-0.9884,-0.9954,-0.9997,-0.9997,0.0,0.0,0.0,0.0,0.0,0.0,0.0,0.0,0.0,0.0,0.0,0.0,0.0,0.0,0.0,0.0,0.0,0.0,0.0,0.0,0.0,0.0,0.0,0.0,0.0,0.0,0.0,0.0,0.0,0.0,0.0,0.0,0.0,0.0,0.0,0.0,0.0,0.0,0.0,0.0,0.0,0.0,0.0,0.0,0.0,0.0,0.0,0.0,0.0,0.0,0.0,0.0,0.0,0.0,0.0,0.0,0.0,0.0,0.0,0.0,0.0,0.0,0.0,0.0,0.0,0.0,0.0,0.0,0.0,0.0,0.0,0.0,0.0,0.0,0.0,0.0,0.0,0.0,0.0,0.0,0.0,0.0,0.0,0.0,0.0,0.0,0.0,0.0,0.0,0.0,0.0,0.0,0.0,0.0,0.0,0.0,0.0,0.0,0.0,0.0,0.0,0.0,0.0,0.0,0.0,0.0,0.0,0.0,-0.9884,-0.9884,-0.9884,-0.9922,-1.011,-1.018,0.0,0.0,0.0,0.0,0.0,0.0,0.0,0.0,0.0,0.0,0.0,0.0,0.0,0.0,0.0,0.0,0.0,0.0,0.0,0.0,0.0,0.0,0.0,0.0,0.0,0.0,0.0,0.0,0.0,0.0,0.0,0.0,0.0,0.0,0.0,0.0,0.0,0.0,0.0,0.0,0.0,0.0,0.0,0.0,0.0,0.0,0.0,0.0,0.0,0.0,0.0,0.0,0.0,0.0,0.0,0.0,0.0,0.0,0.0,0.0,0.0,0.0,0.0,0.0,0.0,0.0,0.0,0.0,0.0,0.0,0.0,0.0,0.0,0.0,0.0,0.0,0.0,0.0,0.0,0.0,0.0,0.0,0.0,0.0,0.0,0.0,0.0,0.0,0.0,0.0,0.0,0.0,0.0,0.0,0.0,0.0,0.0,0.0,0.0,0.0,0.0,0.0,0.0,0.0,0.0,0.0,0.0,0.0,0.0,-0.9884,-0.9884,-0.9954,-1.0067,-1.0143,-1.0331,0.0,0.0,0.0,0.0,0.0,0.0,0.0,0.0,0.0,0.0,0.0,0.0,0.0,0.0,0.0,0.0,0.0,0.0,0.0,0.0,0.0,0.0,0.0,0.0,0.0,0.0,0.0,0.0,0.0,0.0,0.0,0.0,0.0,0.0,0.0,0.0,0.0,0.0,0.0,0.0,0.0,0.0,0.0,0.0,0.0,0.0,0.0,0.0,0.0,0.0,0.0,0.0,0.0,0.0,0.0,0.0,0.0,0.0,0.0,0.0,0.0,0.0,0.0,0.0,0.0,0.0,0.0,0.0,0.0,0.0,0.0,0.0,0.0,0.0,0.0,0.0,0.0,0.0,0.0,0.0,0.0,0.0,0.0,0.0,0.0,0.0,0.0,0.0,0.0,0.0,0.0,0.0,0.0,0.0,0.0,0.0,0.0,0.0,0.0,0.0,0.0,0.0,0.0,0.0,0.0,0.0,0.0,0.0,0.0,-1.0105,0.0,-1.0143,-1.0293,-1.0363,-1.055,0.0,0.0,0.0,0.0,0.0,0.0,0.0,0.0,0.0,0.0,0.0,0.0,0.0,0.0,0.0,0.0,0.0,0.0,0.0,0.0,0.0,0.0,0.0,0.0,0.0,0.0,0.0,0.0,0.0,0.0,0.0,0.0,0.0,0.0,0.0,0.0,0.0,0.0,0.0,0.0,0.0,0.0,0.0,0.0,0.0,0.0,0.0,0.0,0.0,0.0,0.0,0.0,0.0,0.0,0.0,0.0,0.0,0.0,0.0,0.0,0.0,0.0,0.0,0.0,0.0,0.0,0.0,0.0,0.0,0.0,0.0,0.0,0.0,0.0,0.0,0.0,0.0,0.0,0.0,0.0,0.0,0.0,0.0,0.0,0.0,0.0,0.0,0.0,0.0,0.0,0.0,0.0,0.0,0.0,0.0,0.0,0.0,0.0,0.0,0.0,0.0,0.0,0.0,0.0,0.0,0.0,0.0,0.0,-1.0524,-1.0487,-1.0492,-1.0498,-1.0519,-1.0718,-1.0893,0.0,0.0,0.0,0.0,0.0,0.0,0.0,0.0,0.0,0.0,0.0,0.0,0.0,0.0,0.0,0.0,0.0,0.0,0.0,0.0,0.0,0.0,0.0,0.0,0.0,0.0,0.0,0.0,0.0,0.0,0.0,0.0,0.0,0.0,0.0,0.0,0.0,0.0,0.0,0.0,0.0,0.0,0.0,0.0,0.0,0.0,0.0,0.0,0.0,0.0,0.0,0.0,0.0,0.0,0.0,0.0,0.0,0.0,0.0,0.0,0.0,0.0,0.0,0.0,0.0,0.0,0.0,0.0,0.0,0.0,0.0,0.0,0.0,0.0,0.0,0.0,0.0,0.0,0.0,0.0,0.0,0.0,0.0,0.0,0.0,0.0,0.0,0.0,0.0,0.0,0.0,0.0,0.0,0.0,0.0,0.0,0.0,0.0,0.0,0.0,0.0,0.0,0.0,0.0,0.0,0.0,0.0,0.0,0.0,-1.0793,-1.0793,-1.0908,-1.1171,-1.1248,-1.1424,0.0,0.0,0.0,0.0,0.0,0.0,0.0,0.0,0.0,0.0,0.0,0.0,0.0,0.0,0.0,0.0,0.0,0.0,0.0,0.0,0.0,0.0,0.0,0.0,0.0,0.0,0.0,0.0,0.0,0.0,0.0,0.0,0.0,0.0,0.0,0.0,0.0,0.0,0.0,0.0,0.0,0.0,0.0,0.0,0.0,0.0,0.0,0.0,0.0,0.0,0.0,0.0,0.0,0.0,0.0,0.0,0.0,0.0,0.0,0.0,0.0,0.0,0.0,0.0,0.0,0.0,0.0,0.0,0.0,0.0,0.0,0.0,0.0,0.0,0.0,0.0,0.0,0.0,0.0,0.0,0.0,0.0,0.0,0.0,0.0,0.0,0.0,0.0,0.0,0.0,0.0,0.0,0.0,0.0,0.0,0.0,0.0,0.0,0.0,0.0,0.0,0.0,0.0,0.0,0.0,0.0,0.0,0.0,0.0,-1.2026,-1.1821,-1.1894,-1.2215,-1.2117,-1.2117,-1.2298,0.0,0.0,0.0,0.0,0.0,0.0,0.0,0.0,0.0,0.0,0.0,0.0,0.0,0.0,0.0,0.0,0.0,0.0,0.0,0.0,0.0,0.0,0.0,0.0,0.0,0.0,0.0,0.0,0.0,0.0,0.0,0.0,0.0,0.0,0.0,0.0,0.0,0.0,0.0,0.0,0.0,0.0,0.0,0.0,0.0,0.0,0.0,0.0,0.0,0.0,0.0,0.0,0.0,0.0,0.0,0.0,0.0,0.0,0.0,0.0,0.0,0.0,0.0,0.0,0.0,0.0,0.0,0.0,0.0,0.0,0.0,0.0,0.0,0.0,0.0,0.0,0.0,0.0,0.0,0.0,0.0,0.0,0.0,0.0,0.0,0.0,0.0,0.0,0.0,0.0,0.0,0.0,0.0,0.0,0.0,0.0,0.0,0.0,0.0,0.0,0.0,0.0,0.0,0.0,0.0,0.0,0.0,0.0,-1.3943,-1.3516,-1.3396,-1.356,-1.3272,-1.3004,0.0,0.0,0.0,0.0,0.0,0.0,0.0,0.0,0.0,0.0,0.0,0.0,0.0,0.0,0.0,0.0,0.0,0.0,0.0,0.0,0.0,0.0,0.0,0.0,0.0,0.0,0.0,0.0,0.0,0.0,0.0,0.0,0.0,0.0,0.0,0.0,0.0,0.0,0.0,0.0,0.0,0.0,0.0,0.0,0.0,0.0,0.0,0.0,0.0,0.0,0.0,0.0,0.0,0.0,0.0,0.0,0.0,0.0,0.0,0.0,0.0,0.0,0.0,0.0,0.0,0.0,0.0,0.0,0.0,0.0,0.0,0.0,0.0,0.0,0.0,0.0,0.0,0.0,0.0,0.0,0.0,0.0,0.0,0.0,0.0,0.0,0.0,0.0,0.0,0.0,0.0,0.0,0.0,0.0,0.0,0.0,0.0,0.0,0.0,0.0,0.0,0.0,0.0,0.0,0.0,0.0,0.0,0.0,0.0,-1.478,-1.5293,-1.528,-1.4708,-1.4294,-1.3973,0.0,0.0,0.0,0.0,0.0,0.0,0.0,0.0,0.0,0.0,0.0,0.0,0.0,0.0,0.0,0.0,0.0,0.0,0.0,0.0,0.0,0.0,0.0,0.0,0.0,0.0,0.0,0.0,0.0,0.0,0.0,0.0,0.0,0.0,0.0,0.0,0.0,0.0,0.0,0.0,0.0,0.0,0.0,0.0,0.0,0.0,0.0,0.0,0.0,0.0,0.0,0.0,0.0,0.0,0.0,0.0,0.0,0.0,0.0,0.0,0.0,0.0,0.0,0.0,0.0,0.0,0.0,0.0,0.0,0.0,0.0,0.0,0.0,0.0,0.0,0.0,0.0,0.0,0.0,0.0,0.0,0.0,0.0,0.0,0.0,0.0,0.0,0.0,0.0,0.0,0.0,0.0,0.0,0.0,0.0,0.0,0.0,0.0,0.0,0.0,0.0,0.0,0.0,0.0,0.0,0.0,0.0,0.0,-1.5434,-1.6584,-1.7739,-1.781,-1.6849,-1.5783,-1.4903,0.0,0.0,0.0,0.0,0.0,0.0,0.0,0.0,0.0,0.0,0.0,0.0,0.0,0.0,0.0,0.0,0.0,0.0,0.0,0.0,0.0,0.0,0.0,0.0,0.0,0.0,0.0,0.0,0.0,0.0,0.0,0.0,0.0,0.0,0.0,0.0,0.0,0.0,0.0,0.0,0.0,0.0,0.0,0.0,0.0,0.0,0.0,0.0,0.0,0.0,0.0,0.0,0.0,0.0,0.0,0.0,0.0,0.0,0.0,0.0,0.0,0.0,0.0,0.0,0.0,0.0,0.0,0.0,0.0,0.0,0.0,0.0,0.0,0.0,0.0,0.0,0.0,0.0,0.0,0.0,0.0,0.0,0.0,0.0,0.0,0.0,0.0,0.0,0.0,0.0,0.0,0.0,0.0,0.0,0.0,0.0,0.0,0.0,0.0,0.0,0.0,0.0,0.0,0.0,0.0,0.0,0.0,0.0,-1.7545,-1.8797,-2.0169,-2.0416,-1.9398,-1.7505,-1.5986,0.0,0.0,0.0,0.0,0.0,0.0,0.0,0.0,0.0,0.0,0.0,0.0,0.0,0.0,0.0,0.0,0.0,0.0,0.0,0.0,0.0,0.0,0.0,0.0,0.0,0.0,0.0,0.0,0.0,0.0,0.0,0.0,0.0,0.0,0.0,0.0,0.0,0.0,0.0,0.0,0.0,0.0,0.0,0.0,0.0,0.0,0.0,0.0,0.0,0.0,0.0,0.0,0.0,0.0,0.0,0.0,0.0,0.0,0.0,0.0,0.0,0.0,0.0,0.0,0.0,0.0,0.0,0.0,0.0,0.0,0.0,0.0,0.0,0.0,0.0,0.0,0.0,0.0,0.0,0.0,0.0,0.0,0.0,0.0,0.0,0.0,0.0,0.0,0.0,0.0,0.0,0.0,0.0,0.0,0.0,0.0,0.0,0.0,0.0,0.0,0.0,0.0,0.0,0.0,0.0,0.0,0.0,0.0,-1.8072,-1.9661,-2.0488,-2.0783,-2.057,-1.9179,-1.7494,0.0,0.0,0.0,0.0,0.0,0.0,0.0,0.0,0.0,0.0,0.0,0.0,0.0,0.0,0.0,0.0,0.0,0.0,0.0,0.0,0.0,0.0,0.0,0.0,0.0,0.0,0.0,0.0,0.0,0.0,0.0,0.0,0.0,0.0,0.0,0.0,0.0,0.0,0.0,0.0,0.0,0.0,0.0,0.0,0.0,0.0,0.0,0.0,-1.7441,0.0,0.0,0.0,0.0,0.0,0.0,0.0,0.0,0.0,0.0,0.0,0.0,0.0,0.0,0.0,0.0,0.0,0.0,0.0,0.0,0.0,0.0,0.0,0.0,0.0,0.0,0.0,0.0,0.0,0.0,0.0,0.0,0.0,0.0,0.0,0.0,0.0,0.0,0.0,0.0,0.0,0.0,0.0,0.0,0.0,0.0,0.0,0.0,0.0,0.0,0.0,0.0,0.0,0.0,0.0,0.0,0.0,0.0,0.0,-1.9374,-2.1271,-2.2069,-2.2207,-2.1676,-2.1072,-1.9523,0.0,0.0,0.0,0.0,0.0,0.0,0.0,0.0,0.0,0.0,0.0,0.0,0.0,0.0,0.0,0.0,0.0,0.0,0.0,0.0,0.0,0.0,0.0,0.0,0.0,0.0,0.0,0.0,0.0,0.0,0.0,0.0,0.0,0.0,0.0,0.0,0.0,0.0,0.0,0.0,0.0,0.0,0.0,0.0,0.0,0.0,0.0,0.0,0.0,0.0,0.0,0.0,0.0,0.0,0.0,0.0,0.0,0.0,0.0,0.0,0.0,0.0,0.0,0.0,0.0,0.0,0.0,0.0,0.0,0.0,0.0,0.0,0.0,0.0,0.0,0.0,0.0,0.0,0.0,0.0,0.0,0.0,0.0,0.0,0.0,0.0,0.0,0.0,0.0,0.0,0.0,0.0,0.0,0.0,0.0,0.0,0.0,0.0,0.0,0.0,0.0,0.0,0.0,0.0,0.0,0.0,0.0,-1.9033,-2.0821,-2.2917,-2.3772,-2.3746,-2.2778,-2.28,-2.1432,-1.8425,0.0,0.0,0.0,0.0,0.0,0.0,0.0,0.0,0.0,0.0,0.0,0.0,0.0,0.0,0.0,0.0,0.0,0.0,0.0,0.0,0.0,0.0,0.0,0.0,0.0,0.0,0.0,0.0,0.0,0.0,0.0,0.0,0.0,0.0,0.0,0.0,0.0,0.0,-1.6419,-1.702,0.0,0.0,0.0,0.0,0.0,0.0,0.0,0.0,-1.8094,0.0,0.0,0.0,0.0,0.0,0.0,0.0,0.0,0.0,0.0,0.0,0.0,0.0,0.0,0.0,0.0,0.0,0.0,0.0,0.0,0.0,0.0,0.0,0.0,0.0,0.0,0.0,0.0,0.0,0.0,0.0,0.0,0.0,0.0,0.0,0.0,0.0,0.0,0.0,0.0,0.0,0.0,0.0,0.0,0.0,0.0,0.0,0.0,0.0,0.0,0.0,0.0,0.0,0.0,0.0,0.0,-1.8786,-2.0084,-2.1819,-2.3907,-2.4106,-2.4102,-2.3935,-2.3416,-2.2026,-1.969,0.0,0.0,0.0,0.0,0.0,0.0,0.0,0.0,0.0,0.0,0.0,0.0,0.0,0.0,0.0,0.0,0.0,0.0,0.0,0.0,0.0,0.0,0.0,0.0,0.0,0.0,0.0,0.0,0.0,0.0,0.0,0.0,0.0,0.0,0.0,0.0,0.0,0.0,0.0,-1.7819,-1.8152,0.0,0.0,0.0,0.0,0.0,0.0,0.0,0.0,-1.8976,0.0,0.0,0.0,0.0,0.0,0.0,0.0,0.0,0.0,0.0,0.0,0.0,0.0,0.0,0.0,0.0,0.0,0.0,0.0,0.0,0.0,0.0,0.0,0.0,0.0,0.0,0.0,0.0,0.0,0.0,0.0,0.0,0.0,0.0,0.0,0.0,0.0,0.0,0.0,0.0,0.0,0.0,0.0,0.0,0.0,0.0,0.0,0.0,0.0,0.0,0.0,0.0,0.0,0.0,0.0,-1.9084,-2.0791,-2.2476,-2.4115,-2.4211,-2.4211,-2.4192,-2.3363,-2.2008,0.0,0.0,0.0,0.0,0.0,0.0,0.0,0.0,0.0,0.0,0.0,0.0,0.0,0.0,0.0,0.0,0.0,0.0,0.0,0.0,0.0,0.0,0.0,0.0,0.0,0.0,0.0,0.0,0.0,0.0,0.0,0.0,0.0,0.0,0.0,0.0,0.0,0.0,0.0,0.0,-1.8586,-1.8781,-1.9392,0.0,0.0,0.0,0.0,0.0,0.0,-1.9334,-1.9356,0.0,0.0,0.0,0.0,0.0,0.0,0.0,0.0,0.0,0.0,0.0,0.0,0.0,0.0,0.0,0.0,0.0,0.0,0.0,0.0,0.0,0.0,0.0,0.0,0.0,0.0,0.0,0.0,0.0,0.0,0.0,0.0,0.0,0.0,0.0,0.0,0.0,0.0,0.0,0.0,0.0,0.0,0.0,0.0,0.0,0.0,0.0,0.0,0.0,0.0,0.0,0.0,0.0,0.0,0.0,-1.9333,-2.1419,-2.3042,-2.4115,-2.4211,-2.4211,-2.4192,-2.3051,-2.1649,0.0,0.0,0.0,0.0,0.0,0.0,0.0,0.0,0.0,0.0,0.0,0.0,0.0,0.0,0.0,0.0,0.0,0.0,0.0,0.0,0.0,0.0,0.0,0.0,0.0,0.0,0.0,0.0,0.0,0.0,0.0,0.0,0.0,0.0,0.0,0.0,0.0,0.0,0.0,0.0,0.0,-1.9377,-2.0149,-1.9595,0.0,0.0,0.0,0.0,-1.9267,-1.9608,0.0,0.0,0.0,0.0,0.0,0.0,0.0,0.0,0.0,0.0,0.0,0.0,0.0,0.0,0.0,0.0,0.0,0.0,0.0,0.0,0.0,0.0,0.0,0.0,0.0,0.0,0.0,0.0,0.0,0.0,0.0,0.0,0.0,0.0,0.0,0.0,0.0,0.0,0.0,0.0,0.0,0.0,0.0,0.0,0.0,0.0,0.0,0.0,0.0,0.0,0.0,0.0,0.0,0.0,0.0,0.0,-2.007,-2.2051,-2.3459,-2.4174,-2.4211,-2.4211,-2.4192,-2.2654,-2.1085,0.0,0.0,0.0,0.0,0.0,0.0,0.0,0.0,0.0,0.0,0.0,0.0,0.0,0.0,0.0,0.0,0.0,0.0,0.0,0.0,0.0,0.0,0.0,0.0,0.0,0.0,0.0,0.0,0.0,0.0,0.0,0.0,0.0,0.0,0.0,0.0,0.0,0.0,0.0,0.0,0.0,-1.9767,-2.0488,-2.0083,-1.9549,0.0,0.0,-1.9889,-2.0709,-2.0736,0.0,0.0,0.0,0.0,0.0,0.0,0.0,0.0,0.0,0.0,0.0,0.0,0.0,0.0,0.0,0.0,0.0,0.0,0.0,0.0,0.0,0.0,0.0,0.0,0.0,0.0,0.0,0.0,0.0,0.0,0.0,0.0,0.0,0.0,0.0,0.0,0.0,0.0,0.0,0.0,0.0,0.0,0.0,0.0,0.0,0.0,0.0,0.0,0.0,0.0,0.0,0.0,0.0,0.0,0.0,-1.8955,-2.0052,-2.2526,-2.3879,-2.4192,-2.4211,-2.4211,-2.4202,-2.2337,-2.0748,0.0,0.0,0.0,0.0,0.0,0.0,0.0,0.0,0.0,0.0,0.0,0.0,0.0,0.0,0.0,0.0,0.0,0.0,0.0,0.0,0.0,0.0,0.0,0.0,0.0,0.0,0.0,0.0,0.0,0.0,0.0,0.0,0.0,0.0,0.0,0.0,0.0,0.0,0.0,0.0,0.0,0.0,-2.0691,-2.0426,0.0,0.0,0.0,-1.9925,-2.0306,0.0,0.0,0.0,0.0,0.0,0.0,0.0,0.0,0.0,0.0,0.0,0.0,0.0,0.0,0.0,0.0,0.0,0.0,0.0,0.0,0.0,0.0,0.0,0.0,0.0,0.0,0.0,0.0,0.0,0.0,0.0,0.0,0.0,0.0,0.0,0.0,0.0,0.0,0.0,0.0,0.0,0.0,0.0,0.0,0.0,0.0,0.0,0.0,0.0,0.0,0.0,0.0,0.0,0.0,0.0,0.0,0.0,-2.0138,-2.2435,-2.375,-2.4005,-2.3904,-2.3849,-2.3822,-2.2095,0.0,0.0,0.0,0.0,0.0,0.0,0.0,0.0,0.0,0.0,0.0,0.0,0.0,0.0,0.0,0.0,0.0,0.0,0.0,0.0,0.0,0.0,0.0,0.0,0.0,0.0,0.0,-1.4865,0.0,0.0,0.0,0.0,0.0,0.0,0.0,0.0,0.0,0.0,0.0,0.0,0.0,0.0,-2.0282,-2.0837,-2.0681,-2.0336,0.0,0.0,-1.9995,-2.0032,-2.0549,-2.0777,0.0,0.0,0.0,0.0,0.0,0.0,0.0,0.0,0.0,0.0,0.0,0.0,0.0,0.0,0.0,0.0,0.0,0.0,0.0,0.0,0.0,0.0,0.0,0.0,0.0,0.0,0.0,0.0,0.0,0.0,0.0,0.0,0.0,0.0,0.0,0.0,0.0,0.0,0.0,0.0,0.0,0.0,0.0,0.0,0.0,0.0,0.0,0.0,0.0,0.0,0.0,0.0,0.0,0.0,0.0,-2.0682,-2.1635,-2.2575,-2.3478,-2.3178,-2.2986,-2.2977,-2.1944,-2.0684,0.0,0.0,0.0,0.0,0.0,0.0,0.0,0.0,0.0,0.0,0.0,0.0,0.0,0.0,0.0,0.0,0.0,0.0,0.0,0.0,0.0,0.0,0.0,0.0,0.0,0.0,0.0,0.0,0.0,0.0,0.0,0.0,0.0,0.0,0.0,0.0,0.0,0.0,0.0,0.0,0.0,-2.0082,-2.0787,-2.0671,-2.0419,0.0,0.0,-2.0519,-2.0689,-2.0987,-2.1007,-2.0529,0.0,0.0,0.0,0.0,0.0,0.0,0.0,0.0,0.0,0.0,0.0,0.0,0.0,0.0,0.0,0.0,0.0,0.0,0.0,0.0,0.0,0.0,0.0,0.0,0.0,0.0,0.0,0.0,0.0,0.0,0.0,0.0,0.0,0.0,0.0,0.0,0.0,0.0,0.0,0.0,0.0,0.0,0.0,0.0,0.0,0.0,0.0,0.0,0.0,0.0,0.0,0.0,0.0,-1.8632,-2.0357,-2.1778,-2.285,-2.3462,-2.3114,-2.2913,-2.2904,-2.1926,-2.0773,0.0,0.0,0.0,0.0,0.0,0.0,0.0,0.0,0.0,0.0,0.0,0.0,0.0,0.0,0.0,0.0,0.0,0.0,0.0,0.0,0.0,0.0,0.0,0.0,0.0,0.0,0.0,0.0,-1.6738,-1.7132,-1.7363,0.0,0.0,0.0,0.0,0.0,0.0,0.0,0.0,0.0,0.0,-2.0489,-2.1174,-2.0916,0.0,0.0,-2.0411,-2.0367,-2.0564,-2.059,-2.0501,-2.0293,-2.0247,0.0,0.0,0.0,0.0,0.0,0.0,0.0,0.0,0.0,0.0,0.0,0.0,0.0,0.0,0.0,0.0,0.0,0.0,0.0,0.0,0.0,0.0,0.0,0.0,0.0,0.0,0.0,0.0,0.0,0.0,0.0,0.0,0.0,0.0,0.0,0.0,0.0,0.0,0.0,0.0,0.0,0.0,0.0,0.0,0.0,0.0,0.0,0.0,0.0,0.0,0.0,0.0,-1.8183,-1.9996,-2.1174,-2.2227,-2.3123,-2.2748,-2.2547,-2.2529,-2.1844,-2.0879,0.0,0.0,0.0,0.0,0.0,0.0,0.0,0.0,0.0,0.0,0.0,0.0,0.0,0.0,0.0,0.0,0.0,0.0,0.0,0.0,0.0,0.0,0.0,0.0,0.0,0.0,0.0,0.0,-1.7366,-1.7738,-1.7678,0.0,0.0,0.0,0.0,0.0,0.0,0.0,0.0,0.0,0.0,-2.0661,-2.1312,-2.1124,-2.0885,-2.0746,-2.0516,-2.0342,-2.0286,-2.0155,-2.0082,-2.0016,0.0,0.0,0.0,0.0,0.0,0.0,0.0,0.0,0.0,0.0,0.0,0.0,0.0,0.0,0.0,0.0,0.0,0.0,0.0,0.0,0.0,0.0,0.0,0.0,0.0,0.0,0.0,0.0,0.0,0.0,0.0,0.0,0.0,0.0,0.0,0.0,0.0,0.0,0.0,0.0,0.0,0.0,0.0,0.0,0.0,0.0,0.0,0.0,0.0,0.0,0.0,0.0,0.0,-1.6737,-1.9727,-1.9581,-2.0364,-2.2263,-2.1925,-2.1733,-2.1733,-2.1696,-2.1032,-1.9633,0.0,0.0,0.0,0.0,0.0,0.0,0.0,0.0,0.0,0.0,0.0,0.0,0.0,0.0,0.0,0.0,0.0,0.0,0.0,0.0,0.0,0.0,0.0,0.0,0.0,0.0,-1.7324,-1.8071,-1.8478,0.0,0.0,0.0,0.0,0.0,0.0,0.0,0.0,0.0,0.0,-2.0176,-2.0438,-2.1116,-2.1205,-2.1006,-2.0604,-2.0653,-2.0555,-1.9921,-1.9805,-1.9805,0.0,0.0,0.0,0.0,0.0,0.0,0.0,0.0,0.0,0.0,0.0,0.0,0.0,0.0,0.0,0.0,0.0,0.0,0.0,0.0,0.0,0.0,0.0,0.0,0.0,0.0,0.0,0.0,-1.0844,0.0,0.0,0.0,0.0,0.0,0.0,0.0,0.0,0.0,0.0,0.0,-1.3097,-1.2934,0.0,0.0,0.0,0.0,0.0,0.0,0.0,0.0,0.0,0.0,0.0,0.0,-1.7725,-1.9356,-2.0387,-2.1362,-2.2254,-2.1897,-2.1687,-2.1687,-2.1687,-2.0989,-1.9492,0.0,0.0,0.0,0.0,0.0,0.0,0.0,0.0,0.0,0.0,0.0,0.0,0.0,0.0,0.0,0.0,0.0,0.0,0.0,0.0,0.0,0.0,0.0,0.0,0.0,-1.6883,0.0,0.0,0.0,0.0,0.0,0.0,0.0,0.0,0.0,0.0,0.0,-1.991,-1.9909,-2.0286,-2.0629,-2.0742,-2.0715,-2.0727,0.0,0.0,0.0,0.0,0.0,0.0,0.0,0.0,0.0,0.0,0.0,0.0,0.0,0.0,-2.2245,-2.2971,-2.3199,-2.3393,-2.3619,0.0,0.0,0.0,0.0,0.0,0.0,0.0,0.0,0.0,0.0,0.0,0.0,0.0,0.0,0.0,0.0,-1.1956,0.0,0.0,0.0,0.0,0.0,0.0,0.0,0.0,-1.3133,-1.3393,-1.364,-1.3477,-1.3399,0.0,-1.3209,-1.3114,0.0,0.0,0.0,0.0,0.0,0.0,0.0,0.0,-1.7533,-1.9083,-2.0161,-2.1166,-2.2053,-2.1824,-2.1687,-2.1687,-2.1138,-2.0494,-1.9814,-1.836,-1.7342,0.0,0.0,0.0,0.0,0.0,0.0,0.0,0.0,0.0,0.0,0.0,0.0,0.0,0.0,0.0,0.0,0.0,0.0,0.0,0.0,0.0,0.0,0.0,-1.7271,0.0,0.0,0.0,0.0,0.0,0.0,0.0,0.0,0.0,-1.9502,-1.9809,-1.9965,-1.9831,-2.0259,-2.0518,-2.0394,0.0,0.0,0.0,0.0,0.0,0.0,0.0,-1.9786,-2.0139,-2.0401,-2.0822,-2.152,-2.1867,-2.2228,-2.2616,0.0,0.0,-2.3485,-2.3815,-2.4177,-2.4365,-2.4398,-2.4463,-2.4638,-2.4671,-2.4703,0.0,0.0,0.0,0.0,0.0,0.0,0.0,0.0,-1.2539,-1.2677,0.0,-1.2658,0.0,0.0,0.0,0.0,0.0,0.0,0.0,0.0,-1.3906,-1.4147,-1.393,-1.3912,-1.3918,-1.39,-1.3893,-1.403,-1.4212,-1.3709,0.0,0.0,0.0,0.0,0.0,0.0,-1.619,-1.8722,-1.8868,-1.9712,-2.1517,-2.1607,-2.1597,-2.1579,-2.0113,-1.9665,-2.0298,-1.8339,-1.7497,-1.8089,-1.7081,0.0,0.0,0.0,0.0,0.0,0.0,0.0,0.0,0.0,0.0,0.0,0.0,0.0,0.0,0.0,0.0,0.0,0.0,0.0,0.0,-1.7653,0.0,0.0,0.0,0.0,0.0,0.0,0.0,0.0,0.0,0.0,-1.9614,-1.9727,-1.9861,-1.9831,0.0,0.0,0.0,0.0,-2.0382,-2.009,-2.0017,-1.9928,-1.9686,-1.9826,-2.0083,-2.0369,0.0,0.0,-2.2557,-2.3282,-2.3843,-2.4631,-2.4725,-2.4611,-2.322,-2.3711,-2.4341,-2.464,-2.473,-2.4713,-2.4831,-2.4951,-2.4926,-0.8595,0.0,0.0,0.0,0.0,-1.1657,-1.251,-1.3322,-1.3661,-1.3782,-1.3643,-1.362,0.0,0.0,0.0,0.0,0.0,0.0,-1.3326,-1.3688,-1.3912,-1.4075,-1.4189,-1.4189,-1.4183,-1.4177,-1.4206,-1.4405,-1.4829,-1.4676,-1.4482,-1.4153,0.0,0.0,0.0,0.0,-1.6544,-1.7638,-1.8429,-1.9072,-1.9621,-1.9621,-1.9985,-2.0673,-2.0321,-1.9963,-1.9554,-1.9007,-1.8276,-1.7458,-1.7578,0.0,0.0,0.0,0.0,0.0,0.0,0.0,0.0,0.0,0.0,0.0,0.0,0.0,0.0,0.0,0.0,0.0,0.0,0.0,-1.7259,-1.772,-1.8008,0.0,0.0,0.0,0.0,0.0,0.0,0.0,0.0,0.0,-2.0252,-2.069,-2.0768,0.0,0.0,-2.0211,-1.9947,-1.9963,-2.0154,-2.0535,0.0,0.0,0.0,-2.0369,-2.0461,-2.1016,-2.1523,-2.1939,-2.2227,-2.2332,-2.2425,-2.2676,-2.3175,-2.3602,-2.3848,-2.4878,-2.5772,-2.592,-2.5954,-2.5966,-2.6,-2.6021,-2.6021,-0.8601,-0.8729,-0.9898,-1.0915,-1.1775,-1.2711,-1.3385,-1.3919,-1.4236,-1.4261,-1.4106,-1.4106,-1.3732,-1.3107,-1.3008,0.0,0.0,0.0,-1.367,-1.4063,-1.4057,-1.4141,-1.4292,-1.4298,-1.4298,-1.4298,-1.4394,-1.4694,-1.5083,-1.522,-1.5139,-1.489,0.0,0.0,-1.5068,-1.5686,-1.6413,-1.7191,-1.7888,-1.838,-1.8796,-1.8796,-1.9227,-2.0026,-1.9305,-1.8888,-1.8956,-1.8199,-1.7654,-1.7465,-1.733,-1.7145,0.0,0.0,0.0,0.0,0.0,0.0,0.0,0.0,0.0,0.0,0.0,-1.56,0.0,0.0,0.0,0.0,-1.6834,-1.7095,-1.7607,-1.7861,0.0,0.0,0.0,0.0,0.0,0.0,0.0,-2.0188,-2.0407,-2.0574,-2.0783,-2.1187,-2.1161,-2.0266,-2.0238,-2.0211,-1.9949,0.0,-2.0252,-2.0684,-2.0607,-2.0596,-2.085,-2.0845,-2.1001,-2.147,-2.2062,-2.2429,-2.244,-2.2569,-2.2718,-2.2793,-2.3128,-2.3669,-2.4456,-2.5406,-2.6141,-2.6418,-2.6487,-2.6487,-2.6487,-2.6487,-2.6487,-0.8061,-0.8937,-1.1189,-1.2389,-1.284,-1.3645,-1.4153,-1.4389,-1.4377,-1.4364,-1.4358,-1.431,-1.407,-1.3643,-1.3412,0.0,0.0,-1.3842,-1.4069,-1.4298,-1.4298,-1.4298,-1.4298,-1.4298,-1.4298,-1.4298,-1.4544,-1.4838,-1.5083,-1.5315,-1.5409,-1.5391,-1.5431,-1.5376,-1.53,-1.5401,-1.5943,-1.7054,-1.7172,-1.7598,-1.8511,-1.865,-1.894,-1.9436,-1.7518,-1.7097,-1.8255,-1.6557,-1.6214,-1.7666,-1.6549,-1.6531,-1.7808,0.0,0.0,0.0,0.0,0.0,0.0,0.0,0.0,0.0,0.0,0.0,0.0,0.0,0.0,0.0,-1.7935,0.0,-1.8105,-1.8105,0.0,0.0,0.0,-1.9116,-1.9571,-1.9756,-1.9979,-2.0466,0.0,0.0,0.0,0.0,-2.1169,-2.0351,-2.0262,-2.0242,-2.0185,-2.0396,-2.0575,-2.0792,-2.0806,-2.0841,-2.106,-2.1276,-2.1475,-2.1769,-2.2402,-2.2815,-2.2852,-2.3302,-2.3829,-2.3708,-2.3902,-2.4131,-2.4933,-2.5016,-2.5335,-2.6094,-2.6383,-2.6487,-2.6487,-2.6487,-2.6487,-0.8909,-0.9227,-1.167,-1.267,-1.2623,-1.3464,-1.4379,-1.5197,-1.4998,-1.4914,-1.489,-1.4479,-1.4214,-1.4154,-1.4046,-1.41,-1.4154,-1.4154,-1.4238,-1.4298,-1.4298,-1.4298,-1.4298,-1.4298,-1.4298,-1.4298,-1.4346,-1.464,-1.5083,-1.4975,-1.5086,-1.5442,-1.5489,-1.5438,-1.5402,-1.5364,-1.5637,-1.6141,-1.6163,-1.6251,-1.6527,-1.7271,-1.7619,-1.7552,-1.7445,-1.7148,-1.6638,-1.6467,-1.6288,-1.6041,-1.6293,-1.6412,-1.6142,-1.5746,0.0,0.0,0.0,0.0,0.0,0.0,0.0,0.0,0.0,-1.6515,-1.6762,0.0,-1.7688,0.0,-1.8128,-1.8623,-1.8955,-1.8984,0.0,0.0,-1.9167,-1.938,-1.9754,-1.984,-2.012,-2.0726,-2.0796,-2.0864,-2.0964,-2.1138,-2.1136,-2.0796,-2.0828,-2.0888,-2.0896,-2.0921,-2.1106,-2.1462,-2.1551,-2.1551,-2.1599,-2.1645,-2.1748,-2.1787,-2.1959,-2.2073,-2.2063,-2.2203,-2.2354,-2.2354,-2.2354,-2.2644,-2.3423,-2.3545,-2.3815,-2.4564,-2.5616,-2.6487,-2.6487,-2.6487,-2.6487,-0.8794,-0.9329,-1.0777,-1.1904,-1.2921,-1.3944,-1.474,-1.5312,-1.5173,-1.5113,-1.5089,-1.4793,-1.466,-1.466,-1.466,-1.466,-1.466,-1.466,-1.466,-1.4654,-1.4654,-1.466,-1.466,-1.4654,-1.46,-1.4485,-1.4485,-1.4618,-1.4892,-1.479,-1.4968,-1.5499,-1.5356,-1.5421,-1.5551,-1.5591,-1.5671,-1.5825,-1.5825,-1.5825,-1.5825,-1.6346,-1.6643,-1.663,-1.6536,-1.6264,-1.5757,-1.5467,-1.5264,-1.5174,-1.5165,-1.5315,-1.5717,-1.5211,-1.4903,0.0,0.0,0.0,0.0,0.0,0.0,0.0,0.0,0.0,0.0,0.0,-1.8328,0.0,-1.8621,0.0,-1.9294,-1.9277,-1.9392,-1.9551,-1.957,-1.9736,-2.0146,-2.0205,-2.0341,-2.0712,-2.078,-2.078,-2.078,-2.1192,-2.1468,-2.136,-2.1718,-2.1924,-2.1662,-2.1583,-2.1786,-2.2335,-2.2418,-2.2418,-2.2418,-2.2252,-2.2108,-2.2097,-2.1942,-2.1807,-2.1807,-2.1807,-2.1807,-2.1807,-2.1807,-2.2025,-2.2815,-2.3001,-2.3239,-2.3975,-2.4814,-2.5346,-2.5417,-2.5429,-2.5499,-0.8122,-0.9074,-0.9297,-1.0814,-1.3202,-1.4378,-1.4994,-1.5203,-1.5167,-1.5137,-1.5113,-1.5113,-1.5113,-1.5113,-1.5113,-1.5113,-1.5113,-1.5113,-1.5113,-1.5113,-1.5113,-1.5113,-1.5113,-1.5113,-1.4992,-1.4775,-1.4719,-1.4796,-1.4799,-1.4799,-1.5034,-1.546,-1.5249,-1.5373,-1.5742,-1.5757,-1.5825,-1.5825,-1.5825,-1.5825,-1.5825,-1.5792,-1.5876,-1.6079,-1.5356,-1.503,-1.518,-1.4241,-1.4015,-1.472,-1.3808,-1.4052,-1.5715,-1.4606,-1.4381,0.0,-1.5186,0.0,0.0,0.0,0.0,0.0,0.0,0.0,0.0,-1.8719,-1.883,-1.9081,-1.9255,-1.9394,-1.9443,-1.949,-1.959,-1.9941,-2.0,-2.0146,-2.0556,-2.0615,-2.0615,-2.0615,-2.0654,-2.0693,-2.0723,-2.1441,-2.193,-2.2019,-2.2583,-2.2836,-2.2561,-2.2377,-2.2499,-2.3143,-2.3194,-2.308,-2.307,-2.2822,-2.2563,-2.247,-2.218,-2.188,-2.1818,-2.1807,-2.1807,-2.1807,-2.1807,-2.2025,-2.274,-2.2815,-2.3016,-2.3573,-2.3745,-2.3938,-2.4337,-2.448,-2.4516,-0.7784,-0.8053,-0.8822,-1.0264,-1.2081,-1.3152,-1.4447,-1.5728,-1.5523,-1.5306,-1.5113,-1.5113,-1.5113,-1.5113,-1.5113,-1.5113,-1.5113,-1.5113,-1.5113,-1.5113,-1.5113,-1.5113,-1.5113,-1.5113,-1.5083,-1.504,-1.5034,-1.5155,-1.5345,-1.5106,-1.5207,-1.5482,-1.5479,-1.5469,-1.5547,0.0,0.0,0.0,-1.5825,-1.5825,-1.5818,-1.5598,-1.5402,-1.5239,-1.4818,0.0,-1.4355,-1.4112,-1.4085,-1.4239,-1.3796,0.0,0.0,0.0,0.0,0.0,0.0,0.0,0.0,0.0,0.0,0.0,-1.822,-1.8302,-1.8663,-1.8848,-1.9176,-1.9691,-1.9748,-1.9932,-2.0283,-2.0361,-2.04,-2.0468,-2.0488,-2.0517,-2.0605,-2.0615,-2.0615,-2.0615,-2.0879,-2.1054,-2.1103,-2.1687,-2.2188,-2.2341,-2.2666,-2.3053,-2.3485,-2.3185,-2.305,-2.3184,-2.3267,-2.3215,-2.3194,-2.3122,-2.2936,-2.2604,-2.2449,-2.2211,-2.1911,-2.1807,-2.1807,-2.1807,-2.1807,-2.1845,-2.2025,-2.2025,-2.2138,-2.2241,-2.2279,-2.282,-2.4647,-2.504,-2.53,-0.8053,0.0,-0.9055,-1.0095,0.0,-1.2266,-1.3392,-1.4961,-1.5476,-1.5614,-1.5493,-1.5493,-1.5493,-1.5493,-1.5493,-1.5493,-1.5493,-1.5493,-1.5499,-1.5493,-1.5493,-1.5493,-1.5493,-1.5493,-1.5427,-1.53,-1.53,-1.5279,-1.5303,-1.5151,-1.531,-1.5695,-1.5563,-1.5693,-1.6077,-1.6053,-1.5979,-1.5825,-1.5825,-1.5825,-1.5771,-1.5638,-1.5404,-1.5028,0.0,0.0,0.0,0.0,0.0,0.0,0.0,0.0,0.0,0.0,0.0,-1.4781,-1.5032,-1.5552,-1.6423,-1.6718,-1.7257,-1.8267,-1.8964,-1.9307,-1.921,-1.957,-1.9896,-2.0205,-2.0234,-2.0361,-2.0576,-2.0615,-2.0615,-2.0615,-2.0615,-2.0615,-2.0615,-2.0615,-2.0615,-2.0625,-2.0801,-2.0898,-2.0908,-2.1697,-2.2216,-2.2379,-2.2806,-2.3247,-2.3587,-2.3639,-2.3588,-2.3815,-2.3857,-2.3857,-2.3836,-2.365,-2.3463,-2.3194,-2.2801,-2.2439,-2.219,-2.1952,-2.1807,-2.1807,-2.1807,-2.1807,-2.1807,-2.1807,-2.1807,-2.1807,-2.1807,-2.2252,-2.3827,-2.4154,-2.4515,-0.8324,-0.9198,-0.9056,-0.9859,-1.1232,-1.1568,-1.2646,-1.4316,0.0,0.0,0.0,-1.5885,-1.5885,-1.5885,-1.5885,-1.5885,-1.5885,-1.5885,-1.5885,-1.5885,-1.5885,-1.5885,-1.5885,-1.5885,-1.5777,-1.5572,-1.5572,-1.5457,-1.5252,-1.5246,-1.545,-1.5846,-1.57,-1.5948,-1.6543,-1.642,-1.6152,-1.5871,-1.5852,-1.5825,-1.5825,-1.5724,-1.5531,-1.5095,-1.5035,-1.4754,-1.4182,-1.3893,-1.3733,-1.3673,-1.3407,-1.3386,-1.3573,-1.3691,-1.3929,-1.4335,-1.4572,-1.5038,-1.5639,-1.6014,-1.6805,-1.8244,-1.9569,-2.0198,-1.985,-2.0333,-2.0615,-2.0615,-2.0615,-2.0605,-2.0615,-2.0615,-2.0615,-2.0615,-2.0615,-2.0615,-2.0615,-2.0615,-2.0615,-2.0615,-2.0693,-2.0732,-2.0791,-2.1568,-2.2174,-2.2286,-2.2753,-2.3317,-2.341,-2.3577,-2.3815,-2.4198,-2.4146,-2.4166,-2.4177,-2.395,-2.3743,-2.3525,-2.2925,-2.2501,-2.2335,-2.2066,-2.1838,-2.1807,-2.1807,-2.1807,-2.1807,-2.1807,-2.1807,-2.1807,-2.1807,-2.2073,-2.2777,-2.3038,-2.357,-0.7967,-0.8141,-0.7959,-0.8794,-1.0185,-1.1178,-1.3115,-1.5499,-1.5785,-1.5885,-1.5885,-1.5885,-1.5885,-1.5885,-1.5885,-1.5885,-1.5885,-1.5885,-1.5885,0.0,-1.5885,-1.5885,-1.5885,-1.5885,-1.5867,-1.5837,-1.5837,-1.5813,-1.5783,-1.5777,-1.583,-1.5905,-1.5873,-1.6004,-1.6319,-1.6321,-1.6253,-1.6213,-1.5959,-1.5825,-1.5771,-1.5585,-1.5424,-1.5331,-1.5135,-1.4854,-1.4469,-1.4409,-1.4282,-1.4035,-1.3741,-1.3694,-1.3976,-1.3755,-1.409,-1.511,-1.5255,-1.5647,-1.6456,-1.6586,-1.7163,-1.8461,-1.9648,-2.0352,-2.045,-2.0527,-2.0615,-2.0615,-2.0615,-2.0615,-2.0615,-2.0615,-2.0615,-2.0615,-2.0615,-2.0615,-2.0615,-2.0615,-2.0615,-2.0615,-2.0918,-2.1113,-2.1103,-2.1574,-2.196,-2.2154,-2.2317,-2.2541,-2.292,-2.3165,-2.3474,-2.3836,-2.3619,-2.3412,-2.3463,-2.336,-2.3194,-2.2749,-2.2646,-2.2387,-2.2076,-2.1901,-2.1818,-2.1807,-2.1807,-2.1807,-2.1807,-2.1807,-2.1807,-2.1807,-2.1807,-2.2073,-2.2767,-2.2964,-2.346,-0.7933,-0.7867,-0.7815,-0.8211,-0.8973,-1.0907,-1.2965,-1.4883,-1.5624,-1.5885,-1.5885,-1.5885,-1.5885,-1.5885,-1.5885,-1.5885,-1.5885,-1.5885,-1.5885,-1.5885,-1.5885,-1.5885,-1.5885,-1.5885,-1.5885,-1.5885,-1.5885,-1.5885,-1.5885,-1.5885,-1.5945,-1.6099,-1.624,-1.6412,-1.6509,-1.6518,-1.6444,-1.6279,-1.5979,-1.5825,-1.5825,-1.5651,-1.5551,-1.5404,-1.5264,-1.5057,-1.4776,-1.4609,-1.4456,-1.4322,-1.4041,-1.3948,-1.4075,-1.3955,-1.4108,-1.465,-1.4699,-1.4866,-1.5269,-1.5718,-1.6535,-1.7787,-1.8807,-1.9726,-2.0527,-2.0615,-2.0615,-2.0615,-2.0615,-2.0615,-2.0615,-2.0615,-2.0615,-2.0615,-2.0615,-2.0615,-2.0615,-2.0615,-2.0615,-2.0625,-2.0781,-2.0879,-2.0869,-2.125,-2.1533,-2.1655,-2.1726,-2.201,-2.2452,-2.2417,-2.2589,-2.3318,-2.3329,-2.3215,-2.3174,-2.3194,-2.3091,-2.2894,-2.2656,-2.2439,-2.218,-2.2014,-2.1828,-2.1807,-2.1807,-2.1807,-2.1807,-2.1807,-2.1807,-2.1807,-2.1807,-2.1997,-2.2289,-2.2654,-2.3386,-0.7933,-0.7933,-0.7933,-0.8052,-0.8514,-1.086,-1.2696,-1.4119,-1.5387,-1.5892,-1.5891,-1.5885,-1.5885,-1.5885,-1.5885,-1.5885,-1.5885,-1.5885,-1.5885,-1.5885,-1.5885,-1.5885,-1.5885,-1.5885,-1.5885,-1.5885,-1.5885,-1.5885,-1.5885,-1.5885,-1.5998,-1.6217,-1.6477,-1.6634,-1.6581,-1.662,-1.6488,-1.619,-1.5934,-1.5803,-1.5832,-1.5825,-1.5725,-1.5518,-1.5491,-1.5357,-1.5115,-1.4776,-1.4589,-1.4466,-1.4235,-1.4088,-1.4088,-1.4088,-1.4088,-1.4088,-1.4088,-1.4088,-1.4173,-1.4908,-1.5884,-1.6927,-1.7787,-1.8877,-2.0079,-2.0323,-2.0401,-2.0566,-2.0615,-2.0615,-2.0615,-2.0615,-2.0615,-2.0615,-2.0615,-2.0615,-2.0615,-2.0615,-2.0615,-2.0615,-2.0615,-2.0625,-2.0674,-2.0869,-2.1064,-2.1173,-2.1322,-2.159,-2.1913,-2.1745,-2.2015,-2.2525,-2.2873,-2.2832,-2.2873,-2.2842,-2.2822,-2.2873,-2.2563,-2.2325,-2.2221,-2.1994,-2.1838,-2.1807,-2.1807,-2.1807,-2.1807,-2.1807,-2.1807,-2.1807,-2.1807,-2.1807,-2.1883,-2.2289,-2.2953,-0.7933,-0.7933,-0.7933,-0.8596,-0.9724,-1.1217,-1.2592,-1.3896,-1.5309,-1.5904,-1.5897,-1.5885,-1.5885,-1.5885,-1.5885,-1.5885,-1.5885,-1.5885,-1.5885,-1.5885,-1.5885,-1.5885,-1.5885,-1.5885,-1.5885,-1.5885,-1.5885,-1.5885,-1.5885,-1.5885,-1.5945,-1.5945,-1.6217,-1.6358,-1.6362,-1.6352,-1.6221,-1.5922,-1.5901,-1.5871,-1.5798,-1.5825,-1.5764,-1.5744,-1.5785,-1.5651,-1.5364,-1.5077,-1.4803,-1.4486,-1.4255,-1.4088,-1.4088,-1.4088,-1.4088,-1.4088,-1.4088,-1.4088,-1.413,-1.4908,-1.5594,-1.6116,-1.6935,-1.7989,-1.9253,-1.942,-1.9766,-2.0323,-2.0527,-2.0615,-2.0615,-2.0615,-2.0615,-2.0615,-2.0615,-2.0615,-2.0615,-2.0615,-2.0615,-2.0615,-2.0615,-2.0615,-2.0625,-2.0683,-2.0742,-2.0918,-2.1074,-2.1268,-2.1519,-2.166,-2.1714,-2.1924,-2.1963,-2.1994,-2.2025,-2.1952,-2.2056,-2.2004,-2.1932,-2.1921,-2.1921,-2.189,-2.1807,-2.1807,-2.1807,-2.1807,-2.1807,-2.1807,-2.1807,-2.1807,-2.1807,-2.1807,-2.1807,-2.1921,-2.2317,-0.7933,-0.7933,-0.7933,-0.8656,-0.9832,-1.0369,-1.1727,-1.3576,-1.4284,-1.5007,-1.5642,-1.5838,-1.5885,-1.5885,-1.5885,-1.5885,-1.5885,-1.5885,-1.5885,-1.5885,-1.5885,-1.5885,-1.5885,-1.5885,-1.5885,-1.5885,-1.5885,-1.5885,-1.5885,-1.5885,-1.5885,-1.5885,-1.6004,-1.6105,-1.6264,-1.6318,-1.6229,-1.6151,-1.5985,-1.5802,-1.5628,-1.5728,-1.5825,-1.5825,-1.5825,-1.5731,-1.5645,-1.5378,-1.5084,-1.4796,-1.4502,-1.4262,-1.4095,-1.4088,-1.4088,-1.4088,-1.4088,-1.4088,-1.4088,-1.4454,-1.4985,-1.5752,-1.6239,-1.7058,-1.823,-1.8479,-1.8678,-1.9085,-2.001,-2.0615,-2.0566,-2.0615,-2.0615,-2.0615,-2.0615,-2.0566,-2.0615,-2.0615,-2.0615,-2.0615,-2.0615,-2.0615,-2.0615,-2.0615,-2.0654,-2.0731,-2.0809,-2.0964,-2.1128,-2.132,-2.1474,-2.1617,-2.1731,-2.1807,-2.1807,-2.1807,-2.1807,-2.1807,-2.1807,-2.1807,-2.1807,-2.1807,-2.1807,-2.1807,-2.1807,-2.1807,-2.1807,-2.1807,-2.1807,-2.1807,-2.1807,-2.1807,-2.1807,-2.1807,-2.1997,-0.7933,-0.7933,-0.7933,-0.8416,-0.9297,-0.9486,-1.0624,-1.2293,-1.2803,-1.3771,-1.4976,-1.5238,-1.5559,-1.5885,-1.5885,-1.5885,-1.5885,-1.5885,-1.5885,-1.5885,-1.5885,-1.5885,-1.5885,-1.5885,-1.5885,-1.5885,-1.5885,-1.5885,-1.5885,-1.5885,-1.5885,-1.5885,-1.5885,-1.5998,-1.6164,-1.6211,-1.6135,-1.6064,-1.5846,-1.567,-1.5441,-1.5505,-1.5642,-1.5737,-1.5784,-1.5825,-1.5771,-1.5545,-1.5264,-1.5015,-1.4683,-1.4389,-1.4108,-1.4088,-1.4088,-1.4088,-1.4088,-1.4088,-1.4088,-1.4088,-1.4447,-1.5255,-1.5504,-1.6075,-1.7098,-1.7472,-1.7674,-1.8118,-1.9164,-1.9835,-1.9883,-1.9883,-1.9883,-1.9874,-1.9874,-1.9962,-2.0167,-2.0245,-2.0333,-2.0527,-2.0615,-2.0615,-2.0615,-2.0605,-2.0644,-2.0693,-2.0693,-2.077,-2.1012,-2.1205,-2.1359,-2.155,-2.1693,-2.1769,-2.1807,-2.1807,-2.1807,-2.1807,-2.1807,-2.1807,-2.1807,-2.1807,-2.1807,-2.1807,-2.1807,-2.1807,-2.1807,-2.1807,-2.1807,-2.1807,-2.1807,-2.1807,-2.1807,-2.1807,-2.1807,-0.7933,-0.7933,-0.7933,-0.7922,-0.803,-0.8896,-0.9527,-1.0126,-1.0873,-1.2191,-1.3652,-1.3863,-1.4578,-1.5785,-1.5832,-1.5885,-1.5885,-1.5885,-1.5885,-1.5885,-1.5885,-1.5885,-1.5885,-1.5885,-1.5885,-1.5885,-1.5885,-1.5885,-1.5885,-1.5885,-1.5885,-1.5885,-1.5885,-1.5885,-1.5939,-1.5945,-1.5812,-1.5634,-1.5546,-1.5426,-1.5152,-1.5133,-1.5261,-1.554,-1.5683,-1.5778,-1.5798,-1.5551,-1.5264,-1.5022,-1.4689,-1.4402,-1.4128,-1.4088,-1.4088,-1.4088,-1.4088,-1.4088,-1.4088,-1.4088,-1.4201,-1.444,-1.4608,-1.5061,-1.6221,-1.6468,-1.6837,-1.7836,-1.7965,-1.8118,-1.8118,-1.8318,-1.8359,-1.8318,-1.8238,-1.8607,-1.9253,-1.9381,-1.9775,-2.0284,-2.045,-2.0489,-2.0566,-2.0615,-2.0693,-2.078,-2.0867,-2.0974,-2.1233,-2.1387,-2.154,-2.1655,-2.1769,-2.1807,-2.1807,-2.1807,-2.1807,-2.1807,-2.1807,-2.1807,-2.1807,-2.1807,-2.1807,-2.1807,-2.1807,-2.1807,-2.1807,-2.1807,-2.1807,-2.1807,-2.1807,-2.1807,-2.1807,-2.1807,-2.1807,-0.7943,-0.7925,-0.7793,-0.7763,-0.7796,-0.7965,-0.8479,-0.9365,-0.9772,-1.071,-1.2077,-1.321,-1.397,-1.4519,-1.55,-1.5885,-1.5885,-1.5885,-1.5885,-1.5885,-1.5885,-1.5885,-1.5885,-1.5885,-1.5885,-1.5885,-1.5885,-1.5885,-1.5885,-1.5885,-1.5885,-1.5885,-1.5885,-1.5885,-1.5885,-1.5885,-1.5837,-1.571,-1.5433,-1.5248,-1.5314,-1.5166,-1.522,-1.5493,-1.5588,-1.5642,-1.5825,-1.5725,-1.5458,-1.4983,-1.4863,-1.4583,-1.4155,-1.4088,-1.4088,-1.4088,-1.4088,-1.4088,-1.4088,-1.4088,-1.4124,-1.4201,-1.4356,-1.4566,-1.5019,-1.5401,-1.5741,-1.6105,-1.6312,-1.6312,-1.655,-1.7277,-1.7997,-1.7997,-1.7997,-1.8046,-1.8367,-1.8487,-1.8598,-1.8926,-1.9362,-1.9971,-2.0372,-2.0576,-2.0605,-2.0683,-2.0693,-2.077,-2.0925,-2.1118,-2.1359,-2.1436,-2.1627,-2.1807,-2.1807,-2.1807,-2.1807,-2.1807,-2.1807,-2.1807,-2.1807,-2.1807,-2.1807,-2.1807,-2.1807,-2.1807,-2.1807,-2.1807,-2.1807,-2.1807,-2.1807,-2.1807,-2.1807,-2.1807,-2.1807,-0.7988,-0.7815,-0.7733,-0.7676,-0.7619,-0.7423,-0.7729,-0.8499,-0.8585,-0.9347,-1.0605,-1.1796,-1.2778,-1.3755,-1.4739,-1.5506,-1.5885,-1.5885,-1.5885,-1.5885,-1.5885,-1.5885,-1.5885,-1.5885,-1.5885,-1.5885,-1.5885,-1.5885,-1.5885,-1.5885,-1.5885,-1.5885,-1.5885,-1.5885,-1.5885,-1.5885,-1.5885,-1.5795,-1.5372,-1.5208,-1.5337,-1.5015,-1.5029,-1.5309,-1.5356,-1.5499,-1.5778,-1.5825,-1.5565,-1.5109,-1.5015,-1.474,-1.4168,-1.4088,-1.4088,-1.4088,-1.4088,-1.4088,-1.4088,-1.4088,-1.4088,-1.4088,-1.4201,-1.4321,-1.4398,-1.4741,-1.4999,-1.5124,-1.5305,-1.5389,-1.5631,-1.6476,-1.7155,-1.7155,-1.7155,-1.7318,-1.7513,-1.7594,-1.7706,-1.8078,-1.8527,-1.9125,-1.9608,-1.9726,-1.9844,-2.0089,-2.0177,-2.0245,-2.0654,-2.0896,-2.1167,-2.1282,-2.1502,-2.1693,-2.1769,-2.1807,-2.1807,-2.1807,-2.1807,-2.1807,-2.1807,-2.1807,-2.1807,-2.1807,-2.1807,-2.1807,-2.1807,-2.1807,-2.1807,-2.1807,-2.1807,-2.1807,-2.1807,-2.1807,-2.1776,-0.7809,-0.7714,-0.7698,-0.7619,-0.7505,-0.7317,-0.7328,-0.7412,-0.7368,-0.814,-0.923,-0.9449,-1.1084,-1.3043,-1.3539,-1.4465,-1.5506,-1.5672,-1.5779,-1.5885,-1.5885,-1.5885,-1.5885,-1.5885,-1.5885,-1.5885,-1.5885,-1.5885,-1.5885,-1.5885,-1.5885,-1.5885,-1.5885,-1.5885,-1.5885,-1.5885,-1.5885,-1.5777,-1.5378,-1.5107,-1.5046,-1.468,-1.464,-1.5083,-1.5131,-1.5363,-1.5778,-1.5778,-1.5558,-1.5095,-1.5015,-1.4733,-1.4188,-1.4088,-1.4088,-1.4088,-1.4088,-1.4088,-1.4088,-1.4088,-1.4088,-1.4088,-1.4088,-1.4201,-1.4398,-1.4608,-1.4824,-1.509,-1.5264,-1.5389,-1.5389,-1.559,-1.5673,-1.5472,-1.5714,-1.6031,-1.6501,-1.6698,-1.7025,-1.7715,-1.7997,-1.7989,-1.8037,-1.8399,-1.8807,-1.9332,-1.9578,-1.9932,-2.0664,-2.0896,-2.1099,-2.1359,-2.1512,-2.1617,-2.1731,-2.1807,-2.1807,-2.1807,-2.1807,-2.1807,-2.1807,-2.1807,-2.1807,-2.1807,-2.1807,-2.1807,-2.1807,-2.1807,-2.1807,-2.1807,-2.1807,-2.1807,-2.1797,-2.1766,-2.1683,-0.7804,-0.7695,-0.7608,-0.7505,-0.7325,-0.7263,-0.7211,-0.7206,-0.7224,-0.7429,-0.7974,-0.8851,-0.983,-1.0815,-1.1914,-1.3221,-1.4352,-1.4643,-1.5137,-1.5779,-1.5885,-1.5885,-1.5885,-1.5885,-1.5885,-1.5885,-1.5885,-1.5885,-1.5885,-1.5885,-1.5885,-1.5885,-1.5885,-1.5885,-1.5885,-1.5885,-1.5885,-1.5831,-1.5372,-1.5208,-1.5305,-1.4869,-1.4742,-1.5035,-1.5131,-1.5267,-1.5588,-1.5737,-1.5551,-1.5042,-1.5008,-1.474,-1.4215,-1.4088,-1.4088,-1.4088,-1.4088,-1.4088,-1.4088,-1.4088,-1.4088,-1.4088,-1.4088,-1.4208,-1.4398,-1.4566,-1.4817,-1.5082,-1.5305,-1.5389,-1.5389,-1.5389,-1.5389,-1.5389,-1.5431,-1.5514,-1.579,-1.5824,-1.618,-1.6903,-1.7107,-1.735,-1.7917,-1.8318,-1.8727,-1.9143,-1.9657,-2.0245,-2.0566,-2.078,-2.0984,-2.1254,-2.1397,-2.154,-2.1655,-2.1731,-2.1769,-2.1769,-2.1807,-2.1807,-2.1807,-2.1807,-2.1807,-2.1807,-2.1807,-2.1807,-2.1807,-2.1807,-2.1807,-2.1807,-2.1807,-2.1797,-2.1766,-2.1662,-2.1528,-0.7804,-0.769,-0.757,-0.7448,-0.7326,-0.7206,-0.721,-0.721,-0.721,-0.721,-0.7429,-0.814,-0.8851,-0.9449,-1.0495,-1.1751,-1.2999,-1.3717,-1.4482,-1.5292,-1.5785,-1.5891,-1.5885,-1.5885,-1.5885,-1.5885,-1.5885,-1.5885,-1.5885,-1.5885,-1.5885,-1.5885,-1.5885,-1.5885,-1.5885,-1.5885,-1.5885,-1.5813,-1.5372,-1.5208,-1.5193,-1.482,-1.4688,-1.4885,-1.4933,-1.5077,-1.5356,-1.5547,-1.5465,-1.5037,-1.4821,-1.4492,-1.4122,-1.4088,-1.4088,-1.4088,-1.4088,-1.4088,-1.4088,-1.4088,-1.4088,-1.4088,-1.4088,-1.4124,-1.4321,-1.4531,-1.4776,-1.4957,-1.5215,-1.5389,-1.5389,-1.5389,-1.5389,-1.5389,-1.5389,-1.5389,-1.5389,-1.5389,-1.559,-1.6098,-1.6221,-1.6501,-1.7033,-1.7399,-1.8006,-1.8327,-1.9085,-1.9883,-2.0089,-2.0537,-2.078,-2.0974,-2.1138,-2.1359,-2.1617,-2.1693,-2.1731,-2.1769,-2.1807,-2.1807,-2.1807,-2.1807,-2.1807,-2.1807,-2.1807,-2.1807,-2.1807,-2.1807,-2.1807,-2.1807,-2.1787,-2.1673,-2.158,-2.1373,-2.1186,-0.7801,-0.7682,-0.7568,-0.744,-0.7312,-0.7201,-0.721,-0.721,-0.721,-0.721,-0.721,-0.7374,-0.7986,-0.8916,-0.9251,-1.0292,-1.1887,-1.3004,-1.3932,-1.4648,-1.5405,-1.5885,-1.5885,-1.5885,-1.5885,-1.5885,-1.5885,-1.5885,-1.5885,-1.5885,-1.5885,-1.5885,-1.5885,-1.5885,-1.5885,-1.5885,-1.5885,-1.5819,-1.5372,-1.5113,-1.5127,-1.4625,-1.4442,-1.4688,-1.4688,-1.4838,-1.5077,-1.5266,-1.5292,-1.4977,-1.4499,-1.4148,-1.4088,-1.4088,-1.4088,-1.4088,-1.4088,-1.4088,-1.4088,-1.4088,-1.4088,-1.4088,-1.4088,-1.413,-1.4208,-1.4447,-1.465,-1.4783,-1.5124,-1.5389,-1.5389,-1.5389,-1.5389,-1.5389,-1.5389,-1.5389,-1.5389,-1.5389,-1.5514,-1.5472,-1.5431,-1.5472,-1.5673,-1.5797,-1.627,-1.6821,-1.7715,-1.8559,-1.9085,-1.9687,-2.0372,-2.0537,-2.045,-2.0799,-2.0972,-2.1464,-2.1502,-2.154,-2.1617,-2.1655,-2.1769,-2.1807,-2.1807,-2.1807,-2.1807,-2.1807,-2.1807,-2.1807,-2.1807,-2.1807,-2.1714,-2.1538,-2.1311,-2.1073,-2.0731,-0.7752,-0.7568,-0.7532,-0.7396,-0.7214,-0.7221,-0.721,-0.721,-0.721,-0.721,-0.7213,-0.721,-0.7427,-0.7832,-0.8026,-0.9303,-1.1126,-1.2087,-1.356,-1.5041,-1.5624,-1.5885,-1.5885,-1.5885,-1.5885,-1.5885,-1.5885,-1.5885,-1.5885,-1.5885,-1.5885,-1.5885,-1.5885,-1.5885,-1.5885,-1.5885,-1.5885,-1.5819,-1.5366,-1.5107,-1.5016,-1.4576,-1.4358,-1.44,-1.4394,-1.4544,-1.4787,-1.4803,-1.491,-1.4957,-1.4402,-1.4088,-1.4088,-1.4088,-1.4088,-1.4088,-1.4088,-1.4088,-1.4088,-1.4088,-1.4088,-1.4088,-1.4088,-1.4166,-1.4321,-1.4398,-1.4524,-1.4692,-1.4999,-1.5173,-1.5222,-1.5298,-1.5389,-1.5389,-1.5389,-1.5389,-1.5389,-1.5389,-1.5389,-1.5389,-1.5389,-1.5389,-1.5514,-1.5865,-1.6296,-1.6665,-1.731,-1.7997,-1.8359,-1.8638,-1.9204,-1.9274,-1.9353,-1.9874,-2.0352,-2.0915,-2.1233,-2.1282,-2.1359,-2.1425,-2.1617,-2.1807,-2.1807,-2.1807,-2.1807,-2.1807,-2.1807,-2.1807,-2.1807,-2.1766,-2.1518,-2.1269,-2.0959,-2.069,-2.028,-0.7717,-0.7587,-0.7483,-0.7361,-0.723,-0.7232,-0.721,-0.721,-0.721,-0.721,-0.7221,-0.7211,-0.7269,-0.732,-0.7435,-0.8273,-0.9778,-1.0579,-1.1651,-1.2906,-1.3771,-1.4745,-1.5559,-1.5885,-1.5885,-1.5885,-1.5885,-1.5885,-1.5885,-1.5885,-1.5885,-1.5885,-1.5885,-1.5885,-1.5885,-1.5885,-1.5825,-1.5674,-1.5312,-1.5065,-1.4914,-1.4527,-1.434,-1.4298,-1.4346,-1.4442,-1.4762,-1.4714,-1.4589,-1.4465,-1.4226,-1.4088,-1.4088,-1.4088,-1.4088,-1.4088,-1.4088,-1.4088,-1.4088,-1.4088,-1.4088,-1.4088,-1.4088,-1.4166,-1.4243,-1.4321,-1.4475,-1.4573,-1.4783,-1.4915,-1.4957,-1.5124,-1.5298,-1.5389,-1.5389,-1.5389,-1.5389,-1.5389,-1.5389,-1.5389,-1.5389,-1.5389,-1.5389,-1.5865,-1.6064,-1.6312,-1.6829,-1.7229,-1.7472,-1.7715,-1.7957,-1.8109,-1.839,-1.8868,-1.9265,-1.9786,-2.0274,-2.044,-2.0799,-2.0954,-2.13,-2.1568,-2.1662,-2.1662,-2.1721,-2.1728,-2.1628,-2.1587,-2.1652,-2.1528,-2.1269,-2.0907,-2.0555,-2.0286,-1.9865,-0.7695,-0.7663,-0.7432,-0.7271,-0.7293,-0.7201,-0.721,-0.7213,-0.7235,-0.724,-0.7209,-0.7307,-0.7377,-0.7312,-0.735,-0.7621,-0.8196,-0.9265,-0.9798,-1.0824,-1.1864,-1.3285,-1.4911,-1.5399,-1.5512,-1.5618,-1.5779,-1.5885,-1.5885,-1.5885,-1.5885,-1.5885,-1.5885,-1.5885,-1.5885,-1.5885,-1.5747,-1.5523,-1.5264,-1.4986,-1.4763,-1.4467,-1.431,-1.4298,-1.4298,-1.4459,-1.4703,-1.4596,-1.4294,-1.3779,-1.3932,-1.4088,-1.4088,-1.4088,-1.4088,-1.4088,-1.4088,-1.4088,-1.4088,-1.4088,-1.4088,-1.4088,-1.4088,-1.4088,-1.4124,-1.4237,-1.4314,-1.4363,-1.4573,-1.4699,-1.4824,-1.4999,-1.5215,-1.5389,-1.5389,-1.5389,-1.5389,-1.5389,-1.5389,-1.5389,-1.5389,-1.5389,-1.5389,-1.5389,-1.5431,-1.579,-1.6229,-1.6427,-1.6632,-1.6837,-1.7074,-1.7277,-1.7594,-1.7908,-1.827,-1.863,-1.9027,-1.9392,-1.9913,-2.0274,-2.075,-2.1049,-2.1278,-2.1362,-2.1106,-2.1052,-2.1131,-2.1206,-2.125,-2.1145,-2.0793,-2.04,-2.0072,-1.9855,-1.9502,-0.7646,-0.7543,-0.7396,-0.7279,-0.7198,-0.7224,-0.7213,-0.7221,-0.7258,-0.7298,-0.7326,-0.7426,-0.7527,-0.7603,-0.7434,-0.7895,-0.8682,-0.915,-0.9889,-1.1143,-1.1647,-1.2141,-1.3117,-1.383,-1.4487,-1.4702,-1.5512,-1.5838,-1.5779,-1.5618,-1.5885,-1.5779,-1.5672,-1.5885,-1.5838,-1.5802,-1.5759,-1.5499,-1.5234,-1.4956,-1.469,-1.4443,-1.4298,-1.4298,-1.4298,-1.4237,-1.4166,-1.4101,-1.3944,-1.3897,-1.3953,-1.4082,-1.4088,-1.4088,-1.4088,-1.4088,-1.4088,-1.4088,-1.4088,-1.4088,-1.4088,-1.4088,-1.4088,-1.4088,-1.4088,-1.4124,-1.4166,-1.4208,-1.437,-1.4615,-1.4873,-1.5173,-1.5305,-1.5347,-1.5389,-1.5389,-1.5389,-1.5389,-1.5389,-1.5389,-1.5389,-1.5389,-1.5389,-1.5389,-1.5431,-1.5431,-1.5548,-1.5658,-1.5865,-1.6072,-1.6278,-1.6517,-1.6755,-1.7009,-1.7089,-1.7443,-1.7931,-1.8329,-1.8831,-1.9155,-1.9673,-2.0034,-2.012,-2.0213,-2.0266,-2.0337,-2.0416,-2.049,-2.0492,-2.0401,-2.0267,-1.9922,-1.9589,-1.939,-1.9326,-0.7546,-0.7423,-0.7301,-0.7214,-0.7224,-0.7211,-0.7239,-0.7263,-0.7369,-0.7366,-0.7448,-0.7551,-0.7641,-0.7684,-0.7516,-0.7864,-0.8244,-0.8382,-0.8744,-0.9512,-0.9794,-0.9959,-1.0398,-1.1487,-1.2472,-1.3236,-1.3884,-1.4261,-1.4261,-1.4315,-1.4153,-1.4369,-1.4804,-1.5024,-1.5209,-1.5506,-1.5559,-1.5306,-1.5059,-1.4793,-1.4527,-1.4383,-1.4298,-1.4346,-1.4394,-1.441,-1.4335,-1.4126,-1.4051,-1.3995,-1.3929,-1.3955,-1.4082,-1.4088,-1.4088,-1.4088,-1.4088,-1.4088,-1.4088,-1.4088,-1.4088,-1.4088,-1.4088,-1.4088,-1.4088,-1.4088,-1.4088,-1.4124,-1.4201,-1.4412,-1.4741,-1.495,-1.5082,-1.5257,-1.534,-1.5389,-1.5389,-1.5389,-1.5389,-1.5389,-1.5389,-1.5389,-1.5389,-1.5389,-1.5431,-1.5431,-1.5431,-1.5548,-1.5548,-1.5714,-1.5631,-1.579,-1.5948,-1.6044,-1.6006,-1.63,-1.6797,-1.7188,-1.7615,-1.7812,-1.8088,-1.841,-1.8678,-1.9023,-1.9419,-1.9519,-1.9607,-1.9654,-1.9549,-1.9312,-1.9168,-1.9157,-1.9206,-1.9103,-1.9135,-0.7371,-0.7269,-0.7262,-0.721,-0.7226,-0.7258,-0.7307,-0.729,-0.7467,-0.7519,-0.757,-0.7674,-0.7733,-0.7701,-0.7576,-0.751,-0.7462,-0.7392,-0.7762,-0.7875,-0.8045,-0.8211,-0.854,-0.9361,-1.0343,-1.1705,-1.2417,-1.2526,-1.258,-1.2417,-1.2852,-1.2738,-1.3673,-1.4331,-1.4491,-1.5048,-1.5403,-1.5149,-1.4896,-1.4618,-1.4383,-1.4304,-1.4298,-1.4346,-1.4448,-1.4538,-1.4397,-1.4041,-1.3794,-1.391,-1.3604,-1.3576,-1.3779,-1.4082,-1.4088,-1.4088,-1.4088,-1.4088,-1.4088,-1.4088,-1.4088,-1.4088,-1.4088,-1.4088,-1.4088,-1.4088,-1.4088,-1.4124,-1.4159,-1.4286,-1.4398,-1.465,-1.4824,-1.4999,-1.5166,-1.5298,-1.5347,-1.5347,-1.5347,-1.5389,-1.5389,-1.5389,-1.5389,-1.5389,-1.5389,-1.5389,-1.5389,-1.5389,-1.5389,-1.536,-1.5345,-1.525,-1.5446,-1.5506,-1.5445,-1.5708,-1.6166,-1.6381,-1.6699,-1.6783,-1.6845,-1.708,-1.7555,-1.8253,-1.8639,-1.8647,-1.8586,-1.8562,-1.8405,-1.8132,-1.8387,-1.8768,-1.888,-1.8862,-1.8965,-0.7296,-0.7269,-0.7259,-0.7213,-0.7215,-0.724,-0.7266,-0.729,-0.7486,-0.7578,-0.7679,-0.7785,-0.7834,-0.778,-0.7608,-0.7421,-0.7269,-0.7229,-0.7213,-0.7324,-0.7438,-0.7607,-0.7771,-0.8152,-0.8644,-0.9251,-1.0617,-1.176,-1.1923,-1.225,-1.1928,-1.2467,-1.3398,-1.3948,-1.4158,-1.4942,-1.5027,-1.4683,-1.4413,-1.4186,-1.4015,-1.4004,-1.4004,-1.3956,-1.401,-1.41,-1.3945,-1.3147,-1.2524,-1.2711,-1.2283,-1.2367,-1.2905,-1.3646,-1.4039,-1.4088,-1.4088,-1.4088,-1.4088,-1.4088,-1.4088,-1.4088,-1.4088,-1.4088,-1.4088,-1.4088,-1.4088,-1.4124,-1.4243,-1.4356,-1.4391,-1.4566,-1.4692,-1.4783,-1.4866,-1.4999,-1.5131,-1.5215,-1.5257,-1.5389,-1.5389,-1.5389,-1.5389,-1.5389,-1.5389,-1.5389,-1.5389,-1.5389,-1.5389,-1.5316,-1.5236,-1.5112,-1.5006,-1.5032,-1.4995,-1.5335,-1.5713,-1.5847,-1.6039,-1.611,-1.6132,-1.605,-1.6445,-1.7138,-1.7423,-1.7424,-1.7395,-1.7433,-1.7605,-1.7593,-1.8027,-1.848,-1.8556,-1.8596,-1.8931,-0.7336,-0.728,-0.7336,-0.7342,-0.7353,-0.7413,-0.7467,-0.7535,-0.7649,-0.7733,-0.779,-0.7845,-0.7834,-0.775,-0.7606,-0.7385,-0.7265,-0.721,-0.721,-0.7268,-0.7324,-0.7382,-0.7438,-0.7543,-0.7546,-0.7986,-0.9192,-1.0123,-1.0178,-1.0233,-1.0617,-1.0844,-1.1823,-1.2363,-1.2558,-1.3051,-1.3536,-1.3389,-1.3159,-1.2916,-1.2748,-1.2732,-1.2732,-1.2732,-1.2732,-1.2684,-1.2523,-1.1994,-1.1688,-1.208,-1.2054,-1.2337,-1.2869,-1.3519,-1.4088,-1.4088,-1.4088,-1.4088,-1.4088,-1.4088,-1.4088,-1.4088,-1.4088,-1.4088,-1.4088,-1.4088,-1.4088,-1.413,-1.4124,-1.4243,-1.4243,-1.4447,-1.4566,-1.4692,-1.4783,-1.495,-1.5166,-1.5208,-1.5298,-1.5347,-1.5389,-1.5389,-1.5389,-1.5389,-1.5389,-1.5389,-1.5389,-1.5389,-1.5389,-1.5243,-1.5104,-1.4882,-1.4692,-1.4545,-1.4528,-1.4808,-1.5127,-1.5304,-1.5377,-1.542,-1.5381,-1.527,-1.5415,-1.5867,-1.6036,-1.6249,-1.6252,-1.6334,-1.6666,-1.7063,-1.7298,-1.7583,-1.8076,-1.8395,-1.8664,-0.7462,-0.7323,-0.7478,-0.7519,-0.7535,-0.7619,-0.7671,-0.7717,-0.7785,-0.7837,-0.793,-0.7842,-0.7782,-0.7682,-0.7538,-0.7361,-0.7218,-0.721,-0.721,-0.721,-0.721,-0.721,-0.721,-0.721,-0.7265,-0.7379,-0.7765,-0.8045,-0.8647,-0.8868,-0.8819,-0.9478,-1.0186,-1.0698,-1.0987,-1.1835,-1.1671,-1.167,-1.1437,-1.1233,-1.1219,-1.1219,-1.1219,-1.1219,-1.1219,-1.1321,-1.1395,-1.1082,-1.1123,-1.1532,-1.1831,-1.2279,-1.2961,-1.3568,-1.3913,-1.4004,-1.4039,-1.4088,-1.4088,-1.4088,-1.4088,-1.4088,-1.4088,-1.4088,-1.4088,-1.4088,-1.4088,-1.4088,-1.4124,-1.4124,-1.4166,-1.4243,-1.4405,-1.4531,-1.4748,-1.4957,-1.5041,-1.5124,-1.5173,-1.5257,-1.5347,-1.5389,-1.5389,-1.5389,-1.5389,-1.5389,-1.5389,-1.5389,-1.5352,-1.5097,-1.4893,-1.4604,-1.434,-1.4106,-1.4077,-1.4179,-1.4466,-1.4721,-1.4694,-1.4683,-1.4577,-1.4438,-1.4662,-1.49,-1.5125,-1.5319,-1.5259,-1.5532,-1.6158,-1.6542,-1.6508,-1.6846,-1.7579,-1.792,-1.8134,-0.751,-0.7497,-0.7458,-0.7519,-0.7529,-0.7557,-0.7614,-0.7706,-0.7731,-0.7782,-0.785,-0.7771,-0.7717,-0.7633,-0.7445,-0.7282,-0.7245,-0.721,-0.721,-0.721,-0.721,-0.721,-0.721,-0.721,-0.721,-0.7213,-0.7321,-0.7601,-0.8045,-0.8546,-0.8823,-0.9154,-0.9904,-1.0607,-1.0361,-1.0936,-1.1704,-1.1515,-1.1243,-1.1072,-1.1028,-1.0979,-1.0974,-1.1023,-1.0974,-1.0925,-1.0733,-1.0482,-1.0524,-1.0711,-1.112,-1.1511,-1.1977,-1.2753,-1.3355,-1.3695,-1.3955,-1.4088,-1.4088,-1.4088,-1.4088,-1.4088,-1.4088,-1.4088,-1.4088,-1.4088,-1.4088,-1.4088,-1.4068,-1.4048,-1.4028,-1.4084,-1.4146,-1.4216,-1.4308,-1.4461,-1.4566,-1.4908,-1.4999,-1.5173,-1.5257,-1.5347,-1.5389,-1.5389,-1.5389,-1.5389,-1.5389,-1.5374,-1.5228,-1.4922,-1.4557,-1.4238,-1.4055,-1.3836,-1.3784,-1.3857,-1.3953,-1.4165,-1.4131,-1.4051,-1.4007,-1.3976,-1.3828,-1.4038,-1.4325,-1.4812,-1.5155,-1.5532,-1.5956,-1.6132,-1.6228,-1.6682,-1.7304,-1.751,-1.7588,-0.7503,-0.763,-0.769,-0.772,-0.772,-0.7717,-0.7747,-0.7788,-0.7796,-0.7788,-0.7769,-0.7728,-0.763,-0.7486,-0.7301,-0.7265,-0.7218,-0.721,-0.721,-0.721,-0.721,-0.721,-0.721,-0.721,-0.721,-0.7268,-0.7379,-0.7549,-0.7884,-0.8159,-0.8546,-0.8989,-0.9357,-0.9567,-0.9601,-0.9813,-0.98,-0.963,-0.9468,-0.9365,-0.9414,-0.941,-0.941,-0.941,-0.946,-0.946,-0.9445,-0.9188,-0.931,-0.957,-0.997,-1.0348,-1.0835,-1.1397,-1.1826,-1.2132,-1.2217,-1.2826,-1.3828,-1.3997,-1.3997,-1.4088,-1.4088,-1.4088,-1.4088,-1.4075,-1.4075,-1.4088,-1.3921,-1.3848,-1.3753,-1.3681,-1.3803,-1.3926,-1.3952,-1.4185,-1.4351,-1.4594,-1.4824,-1.4999,-1.5173,-1.5257,-1.5347,-1.5389,-1.5389,-1.5382,-1.5309,-1.5221,-1.4992,-1.4589,-1.4201,-1.3792,-1.3682,-1.3594,-1.3609,-1.3653,-1.3653,-1.3784,-1.3784,-1.3741,-1.3697,-1.3609,-1.3587,-1.3702,-1.4139,-1.4601,-1.5078,-1.5355,-1.5594,-1.5771,-1.5956,-1.6403,-1.6855,-1.6925,-1.7063,-0.7398,-0.7635,-0.7834,-0.7933,-0.7933,-0.7933,-0.7867,-0.7928,-0.7831,-0.7777,-0.7701,-0.7633,-0.7481,-0.7317,-0.7262,-0.7218,-0.7213,-0.721,-0.721,-0.721,-0.721,-0.721,-0.721,-0.721,-0.721,-0.721,-0.7324,-0.7496,-0.7662,-0.7881,-0.8214,-0.8764,-0.8817,-0.8784,-0.8702,-0.8699,-0.8646,-0.8494,-0.8339,-0.824,-0.8187,-0.8137,-0.8137,-0.8088,-0.7988,-0.7988,-0.8014,-0.8267,-0.8615,-0.8932,-0.9358,-0.986,-1.025,-1.0486,-1.0788,-1.1052,-1.1182,-1.1746,-1.2705,-1.3137,-1.3398,-1.3483,-1.3695,-1.361,-1.3682,-1.3831,-1.3975,-1.3935,-1.3681,-1.3527,-1.346,-1.33,-1.3434,-1.3642,-1.3736,-1.4008,-1.4262,-1.4345,-1.4434,-1.4621,-1.4822,-1.5173,-1.5257,-1.5347,-1.5382,-1.5374,-1.5258,-1.5075,-1.4688,-1.4267,-1.3975,-1.3653,-1.355,-1.3514,-1.3521,-1.3521,-1.3499,-1.3492,-1.3492,-1.3499,-1.3543,-1.3579,-1.3579,-1.3775,-1.3949,-1.4065,-1.4353,-1.4776,-1.5232,-1.5453,-1.5709,-1.6,-1.6281,-1.6342,-1.6438,-0.7138,-0.7436,-0.7747,-0.7872,-0.7933,-0.7933,-0.7933,-0.7847,-0.7758,-0.7709,-0.7638,-0.7472,-0.7304,-0.7254,-0.7226,-0.721,-0.721,-0.721,-0.721,-0.721,-0.721,-0.721,-0.721,-0.721,-0.721,-0.721,-0.7268,-0.7382,-0.7551,-0.7549,-0.7989,-0.842,-0.8375,-0.8444,-0.8397,-0.8353,-0.8225,-0.8113,-0.7998,-0.7992,-0.7988,-0.7988,-0.7988,-0.7988,-0.7988,-0.7985,-0.8021,-0.839,-0.8625,-0.8803,-0.9065,-0.9292,-0.9453,-0.9575,-0.9797,-1.0062,-1.0154,-1.0631,-1.1235,-1.1757,-1.1623,-1.1794,-1.2229,-1.279,-1.2826,-1.331,-1.3502,-1.3346,-1.2902,-1.2895,-1.2988,-1.3174,-1.2752,-1.283,-1.2876,-1.3167,-1.346,-1.3879,-1.4015,-1.4199,-1.4426,-1.4653,-1.4902,-1.4974,-1.5206,-1.5199,-1.4849,-1.4652,-1.4406,-1.4011,-1.3836,-1.3609,-1.3528,-1.3492,-1.3492,-1.3492,-1.3492,-1.3492,-1.3492,-1.3492,-1.3499,-1.3528,-1.3564,-1.3601,-1.3702,-1.3666,-1.3739,-1.4346,-1.4875,-1.5213,-1.5461,-1.5568,-1.5647,-1.5709,-1.5753,-0.6775,-0.7143,-0.7444,-0.7689,-0.7933,-0.7933,-0.7831,-0.7766,-0.772,-0.7608,-0.747,-0.7304,-0.7201,-0.7218,-0.721,-0.721,-0.721,-0.721,-0.721,-0.721,-0.721,-0.721,-0.721,-0.721,-0.721,-0.721,-0.721,-0.721,-0.7324,-0.7371,-0.7483,-0.7762,-0.7957,-0.8077,-0.8076,-0.8123,-0.8062,-0.8019,-0.7988,-0.7988,-0.7988,-0.7988,-0.7988,-0.7988,-0.7988,-0.7931,-0.7938,-0.8036,-0.8077,-0.8112,-0.822,-0.8308,-0.8356,-0.8356,-0.854,-0.8811,-0.8899,-0.9117,-0.9719,-1.0501,-1.1278,-1.1327,-1.1671,-1.1832,-1.1841,-1.2015,-1.1987,-1.1852,-1.1736,-1.1673,-1.1447,-1.1289,-1.1118,-1.1459,-1.1841,-1.2256,-1.2719,-1.326,-1.3586,-1.3754,-1.3855,-1.401,-1.4285,-1.4507,-1.4772,-1.4988,-1.4594,-1.4267,-1.4018,-1.3828,-1.3667,-1.3587,-1.3514,-1.3492,-1.3492,-1.3492,-1.3492,-1.3492,-1.3492,-1.3492,-1.3492,-1.3492,-1.3528,-1.3492,-1.3492,-1.3528,-1.3739,-1.4129,-1.4489,-1.4705,-1.4856,-1.4999,-1.5043,-1.5185,-1.5328,-0.6467,-0.6773,-0.6984,-0.7355,-0.7744,-0.7837,-0.7777,-0.7698,-0.7616,-0.7481,-0.7274,-0.7218,-0.7182,-0.7193,-0.7166,-0.7188,-0.7199,-0.721,-0.721,-0.721,-0.721,-0.721,-0.721,-0.721,-0.721,-0.721,-0.721,-0.721,-0.721,-0.7174,-0.7193,-0.7271,-0.7413,-0.7534,-0.7788,-0.7871,-0.7895,-0.7889,-0.7939,-0.7988,-0.7988,-0.7988,-0.7988,-0.7971,-0.7941,-0.7923,-0.7794,-0.7725,-0.7578,-0.7458,-0.7379,-0.72,-0.7139,-0.7139,-0.7231,-0.7415,-0.7551,-0.7724,-0.8416,-0.9331,-1.0463,-1.0294,-1.0668,-1.0744,-1.081,-1.0778,-1.0965,-1.0862,-1.0515,-1.0143,-1.0137,-1.0264,-1.0534,-1.1059,-1.1345,-1.1712,-1.2293,-1.2848,-1.3077,-1.3262,-1.3441,-1.3682,-1.3916,-1.418,-1.4294,-1.4521,-1.4392,-1.4055,-1.3814,-1.366,-1.3572,-1.3514,-1.3499,-1.3492,-1.3492,-1.3492,-1.3492,-1.3492,-1.3492,-1.3492,-1.3492,-1.3492,-1.3492,-1.3492,-1.3492,-1.3492,-1.363,-1.3876,-1.4021,-1.4129,-1.4418,-1.482,-1.507,-1.5284,-1.5292,-0.609,-0.6392,-0.6355,-0.6731,-0.7345,-0.7629,-0.7693,-0.7633,-0.7448,-0.7285,-0.7213,-0.7048,-0.7046,-0.7144,-0.7073,-0.704,-0.7163,-0.7177,-0.7188,-0.7202,-0.7155,-0.7185,-0.7193,-0.7188,-0.7174,-0.7202,-0.7207,-0.7207,-0.7193,-0.7114,-0.6996,-0.6857,-0.6868,-0.6998,-0.7479,-0.7566,-0.76,-0.7643,-0.7842,-0.7889,-0.7939,-0.7939,-0.7939,-0.7928,-0.786,-0.7838,-0.7689,-0.7536,-0.74,-0.7312,-0.7166,-0.7102,-0.7095,-0.7095,-0.7231,-0.7415,-0.7459,-0.7591,-0.794,-0.8428,-0.8794,-0.9026,-0.9472,-0.9682,-0.9773,-0.9963,-1.0077,-0.9821,-0.973,-0.9689,-0.976,-0.9836,-1.004,-1.0283,-1.05,-1.1063,-1.1639,-1.2474,-1.275,-1.2867,-1.3206,-1.3533,-1.3716,-1.3856,-1.3903,-1.3988,-1.4011,-1.3857,-1.3631,-1.355,-1.3499,-1.3492,-1.3492,-1.3492,-1.3492,-1.3492,-1.3492,-1.3492,-1.3492,-1.3492,-1.3492,-1.3492,-1.3492,-1.3492,-1.3492,-1.3492,-1.3492,-1.3528,-1.3702,-1.392,-1.4489,-1.4883,-1.5133,-1.5141,-1.4927,-0.5735,-0.5905,-0.6048,-0.6239,-0.662,-0.7066,-0.7357,-0.7382,-0.7288,-0.7149,-0.7109,-0.6994,-0.6945,-0.6921,-0.691,-0.6931,-0.7013,-0.6996,-0.6959,-0.7182,-0.7067,-0.6991,-0.7067,-0.7095,-0.7043,-0.7119,-0.715,-0.7147,-0.7035,-0.697,-0.685,-0.6706,-0.6578,-0.6659,-0.6997,-0.7203,-0.7338,-0.7338,-0.7441,-0.754,-0.7693,-0.7736,-0.7793,-0.785,-0.7779,-0.7712,-0.7563,-0.7453,-0.7326,-0.7251,-0.7105,-0.7098,-0.7095,-0.7095,-0.7143,-0.7231,-0.7231,-0.7367,-0.7599,-0.7952,-0.8131,-0.8224,-0.8389,-0.8657,-0.8632,-0.8581,-0.8652,-0.8689,-0.8649,-0.8522,-0.828,-0.828,-0.8475,-0.8703,-0.9127,-0.9992,-1.0764,-1.1839,-1.2489,-1.2496,-1.2705,-1.2728,-1.2845,-1.2862,-1.2924,-1.3124,-1.3175,-1.357,-1.3506,-1.3521,-1.3492,-1.3492,-1.3492,-1.3492,-1.3492,-1.3492,-1.3492,-1.3492,-1.3492,-1.3492,-1.3492,-1.3492,-1.3492,-1.3492,-1.3492,-1.3492,-1.3492,-1.3492,-1.3564,-1.3811,-1.4201,-1.4382,-1.4418,-1.4281,-1.4029,-0.5538,-0.5582,-0.5696,-0.5792,-0.6018,-0.6531,-0.6886,-0.7036,-0.7127,-0.7051,-0.698,-0.6902,-0.6847,-0.6809,-0.6812,-0.6825,-0.6915,-0.6904,-0.685,-0.7021,-0.6888,-0.6874,-0.6904,-0.6921,-0.6921,-0.6945,-0.6975,-0.698,-0.6915,-0.6874,-0.6741,-0.6527,-0.6427,-0.6509,-0.6695,-0.6892,-0.7039,-0.7092,-0.7191,-0.7338,-0.7425,-0.7489,-0.7521,-0.7572,-0.7559,-0.7473,-0.7417,-0.7316,-0.7251,-0.7122,-0.7095,-0.7095,-0.7095,-0.7095,-0.7095,-0.7095,-0.7139,-0.7163,-0.7313,-0.7393,-0.7502,-0.7514,-0.7697,-0.7883,-0.7882,-0.7947,-0.7836,-0.7766,-0.758,-0.7547,-0.7561,-0.7518,-0.771,-0.7974,-0.8542,-0.9442,-1.0121,-1.1235,-1.1502,-1.1564,-1.1632,-1.17,-1.1848,-1.183,-1.1832,-1.2066,-1.2305,-1.2776,-1.3266,-1.3266,-1.3339,-1.3419,-1.3455,-1.3455,-1.3492,-1.3492,-1.3492,-1.3492,-1.3492,-1.3492,-1.3492,-1.3492,-1.3492,-1.3492,-1.3492,-1.3492,-1.3492,-1.3528,-1.3528,-1.3528,-1.363,-1.3739,-1.3666,-1.371,-1.3674,-0.5492,-0.5469,-0.5253,-0.5402,-0.5732,-0.6025,-0.634,-0.6653,-0.6869,-0.6972,-0.695,-0.667,-0.6632,-0.6713,-0.6777,-0.6779,-0.679,-0.6874,-0.6874,-0.6825,-0.6763,-0.6779,-0.6785,-0.6796,-0.6796,-0.6798,-0.6825,-0.6858,-0.679,-0.6698,-0.6567,-0.643,-0.64,-0.6437,-0.6537,-0.6639,-0.6792,-0.6842,-0.6939,-0.7071,-0.714,-0.7113,-0.7182,-0.7222,-0.7179,-0.7152,-0.7131,-0.7145,-0.7091,-0.7054,-0.7095,-0.7095,-0.7095,-0.7095,-0.7095,-0.7095,-0.7095,-0.7071,-0.7016,-0.7058,-0.7021,-0.7097,-0.7396,-0.7641,-0.7715,-0.7622,-0.7608,-0.758,-0.7535,-0.7531,-0.7518,-0.7633,-0.7748,-0.8131,-0.8508,-0.9112,-0.9631,-1.0083,-1.0158,-1.0228,-1.0265,-1.0378,-1.0608,-1.0677,-1.0864,-1.1087,-1.1391,-1.1879,-1.2365,-1.2783,-1.29,-1.3229,-1.3302,-1.3419,-1.3455,-1.3455,-1.3492,-1.3492,-1.3492,-1.3492,-1.3492,-1.3492,-1.3492,-1.3492,-1.3492,-1.3492,-1.3492,-1.3492,-1.3492,-1.3492,-1.3484,-1.3557,-1.3666,-1.3928,-1.4057,-0.5224,-0.521,-0.51,-0.5138,-0.5301,-0.5632,-0.6001,-0.6422,-0.6528,-0.6547,-0.6412,-0.6349,-0.6295,-0.6243,-0.6441,-0.6551,-0.6627,-0.6646,-0.6711,-0.6692,-0.6641,-0.663,-0.6643,-0.6671,-0.6671,-0.67,-0.673,-0.6733,-0.666,-0.6497,-0.6441,-0.6395,-0.6387,-0.6387,-0.6437,-0.6489,-0.6537,-0.6584,-0.6681,-0.674,-0.6833,-0.6809,-0.6897,-0.6882,-0.6836,-0.6817,-0.677,-0.6869,-0.6877,-0.6877,-0.7007,-0.7095,-0.7095,-0.7095,-0.7095,-0.7095,-0.7082,-0.7038,-0.6939,-0.6947,-0.6881,-0.6816,-0.7057,-0.7184,-0.7312,-0.7413,-0.7442,-0.7442,-0.7442,-0.7446,-0.7484,-0.7561,-0.7672,-0.7902,-0.8246,-0.8661,-0.9107,-0.9291,-0.9399,-0.9437,-0.9475,-0.9475,-0.9669,-0.9782,-0.9965,-1.0153,-1.0453,-1.087,-1.1434,-1.1855,-1.2378,-1.2746,-1.2893,-1.2929,-1.3273,-1.3346,-1.3419,-1.3492,-1.3411,-1.3382,-1.3382,-1.3419,-1.3455,-1.3492,-1.3492,-1.3492,-1.3492,-1.3492,-1.3484,-1.3477,-1.3513,-1.355,-1.3666,-1.3861,-1.3975,-0.5055,-0.5041,-0.4955,-0.4951,-0.5045,-0.5315,-0.5627,-0.5938,-0.6081,-0.611,-0.6056,-0.5957,-0.5901,-0.5917,-0.6098,-0.6233,-0.634,-0.6366,-0.6443,-0.6505,-0.6513,-0.6462,-0.6481,-0.65,-0.6495,-0.653,-0.6551,-0.6597,-0.6492,-0.6443,-0.6387,-0.6387,-0.6387,-0.6387,-0.6437,-0.6434,-0.6404,-0.6399,-0.6435,-0.6451,-0.6485,-0.65,-0.6491,-0.6538,-0.6515,-0.6421,-0.6402,-0.6567,-0.6612,-0.67,-0.6874,-0.6966,-0.701,-0.7051,-0.7095,-0.7095,-0.7092,-0.6974,-0.6861,-0.684,-0.6756,-0.6712,-0.6698,-0.6821,-0.6957,-0.7107,-0.7173,-0.7211,-0.7292,-0.7373,-0.7407,-0.7446,-0.7484,-0.7518,-0.7863,-0.8169,-0.8428,-0.8651,-0.8765,-0.8841,-0.8841,-0.8803,-0.8879,-0.8993,-0.8955,-0.8874,-0.8912,-0.9183,-1.0013,-1.0881,-1.1558,-1.215,-1.2261,-1.2298,-1.2673,-1.282,-1.2746,-1.2783,-1.2966,-1.2973,-1.3163,-1.3382,-1.3455,-1.3492,-1.3492,-1.3492,-1.3492,-1.3484,-1.3477,-1.3433,-1.3294,-1.322,-1.3257,-1.3468,-1.3539,-0.4961,-0.4955,-0.4871,-0.4794,-0.4836,-0.505,-0.5153,-0.5199,-0.5544,-0.573,-0.5707,-0.5631,-0.5593,-0.5601,-0.5754,-0.5918,-0.6025,-0.6139,-0.6281,-0.6403,-0.6406,-0.6406,-0.6403,-0.6392,-0.6419,-0.64,-0.6406,-0.6449,-0.6411,-0.6387,-0.6387,-0.6387,-0.6387,-0.6426,-0.6396,-0.6396,-0.635,-0.6274,-0.6295,-0.6344,-0.6254,-0.6163,-0.6109,-0.617,-0.6166,-0.613,-0.6257,-0.6343,-0.6387,-0.6476,-0.6656,-0.6792,-0.6922,-0.7007,-0.7095,-0.7095,-0.7095,-0.6937,-0.6824,-0.6753,-0.6579,-0.6505,-0.6486,-0.6563,-0.6679,-0.6907,-0.7019,-0.7057,-0.7138,-0.7176,-0.7215,-0.7253,-0.7288,-0.7288,-0.7442,-0.7676,-0.7825,-0.8012,-0.8084,-0.8161,-0.8161,-0.8122,-0.8122,-0.8237,-0.8275,-0.7859,-0.7859,-0.805,-0.8661,-0.9798,-1.0507,-1.1254,-1.1323,-1.136,-1.162,-1.1768,-1.1774,-1.1885,-1.2187,-1.2599,-1.2826,-1.3119,-1.3492,-1.3492,-1.3492,-1.3492,-1.3492,-1.3426,-1.3301,-1.317,-1.3023,-1.284,-1.2871,-1.3119,-1.3147,-0.4867,-0.4865,-0.4794,-0.4782,-0.4784,-0.4885,-0.4885,-0.4887,-0.5006,-0.5177,-0.5319,-0.5304,-0.5288,-0.5297,-0.5528,-0.5701,-0.5846,-0.5925,-0.6078,-0.625,-0.6321,-0.6323,-0.6384,-0.6379,-0.6384,-0.6387,-0.6387,-0.6387,-0.6387,-0.6387,-0.6384,-0.6431,-0.6423,-0.6391,-0.6309,-0.6306,-0.6252,-0.6143,-0.6151,-0.6127,-0.6015,-0.5969,-0.5939,-0.5902,-0.5822,-0.5866,-0.5949,-0.6083,-0.6127,-0.6216,-0.6615,-0.6836,-0.701,-0.7051,-0.7095,-0.7095,-0.7088,-0.6973,-0.68,-0.6681,-0.6583,-0.6409,-0.6335,-0.6338,-0.649,-0.6753,-0.6903,-0.6903,-0.6945,-0.6945,-0.6984,-0.7022,-0.7057,-0.7057,-0.7057,-0.7176,-0.7296,-0.7407,-0.748,-0.7518,-0.7518,-0.7518,-0.7518,-0.7518,-0.7518,-0.7518,-0.7557,-0.771,-0.7983,-0.8742,-0.9226,-0.982,-1.0083,-1.0233,-1.0571,-1.0795,-1.0844,-1.1037,-1.1372,-1.1855,-1.2452,-1.2783,-1.3083,-1.3375,-1.3492,-1.3317,-1.3179,-1.3206,-1.3082,-1.2884,-1.2753,-1.2536,-1.2616,-1.2813,-1.2797,-0.4782,-0.4782,-0.4782,-0.4782,-0.4782,-0.4782,-0.4782,-0.4782,-0.4782,-0.4909,-0.5086,-0.5061,-0.5037,-0.5052,-0.5227,-0.5438,-0.5542,-0.5676,-0.572,-0.5899,-0.6113,-0.6155,-0.62,-0.631,-0.6384,-0.6387,-0.6387,-0.6387,-0.6379,-0.6381,-0.6376,-0.6374,-0.6352,-0.6306,-0.6254,-0.6224,-0.6127,-0.6013,-0.6007,-0.5939,-0.5852,-0.5855,-0.5839,-0.5723,-0.5688,-0.5688,-0.5733,-0.5866,-0.5952,-0.6174,-0.6574,-0.6881,-0.701,-0.7095,-0.7095,-0.7095,-0.7065,-0.697,-0.68,-0.6661,-0.66,-0.6405,-0.63,-0.63,-0.6338,-0.6563,-0.6563,-0.6602,-0.6714,-0.6756,-0.6791,-0.6868,-0.6942,-0.698,-0.698,-0.7061,-0.7219,-0.7373,-0.7484,-0.7518,-0.7518,-0.7518,-0.7518,-0.7518,-0.7518,-0.7518,-0.7518,-0.7518,-0.7753,-0.791,-0.8322,-0.8656,-0.9074,-0.9415,-0.9836,-0.9986,-1.0024,-1.025,-1.0519,-1.1223,-1.1855,-1.2305,-1.2673,-1.2778,-1.281,-1.277,-1.2707,-1.2684,-1.2633,-1.2434,-1.2346,-1.2266,-1.2397,-1.2487,-1.2519,-0.4782,-0.4782,-0.4782,-0.4782,-0.4782,-0.4782,-0.4782,-0.4782,-0.4784,-0.4885,-0.499,-0.4855,-0.4834,-0.4896,-0.4924,-0.5061,-0.5196,-0.5379,-0.5418,-0.5565,-0.5802,-0.5884,-0.5976,-0.6072,-0.6184,-0.6258,-0.6271,-0.636,-0.6396,-0.6388,-0.6344,-0.6317,-0.6222,-0.6187,-0.6097,-0.6048,-0.6005,-0.5915,-0.5871,-0.5785,-0.5772,-0.578,-0.575,-0.5715,-0.5688,-0.5688,-0.5688,-0.5733,-0.5863,-0.6086,-0.6396,-0.6704,-0.6922,-0.701,-0.7054,-0.7054,-0.7095,-0.6976,-0.678,-0.6695,-0.6559,-0.6392,-0.6327,-0.63,-0.63,-0.6338,-0.6338,-0.6416,-0.6528,-0.6602,-0.6641,-0.6679,-0.6753,-0.6826,-0.6868,-0.6984,-0.7176,-0.7373,-0.7446,-0.748,-0.7518,-0.7518,-0.7518,-0.7518,-0.7518,-0.7518,-0.7518,-0.7518,-0.7557,-0.7676,-0.7902,-0.8246,-0.8589,-0.8899,-0.9051,-0.9127,-0.916,-0.9349,-0.9652,-1.0513,-1.1298,-1.1818,-1.2037,-1.1909,-1.1933,-1.2002,-1.2011,-1.1957,-1.1937,-1.1795,-1.1761,-1.1689,-1.1959,-1.2085,-1.2196,-0.4782,-0.4782,-0.4782,-0.4782,-0.4782,-0.4782,-0.4782,-0.4782,-0.4784,-0.4885,-0.491,-0.4826,-0.483,-0.5045,-0.4986,-0.5051,-0.5067,-0.5115,-0.5295,-0.5428,-0.5549,-0.5577,-0.5661,-0.5777,-0.5811,-0.5942,-0.6082,-0.6129,-0.594,-0.6108,-0.619,-0.5937,-0.6024,-0.5968,-0.5869,-0.5828,-0.5753,-0.5634,-0.5605,-0.5581,-0.562,-0.5668,-0.5707,-0.5691,-0.5688,-0.5688,-0.5688,-0.5688,-0.5733,-0.5866,-0.6127,-0.6482,-0.6704,-0.6836,-0.6925,-0.701,-0.7054,-0.693,-0.6765,-0.6715,-0.6579,-0.6347,-0.63,-0.63,-0.63,-0.63,-0.63,-0.63,-0.6374,-0.6374,-0.6412,-0.6412,-0.6486,-0.6563,-0.6641,-0.6868,-0.7103,-0.7292,-0.7446,-0.7484,-0.7484,-0.7484,-0.7518,-0.7518,-0.7518,-0.7518,-0.7518,-0.7518,-0.7518,-0.7561,-0.7599,-0.7868,-0.8174,-0.7983,-0.7944,-0.8174,-0.8289,-0.8441,-0.8813,-0.9648,-1.051,-1.1366,-1.1495,-1.0949,-1.1049,-1.1243,-1.1246,-1.0952,-1.0909,-1.0804,-1.0953,-1.1085,-1.1384,-1.1556,-1.1584]}]]